<?xml version="1.0" encoding="UTF-8" standalone="no" ?>
<gpx xmlns="http://www.topografix.com/GPX/1/1" xmlns:xsi="http://www.w3.org/2001/XMLSchema-instance" xsi:schemaLocation="http://www.topografix.com/GPX/1/1 http://www.topografix.com/GPX/1/1/gpx.xsd" version="1.1" creator="VisuGPX - https://www.visugpx.com">
  <metadata>
    <name>TRACE GRP</name>
    <desc><![CDATA[Trace GRP 160km]]></desc>
  </metadata>
  <trk>
    <name><![CDATA[Ultra2016 on GPSies.com]]></name>
    <trkseg>
      <trkpt lat="42.82985" lon="0.32715">
        <ele>794</ele>
        <time>2010-01-01T00:00:00Z</time>
      </trkpt>
      <trkpt lat="42.82963" lon="0.32845">
        <ele>793</ele>
        <time>2010-01-01T00:00:38Z</time>
      </trkpt>
      <trkpt lat="42.8292" lon="0.32881">
        <ele>794</ele>
        <time>2010-01-01T00:00:59Z</time>
      </trkpt>
      <trkpt lat="42.8267" lon="0.32806">
        <ele>799</ele>
        <time>2010-01-01T00:02:41Z</time>
      </trkpt>
      <trkpt lat="42.82395" lon="0.32495">
        <ele>805</ele>
        <time>2010-01-01T00:05:04Z</time>
      </trkpt>
      <trkpt lat="42.82331" lon="0.32389">
        <ele>807</ele>
        <time>2010-01-01T00:05:45Z</time>
      </trkpt>
      <trkpt lat="42.82478" lon="0.32074">
        <ele>807</ele>
        <time>2010-01-01T00:07:34Z</time>
      </trkpt>
      <trkpt lat="42.82561" lon="0.31859">
        <ele>817</ele>
        <time>2010-01-01T00:08:45Z</time>
      </trkpt>
      <trkpt lat="42.82575" lon="0.31792">
        <ele>821</ele>
        <time>2010-01-01T00:09:06Z</time>
      </trkpt>
      <trkpt lat="42.82482" lon="0.31718">
        <ele>820</ele>
        <time>2010-01-01T00:09:49Z</time>
      </trkpt>
      <trkpt lat="42.82362" lon="0.31615">
        <ele>823</ele>
        <time>2010-01-01T00:10:46Z</time>
      </trkpt>
      <trkpt lat="42.8234" lon="0.31508">
        <ele>831</ele>
        <time>2010-01-01T00:11:19Z</time>
      </trkpt>
      <trkpt lat="42.82371" lon="0.31396">
        <ele>861</ele>
        <time>2010-01-01T00:11:54Z</time>
      </trkpt>
      <trkpt lat="42.82624" lon="0.31377">
        <ele>884</ele>
        <time>2010-01-01T00:13:35Z</time>
      </trkpt>
      <trkpt lat="42.82454" lon="0.31278">
        <ele>898</ele>
        <time>2010-01-01T00:14:49Z</time>
      </trkpt>
      <trkpt lat="42.82625" lon="0.31249">
        <ele>941</ele>
        <time>2010-01-01T00:15:58Z</time>
      </trkpt>
      <trkpt lat="42.82743" lon="0.31182">
        <ele>942</ele>
        <time>2010-01-01T00:16:49Z</time>
      </trkpt>
      <trkpt lat="42.82755" lon="0.31032">
        <ele>974</ele>
        <time>2010-01-01T00:17:34Z</time>
      </trkpt>
      <trkpt lat="42.82804" lon="0.30836">
        <ele>1008</ele>
        <time>2010-01-01T00:18:34Z</time>
      </trkpt>
      <trkpt lat="42.82813" lon="0.30705">
        <ele>1039</ele>
        <time>2010-01-01T00:19:13Z</time>
      </trkpt>
      <trkpt lat="42.82807" lon="0.30594">
        <ele>1058</ele>
        <time>2010-01-01T00:19:46Z</time>
      </trkpt>
      <trkpt lat="42.82807" lon="0.30523">
        <ele>1073</ele>
        <time>2010-01-01T00:20:06Z</time>
      </trkpt>
      <trkpt lat="42.82713" lon="0.30667">
        <ele>1081</ele>
        <time>2010-01-01T00:21:03Z</time>
      </trkpt>
      <trkpt lat="42.82554" lon="0.30773">
        <ele>1092</ele>
        <time>2010-01-01T00:22:14Z</time>
      </trkpt>
      <trkpt lat="42.82644" lon="0.30647">
        <ele>1129</ele>
        <time>2010-01-01T00:23:06Z</time>
      </trkpt>
      <trkpt lat="42.8257" lon="0.30707">
        <ele>1120</ele>
        <time>2010-01-01T00:23:40Z</time>
      </trkpt>
      <trkpt lat="42.82639" lon="0.30555">
        <ele>1156</ele>
        <time>2010-01-01T00:24:33Z</time>
      </trkpt>
      <trkpt lat="42.82575" lon="0.30627">
        <ele>1150</ele>
        <time>2010-01-01T00:25:06Z</time>
      </trkpt>
      <trkpt lat="42.82521" lon="0.30605">
        <ele>1153</ele>
        <time>2010-01-01T00:25:28Z</time>
      </trkpt>
      <trkpt lat="42.82569" lon="0.30591">
        <ele>1158</ele>
        <time>2010-01-01T00:25:48Z</time>
      </trkpt>
      <trkpt lat="42.82406" lon="0.30418">
        <ele>1186</ele>
        <time>2010-01-01T00:27:11Z</time>
      </trkpt>
      <trkpt lat="42.82398" lon="0.3024">
        <ele>1218</ele>
        <time>2010-01-01T00:28:03Z</time>
      </trkpt>
      <trkpt lat="42.82371" lon="0.30023">
        <ele>1245</ele>
        <time>2010-01-01T00:29:08Z</time>
      </trkpt>
      <trkpt lat="42.82437" lon="0.29879">
        <ele>1260</ele>
        <time>2010-01-01T00:29:58Z</time>
      </trkpt>
      <trkpt lat="42.82443" lon="0.29686">
        <ele>1282</ele>
        <time>2010-01-01T00:30:54Z</time>
      </trkpt>
      <trkpt lat="42.82426" lon="0.29475">
        <ele>1303</ele>
        <time>2010-01-01T00:31:57Z</time>
      </trkpt>
      <trkpt lat="42.82404" lon="0.2962">
        <ele>1301</ele>
        <time>2010-01-01T00:32:40Z</time>
      </trkpt>
      <trkpt lat="42.8239" lon="0.29547">
        <ele>1310</ele>
        <time>2010-01-01T00:33:02Z</time>
      </trkpt>
      <trkpt lat="42.82349" lon="0.29463">
        <ele>1323</ele>
        <time>2010-01-01T00:33:32Z</time>
      </trkpt>
      <trkpt lat="42.82285" lon="0.29475">
        <ele>1353</ele>
        <time>2010-01-01T00:33:58Z</time>
      </trkpt>
      <trkpt lat="42.82215" lon="0.29562">
        <ele>1376</ele>
        <time>2010-01-01T00:34:36Z</time>
      </trkpt>
      <trkpt lat="42.82157" lon="0.29566">
        <ele>1396</ele>
        <time>2010-01-01T00:34:59Z</time>
      </trkpt>
      <trkpt lat="42.82056" lon="0.29441">
        <ele>1436</ele>
        <time>2010-01-01T00:35:54Z</time>
      </trkpt>
      <trkpt lat="42.81971" lon="0.29139">
        <ele>1500</ele>
        <time>2010-01-01T00:37:28Z</time>
      </trkpt>
      <trkpt lat="42.81945" lon="0.29023">
        <ele>1511</ele>
        <time>2010-01-01T00:38:04Z</time>
      </trkpt>
      <trkpt lat="42.81923" lon="0.2912">
        <ele>1507</ele>
        <time>2010-01-01T00:38:34Z</time>
      </trkpt>
      <trkpt lat="42.81918" lon="0.28975">
        <ele>1521</ele>
        <time>2010-01-01T00:39:17Z</time>
      </trkpt>
      <trkpt lat="42.81838" lon="0.29133">
        <ele>1527</ele>
        <time>2010-01-01T00:40:13Z</time>
      </trkpt>
      <trkpt lat="42.81784" lon="0.2914">
        <ele>1540</ele>
        <time>2010-01-01T00:40:35Z</time>
      </trkpt>
      <trkpt lat="42.81864" lon="0.28971">
        <ele>1551</ele>
        <time>2010-01-01T00:41:34Z</time>
      </trkpt>
      <trkpt lat="42.81873" lon="0.28857">
        <ele>1564</ele>
        <time>2010-01-01T00:42:08Z</time>
      </trkpt>
      <trkpt lat="42.81826" lon="0.28957">
        <ele>1573</ele>
        <time>2010-01-01T00:42:42Z</time>
      </trkpt>
      <trkpt lat="42.81759" lon="0.28987">
        <ele>1575</ele>
        <time>2010-01-01T00:43:11Z</time>
      </trkpt>
      <trkpt lat="42.81715" lon="0.28949">
        <ele>1591</ele>
        <time>2010-01-01T00:43:31Z</time>
      </trkpt>
      <trkpt lat="42.81799" lon="0.28907">
        <ele>1589</ele>
        <time>2010-01-01T00:44:07Z</time>
      </trkpt>
      <trkpt lat="42.81811" lon="0.28723">
        <ele>1608</ele>
        <time>2010-01-01T00:45:01Z</time>
      </trkpt>
      <trkpt lat="42.81768" lon="0.28783">
        <ele>1605</ele>
        <time>2010-01-01T00:45:26Z</time>
      </trkpt>
      <trkpt lat="42.81788" lon="0.28653">
        <ele>1629</ele>
        <time>2010-01-01T00:46:05Z</time>
      </trkpt>
      <trkpt lat="42.81851" lon="0.28602">
        <ele>1617</ele>
        <time>2010-01-01T00:46:35Z</time>
      </trkpt>
      <trkpt lat="42.81915" lon="0.28393">
        <ele>1664</ele>
        <time>2010-01-01T00:47:41Z</time>
      </trkpt>
      <trkpt lat="42.81918" lon="0.28204">
        <ele>1670</ele>
        <time>2010-01-01T00:48:37Z</time>
      </trkpt>
      <trkpt lat="42.81963" lon="0.2809">
        <ele>1688</ele>
        <time>2010-01-01T00:49:15Z</time>
      </trkpt>
      <trkpt lat="42.81894" lon="0.27822">
        <ele>1767</ele>
        <time>2010-01-01T00:50:38Z</time>
      </trkpt>
      <trkpt lat="42.81889" lon="0.27761">
        <ele>1772</ele>
        <time>2010-01-01T00:50:56Z</time>
      </trkpt>
      <trkpt lat="42.81889" lon="0.27714">
        <ele>1784</ele>
        <time>2010-01-01T00:51:10Z</time>
      </trkpt>
      <trkpt lat="42.81874" lon="0.27616">
        <ele>1801</ele>
        <time>2010-01-01T00:51:39Z</time>
      </trkpt>
      <trkpt lat="42.81886" lon="0.27535">
        <ele>1816</ele>
        <time>2010-01-01T00:52:04Z</time>
      </trkpt>
      <trkpt lat="42.8193" lon="0.27472">
        <ele>1826</ele>
        <time>2010-01-01T00:52:29Z</time>
      </trkpt>
      <trkpt lat="42.82024" lon="0.27446">
        <ele>1823</ele>
        <time>2010-01-01T00:53:07Z</time>
      </trkpt>
      <trkpt lat="42.82044" lon="0.27388">
        <ele>1836</ele>
        <time>2010-01-01T00:53:26Z</time>
      </trkpt>
      <trkpt lat="42.82059" lon="0.27297">
        <ele>1847</ele>
        <time>2010-01-01T00:53:53Z</time>
      </trkpt>
      <trkpt lat="42.82045" lon="0.27107">
        <ele>1849</ele>
        <time>2010-01-01T00:54:50Z</time>
      </trkpt>
      <trkpt lat="42.82042" lon="0.26985">
        <ele>1848</ele>
        <time>2010-01-01T00:55:25Z</time>
      </trkpt>
      <trkpt lat="42.82038" lon="0.26945">
        <ele>1850</ele>
        <time>2010-01-01T00:55:37Z</time>
      </trkpt>
      <trkpt lat="42.82028" lon="0.26888">
        <ele>1852</ele>
        <time>2010-01-01T00:55:54Z</time>
      </trkpt>
      <trkpt lat="42.81954" lon="0.2674">
        <ele>1877</ele>
        <time>2010-01-01T00:56:47Z</time>
      </trkpt>
      <trkpt lat="42.81953" lon="0.26568">
        <ele>1893</ele>
        <time>2010-01-01T00:57:38Z</time>
      </trkpt>
      <trkpt lat="42.82007" lon="0.26351">
        <ele>1901</ele>
        <time>2010-01-01T00:58:45Z</time>
      </trkpt>
      <trkpt lat="42.82083" lon="0.26297">
        <ele>1873</ele>
        <time>2010-01-01T00:59:19Z</time>
      </trkpt>
      <trkpt lat="42.82099" lon="0.26245">
        <ele>1881</ele>
        <time>2010-01-01T00:59:36Z</time>
      </trkpt>
      <trkpt lat="42.82097" lon="0.26193">
        <ele>1873</ele>
        <time>2010-01-01T00:59:51Z</time>
      </trkpt>
      <trkpt lat="42.82094" lon="0.26161">
        <ele>1875</ele>
        <time>2010-01-01T01:00:01Z</time>
      </trkpt>
      <trkpt lat="42.82085" lon="0.26121">
        <ele>1865</ele>
        <time>2010-01-01T01:00:13Z</time>
      </trkpt>
      <trkpt lat="42.82091" lon="0.26084">
        <ele>1872</ele>
        <time>2010-01-01T01:00:24Z</time>
      </trkpt>
      <trkpt lat="42.82071" lon="0.26024">
        <ele>1898</ele>
        <time>2010-01-01T01:00:43Z</time>
      </trkpt>
      <trkpt lat="42.82074" lon="0.25959">
        <ele>1891</ele>
        <time>2010-01-01T01:01:03Z</time>
      </trkpt>
      <trkpt lat="42.8206" lon="0.259">
        <ele>1885</ele>
        <time>2010-01-01T01:01:21Z</time>
      </trkpt>
      <trkpt lat="42.82113" lon="0.25764">
        <ele>1854</ele>
        <time>2010-01-01T01:02:06Z</time>
      </trkpt>
      <trkpt lat="42.82138" lon="0.25695">
        <ele>1856</ele>
        <time>2010-01-01T01:02:28Z</time>
      </trkpt>
      <trkpt lat="42.82138" lon="0.25569">
        <ele>1867</ele>
        <time>2010-01-01T01:03:06Z</time>
      </trkpt>
      <trkpt lat="42.82172" lon="0.25515">
        <ele>1840</ele>
        <time>2010-01-01T01:03:27Z</time>
      </trkpt>
      <trkpt lat="42.82203" lon="0.25464">
        <ele>1839</ele>
        <time>2010-01-01T01:03:46Z</time>
      </trkpt>
      <trkpt lat="42.82216" lon="0.25406">
        <ele>1853</ele>
        <time>2010-01-01T01:04:04Z</time>
      </trkpt>
      <trkpt lat="42.82277" lon="0.25342">
        <ele>1827</ele>
        <time>2010-01-01T01:04:34Z</time>
      </trkpt>
      <trkpt lat="42.82366" lon="0.2527">
        <ele>1819</ele>
        <time>2010-01-01T01:05:16Z</time>
      </trkpt>
      <trkpt lat="42.82499" lon="0.25155">
        <ele>1816</ele>
        <time>2010-01-01T01:06:19Z</time>
      </trkpt>
      <trkpt lat="42.82549" lon="0.24909">
        <ele>1846</ele>
        <time>2010-01-01T01:07:34Z</time>
      </trkpt>
      <trkpt lat="42.8257" lon="0.24842">
        <ele>1855</ele>
        <time>2010-01-01T01:07:55Z</time>
      </trkpt>
      <trkpt lat="42.82712" lon="0.24908">
        <ele>1859</ele>
        <time>2010-01-01T01:08:55Z</time>
      </trkpt>
      <trkpt lat="42.82835" lon="0.24932">
        <ele>1864</ele>
        <time>2010-01-01T01:09:45Z</time>
      </trkpt>
      <trkpt lat="42.8293" lon="0.24823">
        <ele>1897</ele>
        <time>2010-01-01T01:10:35Z</time>
      </trkpt>
      <trkpt lat="42.83021" lon="0.24703">
        <ele>1929</ele>
        <time>2010-01-01T01:11:25Z</time>
      </trkpt>
      <trkpt lat="42.83194" lon="0.2468">
        <ele>1942</ele>
        <time>2010-01-01T01:12:35Z</time>
      </trkpt>
      <trkpt lat="42.8328" lon="0.245">
        <ele>1970</ele>
        <time>2010-01-01T01:13:38Z</time>
      </trkpt>
      <trkpt lat="42.83318" lon="0.24392">
        <ele>1999</ele>
        <time>2010-01-01T01:14:13Z</time>
      </trkpt>
      <trkpt lat="42.83378" lon="0.2416">
        <ele>2060</ele>
        <time>2010-01-01T01:15:25Z</time>
      </trkpt>
      <trkpt lat="42.83343" lon="0.24074">
        <ele>2076</ele>
        <time>2010-01-01T01:15:54Z</time>
      </trkpt>
      <trkpt lat="42.83271" lon="0.24009">
        <ele>2101</ele>
        <time>2010-01-01T01:16:29Z</time>
      </trkpt>
      <trkpt lat="42.83381" lon="0.23899">
        <ele>2134</ele>
        <time>2010-01-01T01:17:23Z</time>
      </trkpt>
      <trkpt lat="42.83459" lon="0.2373">
        <ele>2187</ele>
        <time>2010-01-01T01:18:22Z</time>
      </trkpt>
      <trkpt lat="42.83308" lon="0.23616">
        <ele>2217</ele>
        <time>2010-01-01T01:19:31Z</time>
      </trkpt>
      <trkpt lat="42.83067" lon="0.23195">
        <ele>2174</ele>
        <time>2010-01-01T01:22:08Z</time>
      </trkpt>
      <trkpt lat="42.82919" lon="0.22854">
        <ele>2125</ele>
        <time>2010-01-01T01:24:04Z</time>
      </trkpt>
      <trkpt lat="42.8285" lon="0.22534">
        <ele>2079</ele>
        <time>2010-01-01T01:25:42Z</time>
      </trkpt>
      <trkpt lat="42.82835" lon="0.2208">
        <ele>2041</ele>
        <time>2010-01-01T01:27:55Z</time>
      </trkpt>
      <trkpt lat="42.82863" lon="0.21893">
        <ele>2045</ele>
        <time>2010-01-01T01:28:51Z</time>
      </trkpt>
      <trkpt lat="42.82895" lon="0.21727">
        <ele>2054</ele>
        <time>2010-01-01T01:29:42Z</time>
      </trkpt>
      <trkpt lat="42.82919" lon="0.21603">
        <ele>2084</ele>
        <time>2010-01-01T01:30:19Z</time>
      </trkpt>
      <trkpt lat="42.82932" lon="0.21429">
        <ele>2090</ele>
        <time>2010-01-01T01:31:11Z</time>
      </trkpt>
      <trkpt lat="42.82978" lon="0.21377">
        <ele>2090</ele>
        <time>2010-01-01T01:31:34Z</time>
      </trkpt>
      <trkpt lat="42.83024" lon="0.21393">
        <ele>2113</ele>
        <time>2010-01-01T01:31:53Z</time>
      </trkpt>
      <trkpt lat="42.83031" lon="0.21281">
        <ele>2108</ele>
        <time>2010-01-01T01:32:26Z</time>
      </trkpt>
      <trkpt lat="42.83159" lon="0.21086">
        <ele>2137</ele>
        <time>2010-01-01T01:33:43Z</time>
      </trkpt>
      <trkpt lat="42.83234" lon="0.20997">
        <ele>2126</ele>
        <time>2010-01-01T01:34:23Z</time>
      </trkpt>
      <trkpt lat="42.83363" lon="0.20962">
        <ele>2136</ele>
        <time>2010-01-01T01:35:16Z</time>
      </trkpt>
      <trkpt lat="42.83564" lon="0.20863">
        <ele>2121</ele>
        <time>2010-01-01T01:36:41Z</time>
      </trkpt>
      <trkpt lat="42.83725" lon="0.20845">
        <ele>2127</ele>
        <time>2010-01-01T01:37:46Z</time>
      </trkpt>
      <trkpt lat="42.8381" lon="0.20824">
        <ele>2130</ele>
        <time>2010-01-01T01:38:20Z</time>
      </trkpt>
      <trkpt lat="42.83873" lon="0.20834">
        <ele>2154</ele>
        <time>2010-01-01T01:38:46Z</time>
      </trkpt>
      <trkpt lat="42.83993" lon="0.2078">
        <ele>2136</ele>
        <time>2010-01-01T01:39:36Z</time>
      </trkpt>
      <trkpt lat="42.84075" lon="0.20832">
        <ele>2131</ele>
        <time>2010-01-01T01:40:12Z</time>
      </trkpt>
      <trkpt lat="42.84198" lon="0.20907">
        <ele>2133</ele>
        <time>2010-01-01T01:41:06Z</time>
      </trkpt>
      <trkpt lat="42.8422" lon="0.20906">
        <ele>2132</ele>
        <time>2010-01-01T01:41:15Z</time>
      </trkpt>
      <trkpt lat="42.84389" lon="0.21028">
        <ele>2170</ele>
        <time>2010-01-01T01:42:32Z</time>
      </trkpt>
      <trkpt lat="42.8446" lon="0.21007">
        <ele>2175</ele>
        <time>2010-01-01T01:43:01Z</time>
      </trkpt>
      <trkpt lat="42.84635" lon="0.2119">
        <ele>2196</ele>
        <time>2010-01-01T01:44:29Z</time>
      </trkpt>
      <trkpt lat="42.84663" lon="0.2125">
        <ele>2201</ele>
        <time>2010-01-01T01:44:50Z</time>
      </trkpt>
      <trkpt lat="42.84758" lon="0.21277">
        <ele>2211</ele>
        <time>2010-01-01T01:45:29Z</time>
      </trkpt>
      <trkpt lat="42.8482" lon="0.21345">
        <ele>2221</ele>
        <time>2010-01-01T01:46:01Z</time>
      </trkpt>
      <trkpt lat="42.84893" lon="0.21272">
        <ele>2221</ele>
        <time>2010-01-01T01:46:37Z</time>
      </trkpt>
      <trkpt lat="42.84984" lon="0.21257">
        <ele>2231</ele>
        <time>2010-01-01T01:47:14Z</time>
      </trkpt>
      <trkpt lat="42.85069" lon="0.21199">
        <ele>2228</ele>
        <time>2010-01-01T01:47:51Z</time>
      </trkpt>
      <trkpt lat="42.85122" lon="0.21197">
        <ele>2236</ele>
        <time>2010-01-01T01:48:13Z</time>
      </trkpt>
      <trkpt lat="42.85242" lon="0.21125">
        <ele>2235</ele>
        <time>2010-01-01T01:49:05Z</time>
      </trkpt>
      <trkpt lat="42.853" lon="0.21086">
        <ele>2252</ele>
        <time>2010-01-01T01:49:31Z</time>
      </trkpt>
      <trkpt lat="42.85356" lon="0.20974">
        <ele>2246</ele>
        <time>2010-01-01T01:50:11Z</time>
      </trkpt>
      <trkpt lat="42.85482" lon="0.20994">
        <ele>2258</ele>
        <time>2010-01-01T01:51:02Z</time>
      </trkpt>
      <trkpt lat="42.85562" lon="0.20942">
        <ele>2262</ele>
        <time>2010-01-01T01:51:37Z</time>
      </trkpt>
      <trkpt lat="42.85596" lon="0.20849">
        <ele>2272</ele>
        <time>2010-01-01T01:52:08Z</time>
      </trkpt>
      <trkpt lat="42.85597" lon="0.20757">
        <ele>2284</ele>
        <time>2010-01-01T01:52:35Z</time>
      </trkpt>
      <trkpt lat="42.85672" lon="0.20719">
        <ele>2298</ele>
        <time>2010-01-01T01:53:06Z</time>
      </trkpt>
      <trkpt lat="42.85804" lon="0.20741">
        <ele>2312</ele>
        <time>2010-01-01T01:54:00Z</time>
      </trkpt>
      <trkpt lat="42.85913" lon="0.20751">
        <ele>2320</ele>
        <time>2010-01-01T01:54:44Z</time>
      </trkpt>
      <trkpt lat="42.85999" lon="0.20677">
        <ele>2332</ele>
        <time>2010-01-01T01:55:24Z</time>
      </trkpt>
      <trkpt lat="42.86103" lon="0.20708">
        <ele>2368</ele>
        <time>2010-01-01T01:56:07Z</time>
      </trkpt>
      <trkpt lat="42.86134" lon="0.20665">
        <ele>2374</ele>
        <time>2010-01-01T01:56:25Z</time>
      </trkpt>
      <trkpt lat="42.86285" lon="0.20721">
        <ele>2401</ele>
        <time>2010-01-01T01:57:27Z</time>
      </trkpt>
      <trkpt lat="42.86375" lon="0.20699">
        <ele>2411</ele>
        <time>2010-01-01T01:58:04Z</time>
      </trkpt>
      <trkpt lat="42.86485" lon="0.20698">
        <ele>2419</ele>
        <time>2010-01-01T01:58:48Z</time>
      </trkpt>
      <trkpt lat="42.86517" lon="0.2066">
        <ele>2427</ele>
        <time>2010-01-01T01:59:05Z</time>
      </trkpt>
      <trkpt lat="42.86569" lon="0.20659">
        <ele>2436</ele>
        <time>2010-01-01T01:59:26Z</time>
      </trkpt>
      <trkpt lat="42.86589" lon="0.20672">
        <ele>2450</ele>
        <time>2010-01-01T01:59:35Z</time>
      </trkpt>
      <trkpt lat="42.86628" lon="0.20701">
        <ele>2475</ele>
        <time>2010-01-01T01:59:52Z</time>
      </trkpt>
      <trkpt lat="42.86688" lon="0.20658">
        <ele>2483</ele>
        <time>2010-01-01T02:00:19Z</time>
      </trkpt>
      <trkpt lat="42.86688" lon="0.2064">
        <ele>2483</ele>
        <time>2010-01-01T02:00:25Z</time>
      </trkpt>
      <trkpt lat="42.86724" lon="0.20625">
        <ele>2485</ele>
        <time>2010-01-01T02:00:40Z</time>
      </trkpt>
      <trkpt lat="42.86732" lon="0.20697">
        <ele>2496</ele>
        <time>2010-01-01T02:01:01Z</time>
      </trkpt>
      <trkpt lat="42.86871" lon="0.20715">
        <ele>2442</ele>
        <time>2010-01-01T02:01:57Z</time>
      </trkpt>
      <trkpt lat="42.87007" lon="0.20645">
        <ele>2412</ele>
        <time>2010-01-01T02:02:56Z</time>
      </trkpt>
      <trkpt lat="42.87099" lon="0.20531">
        <ele>2411</ele>
        <time>2010-01-01T02:03:45Z</time>
      </trkpt>
      <trkpt lat="42.87139" lon="0.20509">
        <ele>2412</ele>
        <time>2010-01-01T02:04:03Z</time>
      </trkpt>
      <trkpt lat="42.87189" lon="0.20522">
        <ele>2409</ele>
        <time>2010-01-01T02:04:23Z</time>
      </trkpt>
      <trkpt lat="42.87231" lon="0.20484">
        <ele>2417</ele>
        <time>2010-01-01T02:04:43Z</time>
      </trkpt>
      <trkpt lat="42.87273" lon="0.20467">
        <ele>2406</ele>
        <time>2010-01-01T02:05:01Z</time>
      </trkpt>
      <trkpt lat="42.87363" lon="0.20546">
        <ele>2374</ele>
        <time>2010-01-01T02:05:44Z</time>
      </trkpt>
      <trkpt lat="42.87412" lon="0.20544">
        <ele>2370</ele>
        <time>2010-01-01T02:06:03Z</time>
      </trkpt>
      <trkpt lat="42.87462" lon="0.20573">
        <ele>2354</ele>
        <time>2010-01-01T02:06:25Z</time>
      </trkpt>
      <trkpt lat="42.87551" lon="0.20524">
        <ele>2345</ele>
        <time>2010-01-01T02:07:03Z</time>
      </trkpt>
      <trkpt lat="42.87633" lon="0.20591">
        <ele>2336</ele>
        <time>2010-01-01T02:07:42Z</time>
      </trkpt>
      <trkpt lat="42.87722" lon="0.20533">
        <ele>2316</ele>
        <time>2010-01-01T02:08:21Z</time>
      </trkpt>
      <trkpt lat="42.87762" lon="0.20472">
        <ele>2295</ele>
        <time>2010-01-01T02:08:45Z</time>
      </trkpt>
      <trkpt lat="42.87843" lon="0.20443">
        <ele>2272</ele>
        <time>2010-01-01T02:09:19Z</time>
      </trkpt>
      <trkpt lat="42.87865" lon="0.2039">
        <ele>2267</ele>
        <time>2010-01-01T02:09:37Z</time>
      </trkpt>
      <trkpt lat="42.87908" lon="0.20398">
        <ele>2260</ele>
        <time>2010-01-01T02:09:54Z</time>
      </trkpt>
      <trkpt lat="42.87961" lon="0.20457">
        <ele>2237</ele>
        <time>2010-01-01T02:10:21Z</time>
      </trkpt>
      <trkpt lat="42.87978" lon="0.20539">
        <ele>2241</ele>
        <time>2010-01-01T02:10:46Z</time>
      </trkpt>
      <trkpt lat="42.88068" lon="0.20575">
        <ele>2224</ele>
        <time>2010-01-01T02:11:24Z</time>
      </trkpt>
      <trkpt lat="42.88112" lon="0.20595">
        <ele>2219</ele>
        <time>2010-01-01T02:11:42Z</time>
      </trkpt>
      <trkpt lat="42.88154" lon="0.20559">
        <ele>2217</ele>
        <time>2010-01-01T02:12:02Z</time>
      </trkpt>
      <trkpt lat="42.88201" lon="0.20543">
        <ele>2209</ele>
        <time>2010-01-01T02:12:22Z</time>
      </trkpt>
      <trkpt lat="42.88285" lon="0.20509">
        <ele>2193</ele>
        <time>2010-01-01T02:12:57Z</time>
      </trkpt>
      <trkpt lat="42.88379" lon="0.20502">
        <ele>2165</ele>
        <time>2010-01-01T02:13:34Z</time>
      </trkpt>
      <trkpt lat="42.88416" lon="0.2043">
        <ele>2183</ele>
        <time>2010-01-01T02:14:00Z</time>
      </trkpt>
      <trkpt lat="42.88459" lon="0.20444">
        <ele>2165</ele>
        <time>2010-01-01T02:14:18Z</time>
      </trkpt>
      <trkpt lat="42.88441" lon="0.20473">
        <ele>2162</ele>
        <time>2010-01-01T02:14:29Z</time>
      </trkpt>
      <trkpt lat="42.88479" lon="0.20487">
        <ele>2153</ele>
        <time>2010-01-01T02:14:45Z</time>
      </trkpt>
      <trkpt lat="42.88466" lon="0.20519">
        <ele>2140</ele>
        <time>2010-01-01T02:14:56Z</time>
      </trkpt>
      <trkpt lat="42.88546" lon="0.20622">
        <ele>2126</ele>
        <time>2010-01-01T02:15:39Z</time>
      </trkpt>
      <trkpt lat="42.8858" lon="0.20642">
        <ele>2130</ele>
        <time>2010-01-01T02:15:54Z</time>
      </trkpt>
      <trkpt lat="42.8867" lon="0.2055">
        <ele>2132</ele>
        <time>2010-01-01T02:16:39Z</time>
      </trkpt>
      <trkpt lat="42.8875" lon="0.20516">
        <ele>2128</ele>
        <time>2010-01-01T02:17:13Z</time>
      </trkpt>
      <trkpt lat="42.88884" lon="0.20517">
        <ele>2142</ele>
        <time>2010-01-01T02:18:06Z</time>
      </trkpt>
      <trkpt lat="42.88889" lon="0.20487">
        <ele>2131</ele>
        <time>2010-01-01T02:18:16Z</time>
      </trkpt>
      <trkpt lat="42.88978" lon="0.20331">
        <ele>2136</ele>
        <time>2010-01-01T02:19:14Z</time>
      </trkpt>
      <trkpt lat="42.89098" lon="0.20143">
        <ele>2138</ele>
        <time>2010-01-01T02:20:27Z</time>
      </trkpt>
      <trkpt lat="42.89139" lon="0.20071">
        <ele>2128</ele>
        <time>2010-01-01T02:20:53Z</time>
      </trkpt>
      <trkpt lat="42.89196" lon="0.20094">
        <ele>2134</ele>
        <time>2010-01-01T02:21:17Z</time>
      </trkpt>
      <trkpt lat="42.89217" lon="0.20062">
        <ele>2129</ele>
        <time>2010-01-01T02:21:30Z</time>
      </trkpt>
      <trkpt lat="42.89169" lon="0.20009">
        <ele>2127</ele>
        <time>2010-01-01T02:21:54Z</time>
      </trkpt>
      <trkpt lat="42.89183" lon="0.19917">
        <ele>2112</ele>
        <time>2010-01-01T02:22:22Z</time>
      </trkpt>
      <trkpt lat="42.89222" lon="0.19839">
        <ele>2095</ele>
        <time>2010-01-01T02:22:50Z</time>
      </trkpt>
      <trkpt lat="42.8925" lon="0.19807">
        <ele>2082</ele>
        <time>2010-01-01T02:23:04Z</time>
      </trkpt>
      <trkpt lat="42.89263" lon="0.19783">
        <ele>2082</ele>
        <time>2010-01-01T02:23:13Z</time>
      </trkpt>
      <trkpt lat="42.89283" lon="0.19767">
        <ele>2081</ele>
        <time>2010-01-01T02:23:23Z</time>
      </trkpt>
      <trkpt lat="42.89292" lon="0.19739">
        <ele>2088</ele>
        <time>2010-01-01T02:23:31Z</time>
      </trkpt>
      <trkpt lat="42.89339" lon="0.19743">
        <ele>2067</ele>
        <time>2010-01-01T02:23:50Z</time>
      </trkpt>
      <trkpt lat="42.8935" lon="0.19718">
        <ele>2070</ele>
        <time>2010-01-01T02:23:59Z</time>
      </trkpt>
      <trkpt lat="42.89377" lon="0.19726">
        <ele>2068</ele>
        <time>2010-01-01T02:24:10Z</time>
      </trkpt>
      <trkpt lat="42.89403" lon="0.19704">
        <ele>2069</ele>
        <time>2010-01-01T02:24:22Z</time>
      </trkpt>
      <trkpt lat="42.89442" lon="0.19739">
        <ele>2069</ele>
        <time>2010-01-01T02:24:41Z</time>
      </trkpt>
      <trkpt lat="42.89507" lon="0.19822">
        <ele>2057</ele>
        <time>2010-01-01T02:25:17Z</time>
      </trkpt>
      <trkpt lat="42.89591" lon="0.19865">
        <ele>2060</ele>
        <time>2010-01-01T02:25:52Z</time>
      </trkpt>
      <trkpt lat="42.89616" lon="0.19879">
        <ele>2060</ele>
        <time>2010-01-01T02:26:03Z</time>
      </trkpt>
      <trkpt lat="42.89632" lon="0.19925">
        <ele>2047</ele>
        <time>2010-01-01T02:26:18Z</time>
      </trkpt>
      <trkpt lat="42.89651" lon="0.19951">
        <ele>2046</ele>
        <time>2010-01-01T02:26:29Z</time>
      </trkpt>
      <trkpt lat="42.8967" lon="0.2">
        <ele>2039</ele>
        <time>2010-01-01T02:26:45Z</time>
      </trkpt>
      <trkpt lat="42.89697" lon="0.20023">
        <ele>2026</ele>
        <time>2010-01-01T02:26:58Z</time>
      </trkpt>
      <trkpt lat="42.89749" lon="0.20009">
        <ele>2027</ele>
        <time>2010-01-01T02:27:19Z</time>
      </trkpt>
      <trkpt lat="42.89781" lon="0.20038">
        <ele>2013</ele>
        <time>2010-01-01T02:27:34Z</time>
      </trkpt>
      <trkpt lat="42.89882" lon="0.20068">
        <ele>2004</ele>
        <time>2010-01-01T02:28:16Z</time>
      </trkpt>
      <trkpt lat="42.8986" lon="0.20167">
        <ele>1964</ele>
        <time>2010-01-01T02:28:46Z</time>
      </trkpt>
      <trkpt lat="42.89922" lon="0.20265">
        <ele>1957</ele>
        <time>2010-01-01T02:29:25Z</time>
      </trkpt>
      <trkpt lat="42.89986" lon="0.20428">
        <ele>1923</ele>
        <time>2010-01-01T02:30:19Z</time>
      </trkpt>
      <trkpt lat="42.90043" lon="0.20453">
        <ele>1922</ele>
        <time>2010-01-01T02:30:43Z</time>
      </trkpt>
      <trkpt lat="42.90089" lon="0.20501">
        <ele>1905</ele>
        <time>2010-01-01T02:31:06Z</time>
      </trkpt>
      <trkpt lat="42.90108" lon="0.20585">
        <ele>1878</ele>
        <time>2010-01-01T02:31:32Z</time>
      </trkpt>
      <trkpt lat="42.90149" lon="0.20694">
        <ele>1856</ele>
        <time>2010-01-01T02:32:07Z</time>
      </trkpt>
      <trkpt lat="42.90181" lon="0.20751">
        <ele>1832</ele>
        <time>2010-01-01T02:32:29Z</time>
      </trkpt>
      <trkpt lat="42.90155" lon="0.20791">
        <ele>1838</ele>
        <time>2010-01-01T02:32:44Z</time>
      </trkpt>
      <trkpt lat="42.90202" lon="0.20796">
        <ele>1823</ele>
        <time>2010-01-01T02:33:03Z</time>
      </trkpt>
      <trkpt lat="42.90245" lon="0.20877">
        <ele>1793</ele>
        <time>2010-01-01T02:33:32Z</time>
      </trkpt>
      <trkpt lat="42.90271" lon="0.20836">
        <ele>1787</ele>
        <time>2010-01-01T02:33:48Z</time>
      </trkpt>
      <trkpt lat="42.90446" lon="0.20958">
        <ele>1719</ele>
        <time>2010-01-01T02:35:07Z</time>
      </trkpt>
      <trkpt lat="42.90455" lon="0.20939">
        <ele>1720</ele>
        <time>2010-01-01T02:35:14Z</time>
      </trkpt>
      <trkpt lat="42.9048" lon="0.2096">
        <ele>1712</ele>
        <time>2010-01-01T02:35:25Z</time>
      </trkpt>
      <trkpt lat="42.90502" lon="0.20938">
        <ele>1694</ele>
        <time>2010-01-01T02:35:36Z</time>
      </trkpt>
      <trkpt lat="42.90514" lon="0.20891">
        <ele>1713</ele>
        <time>2010-01-01T02:35:51Z</time>
      </trkpt>
      <trkpt lat="42.90535" lon="0.20887">
        <ele>1710</ele>
        <time>2010-01-01T02:35:59Z</time>
      </trkpt>
      <trkpt lat="42.90547" lon="0.2097">
        <ele>1674</ele>
        <time>2010-01-01T02:36:23Z</time>
      </trkpt>
      <trkpt lat="42.90653" lon="0.21066">
        <ele>1620</ele>
        <time>2010-01-01T02:37:14Z</time>
      </trkpt>
      <trkpt lat="42.90714" lon="0.21125">
        <ele>1604</ele>
        <time>2010-01-01T02:37:44Z</time>
      </trkpt>
      <trkpt lat="42.90722" lon="0.21177">
        <ele>1601</ele>
        <time>2010-01-01T02:38:00Z</time>
      </trkpt>
      <trkpt lat="42.90719" lon="0.21163">
        <ele>1602</ele>
        <time>2010-01-01T02:38:04Z</time>
      </trkpt>
      <trkpt lat="42.90786" lon="0.21166">
        <ele>1598</ele>
        <time>2010-01-01T02:38:31Z</time>
      </trkpt>
      <trkpt lat="42.90863" lon="0.21146">
        <ele>1604</ele>
        <time>2010-01-01T02:39:02Z</time>
      </trkpt>
      <trkpt lat="42.90915" lon="0.21235">
        <ele>1591</ele>
        <time>2010-01-01T02:39:36Z</time>
      </trkpt>
      <trkpt lat="42.90961" lon="0.21179">
        <ele>1604</ele>
        <time>2010-01-01T02:40:01Z</time>
      </trkpt>
      <trkpt lat="42.91018" lon="0.21201">
        <ele>1594</ele>
        <time>2010-01-01T02:40:24Z</time>
      </trkpt>
      <trkpt lat="42.91041" lon="0.21142">
        <ele>1600</ele>
        <time>2010-01-01T02:40:44Z</time>
      </trkpt>
      <trkpt lat="42.91057" lon="0.21095">
        <ele>1600</ele>
        <time>2010-01-01T02:40:59Z</time>
      </trkpt>
      <trkpt lat="42.91082" lon="0.21012">
        <ele>1620</ele>
        <time>2010-01-01T02:41:26Z</time>
      </trkpt>
      <trkpt lat="42.9111" lon="0.20933">
        <ele>1628</ele>
        <time>2010-01-01T02:41:51Z</time>
      </trkpt>
      <trkpt lat="42.91156" lon="0.20881">
        <ele>1642</ele>
        <time>2010-01-01T02:42:15Z</time>
      </trkpt>
      <trkpt lat="42.91194" lon="0.20815">
        <ele>1642</ele>
        <time>2010-01-01T02:42:40Z</time>
      </trkpt>
      <trkpt lat="42.91235" lon="0.20751">
        <ele>1643</ele>
        <time>2010-01-01T02:43:05Z</time>
      </trkpt>
      <trkpt lat="42.91284" lon="0.20688">
        <ele>1650</ele>
        <time>2010-01-01T02:43:32Z</time>
      </trkpt>
      <trkpt lat="42.9132" lon="0.20625">
        <ele>1675</ele>
        <time>2010-01-01T02:43:55Z</time>
      </trkpt>
      <trkpt lat="42.91351" lon="0.20552">
        <ele>1685</ele>
        <time>2010-01-01T02:44:20Z</time>
      </trkpt>
      <trkpt lat="42.91402" lon="0.20487">
        <ele>1705</ele>
        <time>2010-01-01T02:44:48Z</time>
      </trkpt>
      <trkpt lat="42.91424" lon="0.20419">
        <ele>1716</ele>
        <time>2010-01-01T02:45:10Z</time>
      </trkpt>
      <trkpt lat="42.91461" lon="0.20356">
        <ele>1733</ele>
        <time>2010-01-01T02:45:33Z</time>
      </trkpt>
      <trkpt lat="42.91523" lon="0.20343">
        <ele>1737</ele>
        <time>2010-01-01T02:45:58Z</time>
      </trkpt>
      <trkpt lat="42.91584" lon="0.20414">
        <ele>1728</ele>
        <time>2010-01-01T02:46:30Z</time>
      </trkpt>
      <trkpt lat="42.91656" lon="0.20374">
        <ele>1735</ele>
        <time>2010-01-01T02:47:02Z</time>
      </trkpt>
      <trkpt lat="42.91707" lon="0.2033">
        <ele>1747</ele>
        <time>2010-01-01T02:47:26Z</time>
      </trkpt>
      <trkpt lat="42.91763" lon="0.2029">
        <ele>1724</ele>
        <time>2010-01-01T02:47:51Z</time>
      </trkpt>
      <trkpt lat="42.91818" lon="0.20253">
        <ele>1721</ele>
        <time>2010-01-01T02:48:16Z</time>
      </trkpt>
      <trkpt lat="42.91871" lon="0.20211">
        <ele>1721</ele>
        <time>2010-01-01T02:48:40Z</time>
      </trkpt>
      <trkpt lat="42.91927" lon="0.20162">
        <ele>1712</ele>
        <time>2010-01-01T02:49:06Z</time>
      </trkpt>
      <trkpt lat="42.91968" lon="0.20103">
        <ele>1705</ele>
        <time>2010-01-01T02:49:30Z</time>
      </trkpt>
      <trkpt lat="42.92003" lon="0.20066">
        <ele>1680</ele>
        <time>2010-01-01T02:49:48Z</time>
      </trkpt>
      <trkpt lat="42.91981" lon="0.19946">
        <ele>1704</ele>
        <time>2010-01-01T02:50:24Z</time>
      </trkpt>
      <trkpt lat="42.91967" lon="0.19848">
        <ele>1690</ele>
        <time>2010-01-01T02:50:54Z</time>
      </trkpt>
      <trkpt lat="42.91941" lon="0.19756">
        <ele>1676</ele>
        <time>2010-01-01T02:51:22Z</time>
      </trkpt>
      <trkpt lat="42.91902" lon="0.19686">
        <ele>1687</ele>
        <time>2010-01-01T02:51:48Z</time>
      </trkpt>
      <trkpt lat="42.91898" lon="0.19617">
        <ele>1674</ele>
        <time>2010-01-01T02:52:09Z</time>
      </trkpt>
      <trkpt lat="42.91893" lon="0.19521">
        <ele>1657</ele>
        <time>2010-01-01T02:52:37Z</time>
      </trkpt>
      <trkpt lat="42.91883" lon="0.19429">
        <ele>1647</ele>
        <time>2010-01-01T02:53:04Z</time>
      </trkpt>
      <trkpt lat="42.91887" lon="0.1933">
        <ele>1629</ele>
        <time>2010-01-01T02:53:33Z</time>
      </trkpt>
      <trkpt lat="42.91881" lon="0.1924">
        <ele>1625</ele>
        <time>2010-01-01T02:54:00Z</time>
      </trkpt>
      <trkpt lat="42.91883" lon="0.19145">
        <ele>1615</ele>
        <time>2010-01-01T02:54:28Z</time>
      </trkpt>
      <trkpt lat="42.91851" lon="0.19051">
        <ele>1605</ele>
        <time>2010-01-01T02:54:58Z</time>
      </trkpt>
      <trkpt lat="42.91834" lon="0.19037">
        <ele>1605</ele>
        <time>2010-01-01T02:55:06Z</time>
      </trkpt>
      <trkpt lat="42.9181" lon="0.19018">
        <ele>1623</ele>
        <time>2010-01-01T02:55:17Z</time>
      </trkpt>
      <trkpt lat="42.9178" lon="0.18975">
        <ele>1621</ele>
        <time>2010-01-01T02:55:34Z</time>
      </trkpt>
      <trkpt lat="42.91743" lon="0.1893">
        <ele>1633</ele>
        <time>2010-01-01T02:55:54Z</time>
      </trkpt>
      <trkpt lat="42.91723" lon="0.1891">
        <ele>1626</ele>
        <time>2010-01-01T02:56:04Z</time>
      </trkpt>
      <trkpt lat="42.91683" lon="0.1889">
        <ele>1633</ele>
        <time>2010-01-01T02:56:21Z</time>
      </trkpt>
      <trkpt lat="42.9165" lon="0.18873">
        <ele>1650</ele>
        <time>2010-01-01T02:56:35Z</time>
      </trkpt>
      <trkpt lat="42.91629" lon="0.18848">
        <ele>1650</ele>
        <time>2010-01-01T02:56:46Z</time>
      </trkpt>
      <trkpt lat="42.91603" lon="0.18815">
        <ele>1640</ele>
        <time>2010-01-01T02:57:01Z</time>
      </trkpt>
      <trkpt lat="42.91599" lon="0.18783">
        <ele>1636</ele>
        <time>2010-01-01T02:57:10Z</time>
      </trkpt>
      <trkpt lat="42.91567" lon="0.18737">
        <ele>1641</ele>
        <time>2010-01-01T02:57:29Z</time>
      </trkpt>
      <trkpt lat="42.91522" lon="0.18739">
        <ele>1653</ele>
        <time>2010-01-01T02:57:47Z</time>
      </trkpt>
      <trkpt lat="42.9148" lon="0.18742">
        <ele>1669</ele>
        <time>2010-01-01T02:58:04Z</time>
      </trkpt>
      <trkpt lat="42.91436" lon="0.18702">
        <ele>1668</ele>
        <time>2010-01-01T02:58:25Z</time>
      </trkpt>
      <trkpt lat="42.91341" lon="0.1867">
        <ele>1692</ele>
        <time>2010-01-01T02:59:04Z</time>
      </trkpt>
      <trkpt lat="42.91324" lon="0.1861">
        <ele>1696</ele>
        <time>2010-01-01T02:59:23Z</time>
      </trkpt>
      <trkpt lat="42.91296" lon="0.18561">
        <ele>1687</ele>
        <time>2010-01-01T02:59:41Z</time>
      </trkpt>
      <trkpt lat="42.91222" lon="0.18584">
        <ele>1738</ele>
        <time>2010-01-01T03:00:11Z</time>
      </trkpt>
      <trkpt lat="42.91156" lon="0.18556">
        <ele>1751</ele>
        <time>2010-01-01T03:00:39Z</time>
      </trkpt>
      <trkpt lat="42.91138" lon="0.18488">
        <ele>1730</ele>
        <time>2010-01-01T03:01:00Z</time>
      </trkpt>
      <trkpt lat="42.91066" lon="0.18442">
        <ele>1754</ele>
        <time>2010-01-01T03:01:32Z</time>
      </trkpt>
      <trkpt lat="42.9106" lon="0.1838">
        <ele>1742</ele>
        <time>2010-01-01T03:01:50Z</time>
      </trkpt>
      <trkpt lat="42.91042" lon="0.18312">
        <ele>1734</ele>
        <time>2010-01-01T03:02:12Z</time>
      </trkpt>
      <trkpt lat="42.91028" lon="0.18204">
        <ele>1730</ele>
        <time>2010-01-01T03:02:44Z</time>
      </trkpt>
      <trkpt lat="42.91" lon="0.18157">
        <ele>1734</ele>
        <time>2010-01-01T03:03:01Z</time>
      </trkpt>
      <trkpt lat="42.91021" lon="0.18148">
        <ele>1734</ele>
        <time>2010-01-01T03:03:10Z</time>
      </trkpt>
      <trkpt lat="42.9103" lon="0.18093">
        <ele>1737</ele>
        <time>2010-01-01T03:03:27Z</time>
      </trkpt>
      <trkpt lat="42.91079" lon="0.18143">
        <ele>1733</ele>
        <time>2010-01-01T03:03:51Z</time>
      </trkpt>
      <trkpt lat="42.91149" lon="0.18089">
        <ele>1736</ele>
        <time>2010-01-01T03:04:23Z</time>
      </trkpt>
      <trkpt lat="42.9119" lon="0.18069">
        <ele>1740</ele>
        <time>2010-01-01T03:04:41Z</time>
      </trkpt>
      <trkpt lat="42.91245" lon="0.18051">
        <ele>1734</ele>
        <time>2010-01-01T03:05:03Z</time>
      </trkpt>
      <trkpt lat="42.91276" lon="0.18073">
        <ele>1719</ele>
        <time>2010-01-01T03:05:17Z</time>
      </trkpt>
      <trkpt lat="42.91364" lon="0.18042">
        <ele>1722</ele>
        <time>2010-01-01T03:05:54Z</time>
      </trkpt>
      <trkpt lat="42.9141" lon="0.18097">
        <ele>1694</ele>
        <time>2010-01-01T03:06:18Z</time>
      </trkpt>
      <trkpt lat="42.91469" lon="0.1814">
        <ele>1690</ele>
        <time>2010-01-01T03:06:45Z</time>
      </trkpt>
      <trkpt lat="42.91499" lon="0.18213">
        <ele>1659</ele>
        <time>2010-01-01T03:07:09Z</time>
      </trkpt>
      <trkpt lat="42.91579" lon="0.18252">
        <ele>1662</ele>
        <time>2010-01-01T03:07:44Z</time>
      </trkpt>
      <trkpt lat="42.91607" lon="0.18282">
        <ele>1666</ele>
        <time>2010-01-01T03:07:58Z</time>
      </trkpt>
      <trkpt lat="42.91604" lon="0.18328">
        <ele>1655</ele>
        <time>2010-01-01T03:08:12Z</time>
      </trkpt>
      <trkpt lat="42.91659" lon="0.1841">
        <ele>1638</ele>
        <time>2010-01-01T03:08:44Z</time>
      </trkpt>
      <trkpt lat="42.91768" lon="0.18505">
        <ele>1619</ele>
        <time>2010-01-01T03:09:36Z</time>
      </trkpt>
      <trkpt lat="42.91887" lon="0.18537">
        <ele>1631</ele>
        <time>2010-01-01T03:10:25Z</time>
      </trkpt>
      <trkpt lat="42.92003" lon="0.18557">
        <ele>1660</ele>
        <time>2010-01-01T03:11:11Z</time>
      </trkpt>
      <trkpt lat="42.92099" lon="0.18653">
        <ele>1658</ele>
        <time>2010-01-01T03:11:59Z</time>
      </trkpt>
      <trkpt lat="42.92176" lon="0.18673">
        <ele>1661</ele>
        <time>2010-01-01T03:12:30Z</time>
      </trkpt>
      <trkpt lat="42.92227" lon="0.18615">
        <ele>1676</ele>
        <time>2010-01-01T03:12:57Z</time>
      </trkpt>
      <trkpt lat="42.9228" lon="0.186">
        <ele>1667</ele>
        <time>2010-01-01T03:13:19Z</time>
      </trkpt>
      <trkpt lat="42.92376" lon="0.18537">
        <ele>1666</ele>
        <time>2010-01-01T03:14:01Z</time>
      </trkpt>
      <trkpt lat="42.92461" lon="0.1847">
        <ele>1653</ele>
        <time>2010-01-01T03:14:41Z</time>
      </trkpt>
      <trkpt lat="42.92571" lon="0.18357">
        <ele>1630</ele>
        <time>2010-01-01T03:15:36Z</time>
      </trkpt>
      <trkpt lat="42.9263" lon="0.18282">
        <ele>1607</ele>
        <time>2010-01-01T03:16:08Z</time>
      </trkpt>
      <trkpt lat="42.92705" lon="0.18245">
        <ele>1589</ele>
        <time>2010-01-01T03:16:40Z</time>
      </trkpt>
      <trkpt lat="42.92789" lon="0.18198">
        <ele>1569</ele>
        <time>2010-01-01T03:17:16Z</time>
      </trkpt>
      <trkpt lat="42.92831" lon="0.18138">
        <ele>1574</ele>
        <time>2010-01-01T03:17:40Z</time>
      </trkpt>
      <trkpt lat="42.92831" lon="0.18125">
        <ele>1575</ele>
        <time>2010-01-01T03:17:44Z</time>
      </trkpt>
      <trkpt lat="42.92831" lon="0.18134">
        <ele>1574</ele>
        <time>2010-01-01T03:17:47Z</time>
      </trkpt>
      <trkpt lat="42.92836" lon="0.18036">
        <ele>1572</ele>
        <time>2010-01-01T03:18:15Z</time>
      </trkpt>
      <trkpt lat="42.92859" lon="0.17953">
        <ele>1585</ele>
        <time>2010-01-01T03:18:42Z</time>
      </trkpt>
      <trkpt lat="42.92863" lon="0.17904">
        <ele>1601</ele>
        <time>2010-01-01T03:18:56Z</time>
      </trkpt>
      <trkpt lat="42.92901" lon="0.17795">
        <ele>1621</ele>
        <time>2010-01-01T03:19:31Z</time>
      </trkpt>
      <trkpt lat="42.92935" lon="0.17711">
        <ele>1617</ele>
        <time>2010-01-01T03:19:59Z</time>
      </trkpt>
      <trkpt lat="42.92954" lon="0.17619">
        <ele>1638</ele>
        <time>2010-01-01T03:20:28Z</time>
      </trkpt>
      <trkpt lat="42.9302" lon="0.17558">
        <ele>1622</ele>
        <time>2010-01-01T03:20:59Z</time>
      </trkpt>
      <trkpt lat="42.93015" lon="0.1743">
        <ele>1645</ele>
        <time>2010-01-01T03:21:37Z</time>
      </trkpt>
      <trkpt lat="42.92979" lon="0.1734">
        <ele>1668</ele>
        <time>2010-01-01T03:22:07Z</time>
      </trkpt>
      <trkpt lat="42.92953" lon="0.17234">
        <ele>1676</ele>
        <time>2010-01-01T03:22:40Z</time>
      </trkpt>
      <trkpt lat="42.92911" lon="0.17196">
        <ele>1715</ele>
        <time>2010-01-01T03:23:00Z</time>
      </trkpt>
      <trkpt lat="42.92909" lon="0.17083">
        <ele>1702</ele>
        <time>2010-01-01T03:23:33Z</time>
      </trkpt>
      <trkpt lat="42.92879" lon="0.16818">
        <ele>1776</ele>
        <time>2010-01-01T03:24:52Z</time>
      </trkpt>
      <trkpt lat="42.92847" lon="0.16663">
        <ele>1826</ele>
        <time>2010-01-01T03:25:39Z</time>
      </trkpt>
      <trkpt lat="42.92824" lon="0.16546">
        <ele>1837</ele>
        <time>2010-01-01T03:26:14Z</time>
      </trkpt>
      <trkpt lat="42.92837" lon="0.16502">
        <ele>1807</ele>
        <time>2010-01-01T03:26:28Z</time>
      </trkpt>
      <trkpt lat="42.92845" lon="0.16473">
        <ele>1811</ele>
        <time>2010-01-01T03:26:37Z</time>
      </trkpt>
      <trkpt lat="42.92833" lon="0.16435">
        <ele>1854</ele>
        <time>2010-01-01T03:26:49Z</time>
      </trkpt>
      <trkpt lat="42.92852" lon="0.16385">
        <ele>1846</ele>
        <time>2010-01-01T03:27:06Z</time>
      </trkpt>
      <trkpt lat="42.92876" lon="0.16341">
        <ele>1849</ele>
        <time>2010-01-01T03:27:22Z</time>
      </trkpt>
      <trkpt lat="42.92894" lon="0.16325">
        <ele>1868</ele>
        <time>2010-01-01T03:27:30Z</time>
      </trkpt>
      <trkpt lat="42.92936" lon="0.16306">
        <ele>1849</ele>
        <time>2010-01-01T03:27:48Z</time>
      </trkpt>
      <trkpt lat="42.9301" lon="0.16293">
        <ele>1832</ele>
        <time>2010-01-01T03:28:18Z</time>
      </trkpt>
      <trkpt lat="42.93081" lon="0.16272">
        <ele>1839</ele>
        <time>2010-01-01T03:28:47Z</time>
      </trkpt>
      <trkpt lat="42.93128" lon="0.16234">
        <ele>1863</ele>
        <time>2010-01-01T03:29:09Z</time>
      </trkpt>
      <trkpt lat="42.93187" lon="0.16158">
        <ele>1880</ele>
        <time>2010-01-01T03:29:42Z</time>
      </trkpt>
      <trkpt lat="42.932" lon="0.16121">
        <ele>1883</ele>
        <time>2010-01-01T03:29:54Z</time>
      </trkpt>
      <trkpt lat="42.9323" lon="0.16092">
        <ele>1883</ele>
        <time>2010-01-01T03:30:08Z</time>
      </trkpt>
      <trkpt lat="42.93251" lon="0.16021">
        <ele>1884</ele>
        <time>2010-01-01T03:30:31Z</time>
      </trkpt>
      <trkpt lat="42.9322" lon="0.16013">
        <ele>1898</ele>
        <time>2010-01-01T03:30:44Z</time>
      </trkpt>
      <trkpt lat="42.93202" lon="0.16001">
        <ele>1900</ele>
        <time>2010-01-01T03:30:52Z</time>
      </trkpt>
      <trkpt lat="42.93219" lon="0.15979">
        <ele>1911</ele>
        <time>2010-01-01T03:31:01Z</time>
      </trkpt>
      <trkpt lat="42.93219" lon="0.15958">
        <ele>1914</ele>
        <time>2010-01-01T03:31:08Z</time>
      </trkpt>
      <trkpt lat="42.93182" lon="0.15935">
        <ele>1924</ele>
        <time>2010-01-01T03:31:24Z</time>
      </trkpt>
      <trkpt lat="42.93225" lon="0.1593">
        <ele>1916</ele>
        <time>2010-01-01T03:31:41Z</time>
      </trkpt>
      <trkpt lat="42.93202" lon="0.15888">
        <ele>1935</ele>
        <time>2010-01-01T03:31:56Z</time>
      </trkpt>
      <trkpt lat="42.93164" lon="0.15902">
        <ele>1951</ele>
        <time>2010-01-01T03:32:12Z</time>
      </trkpt>
      <trkpt lat="42.93187" lon="0.15834">
        <ele>1945</ele>
        <time>2010-01-01T03:32:34Z</time>
      </trkpt>
      <trkpt lat="42.93174" lon="0.15764">
        <ele>1966</ele>
        <time>2010-01-01T03:32:55Z</time>
      </trkpt>
      <trkpt lat="42.93162" lon="0.15731">
        <ele>1982</ele>
        <time>2010-01-01T03:33:06Z</time>
      </trkpt>
      <trkpt lat="42.93159" lon="0.15688">
        <ele>1988</ele>
        <time>2010-01-01T03:33:19Z</time>
      </trkpt>
      <trkpt lat="42.93133" lon="0.15628">
        <ele>2005</ele>
        <time>2010-01-01T03:33:39Z</time>
      </trkpt>
      <trkpt lat="42.93127" lon="0.15518">
        <ele>2035</ele>
        <time>2010-01-01T03:34:11Z</time>
      </trkpt>
      <trkpt lat="42.93107" lon="0.15436">
        <ele>2058</ele>
        <time>2010-01-01T03:34:37Z</time>
      </trkpt>
      <trkpt lat="42.9311" lon="0.15375">
        <ele>2081</ele>
        <time>2010-01-01T03:34:55Z</time>
      </trkpt>
      <trkpt lat="42.93088" lon="0.15346">
        <ele>2079</ele>
        <time>2010-01-01T03:35:07Z</time>
      </trkpt>
      <trkpt lat="42.93043" lon="0.15308">
        <ele>2091</ele>
        <time>2010-01-01T03:35:28Z</time>
      </trkpt>
      <trkpt lat="42.92991" lon="0.15415">
        <ele>2086</ele>
        <time>2010-01-01T03:36:06Z</time>
      </trkpt>
      <trkpt lat="42.92984" lon="0.1538">
        <ele>2100</ele>
        <time>2010-01-01T03:36:17Z</time>
      </trkpt>
      <trkpt lat="42.92988" lon="0.15307">
        <ele>2109</ele>
        <time>2010-01-01T03:36:38Z</time>
      </trkpt>
      <trkpt lat="42.92998" lon="0.15266">
        <ele>2111</ele>
        <time>2010-01-01T03:36:51Z</time>
      </trkpt>
      <trkpt lat="42.93021" lon="0.15198">
        <ele>2121</ele>
        <time>2010-01-01T03:37:13Z</time>
      </trkpt>
      <trkpt lat="42.93036" lon="0.15036">
        <ele>2157</ele>
        <time>2010-01-01T03:38:01Z</time>
      </trkpt>
      <trkpt lat="42.93003" lon="0.14963">
        <ele>2176</ele>
        <time>2010-01-01T03:38:26Z</time>
      </trkpt>
      <trkpt lat="42.92966" lon="0.14907">
        <ele>2187</ele>
        <time>2010-01-01T03:38:48Z</time>
      </trkpt>
      <trkpt lat="42.92909" lon="0.14784">
        <ele>2207</ele>
        <time>2010-01-01T03:39:30Z</time>
      </trkpt>
      <trkpt lat="42.92812" lon="0.14652">
        <ele>2231</ele>
        <time>2010-01-01T03:40:25Z</time>
      </trkpt>
      <trkpt lat="42.92811" lon="0.14585">
        <ele>2231</ele>
        <time>2010-01-01T03:40:45Z</time>
      </trkpt>
      <trkpt lat="42.9279" lon="0.14535">
        <ele>2243</ele>
        <time>2010-01-01T03:41:02Z</time>
      </trkpt>
      <trkpt lat="42.92777" lon="0.14479">
        <ele>2251</ele>
        <time>2010-01-01T03:41:19Z</time>
      </trkpt>
      <trkpt lat="42.92802" lon="0.14387">
        <ele>2265</ele>
        <time>2010-01-01T03:41:48Z</time>
      </trkpt>
      <trkpt lat="42.92826" lon="0.14331">
        <ele>2278</ele>
        <time>2010-01-01T03:42:07Z</time>
      </trkpt>
      <trkpt lat="42.92871" lon="0.1432">
        <ele>2284</ele>
        <time>2010-01-01T03:42:25Z</time>
      </trkpt>
      <trkpt lat="42.92886" lon="0.14298">
        <ele>2288</ele>
        <time>2010-01-01T03:42:34Z</time>
      </trkpt>
      <trkpt lat="42.92924" lon="0.143">
        <ele>2296</ele>
        <time>2010-01-01T03:42:49Z</time>
      </trkpt>
      <trkpt lat="42.9295" lon="0.14253">
        <ele>2306</ele>
        <time>2010-01-01T03:43:06Z</time>
      </trkpt>
      <trkpt lat="42.9298" lon="0.14157">
        <ele>2342</ele>
        <time>2010-01-01T03:43:37Z</time>
      </trkpt>
      <trkpt lat="42.93024" lon="0.14039">
        <ele>2360</ele>
        <time>2010-01-01T03:44:16Z</time>
      </trkpt>
      <trkpt lat="42.93054" lon="0.13953">
        <ele>2372</ele>
        <time>2010-01-01T03:44:44Z</time>
      </trkpt>
      <trkpt lat="42.93049" lon="0.13901">
        <ele>2374</ele>
        <time>2010-01-01T03:44:59Z</time>
      </trkpt>
      <trkpt lat="42.9304" lon="0.13862">
        <ele>2372</ele>
        <time>2010-01-01T03:45:11Z</time>
      </trkpt>
      <trkpt lat="42.93074" lon="0.13869">
        <ele>2373</ele>
        <time>2010-01-01T03:45:25Z</time>
      </trkpt>
      <trkpt lat="42.93105" lon="0.1387">
        <ele>2387</ele>
        <time>2010-01-01T03:45:37Z</time>
      </trkpt>
      <trkpt lat="42.93145" lon="0.13983">
        <ele>2400</ele>
        <time>2010-01-01T03:46:14Z</time>
      </trkpt>
      <trkpt lat="42.93178" lon="0.14089">
        <ele>2424</ele>
        <time>2010-01-01T03:46:48Z</time>
      </trkpt>
      <trkpt lat="42.93196" lon="0.14201">
        <ele>2434</ele>
        <time>2010-01-01T03:47:21Z</time>
      </trkpt>
      <trkpt lat="42.9318" lon="0.14263">
        <ele>2418</ele>
        <time>2010-01-01T03:47:41Z</time>
      </trkpt>
      <trkpt lat="42.93183" lon="0.14302">
        <ele>2419</ele>
        <time>2010-01-01T03:47:52Z</time>
      </trkpt>
      <trkpt lat="42.93198" lon="0.14299">
        <ele>2420</ele>
        <time>2010-01-01T03:47:59Z</time>
      </trkpt>
      <trkpt lat="42.93208" lon="0.14249">
        <ele>2436</ele>
        <time>2010-01-01T03:48:14Z</time>
      </trkpt>
      <trkpt lat="42.93224" lon="0.14151">
        <ele>2451</ele>
        <time>2010-01-01T03:48:43Z</time>
      </trkpt>
      <trkpt lat="42.93222" lon="0.1401">
        <ele>2447</ele>
        <time>2010-01-01T03:49:24Z</time>
      </trkpt>
      <trkpt lat="42.93268" lon="0.1385">
        <ele>2479</ele>
        <time>2010-01-01T03:50:15Z</time>
      </trkpt>
      <trkpt lat="42.93285" lon="0.13806">
        <ele>2488</ele>
        <time>2010-01-01T03:50:29Z</time>
      </trkpt>
      <trkpt lat="42.93283" lon="0.13742">
        <ele>2480</ele>
        <time>2010-01-01T03:50:48Z</time>
      </trkpt>
      <trkpt lat="42.93299" lon="0.13738">
        <ele>2494</ele>
        <time>2010-01-01T03:50:55Z</time>
      </trkpt>
      <trkpt lat="42.93297" lon="0.13762">
        <ele>2497</ele>
        <time>2010-01-01T03:51:02Z</time>
      </trkpt>
      <trkpt lat="42.93307" lon="0.13805">
        <ele>2499</ele>
        <time>2010-01-01T03:51:15Z</time>
      </trkpt>
      <trkpt lat="42.9331" lon="0.13904">
        <ele>2504</ele>
        <time>2010-01-01T03:51:44Z</time>
      </trkpt>
      <trkpt lat="42.93309" lon="0.13998">
        <ele>2513</ele>
        <time>2010-01-01T03:52:11Z</time>
      </trkpt>
      <trkpt lat="42.93302" lon="0.1409">
        <ele>2512</ele>
        <time>2010-01-01T03:52:39Z</time>
      </trkpt>
      <trkpt lat="42.93346" lon="0.13948">
        <ele>2532</ele>
        <time>2010-01-01T03:53:24Z</time>
      </trkpt>
      <trkpt lat="42.93362" lon="0.13852">
        <ele>2526</ele>
        <time>2010-01-01T03:53:53Z</time>
      </trkpt>
      <trkpt lat="42.93368" lon="0.13724">
        <ele>2546</ele>
        <time>2010-01-01T03:54:30Z</time>
      </trkpt>
      <trkpt lat="42.93393" lon="0.13631">
        <ele>2531</ele>
        <time>2010-01-01T03:54:59Z</time>
      </trkpt>
      <trkpt lat="42.934" lon="0.13524">
        <ele>2523</ele>
        <time>2010-01-01T03:55:31Z</time>
      </trkpt>
      <trkpt lat="42.93392" lon="0.13435">
        <ele>2499</ele>
        <time>2010-01-01T03:55:57Z</time>
      </trkpt>
      <trkpt lat="42.93414" lon="0.13431">
        <ele>2500</ele>
        <time>2010-01-01T03:56:06Z</time>
      </trkpt>
      <trkpt lat="42.93419" lon="0.13459">
        <ele>2592.2</ele>
        <time>2010-01-01T03:56:14Z</time>
      </trkpt>
      <trkpt lat="42.93434" lon="0.13547">
        <ele>2608.4</ele>
        <time>2010-01-01T03:56:41Z</time>
      </trkpt>
      <trkpt lat="42.93418" lon="0.13627">
        <ele>2597.6</ele>
        <time>2010-01-01T03:57:05Z</time>
      </trkpt>
      <trkpt lat="42.93423" lon="0.13669">
        <ele>2598</ele>
        <time>2010-01-01T03:57:18Z</time>
      </trkpt>
      <trkpt lat="42.93458" lon="0.13705">
        <ele>2614.5</ele>
        <time>2010-01-01T03:57:35Z</time>
      </trkpt>
      <trkpt lat="42.93473" lon="0.13683">
        <ele>2624.4</ele>
        <time>2010-01-01T03:57:44Z</time>
      </trkpt>
      <trkpt lat="42.93441" lon="0.13657">
        <ele>2611.9</ele>
        <time>2010-01-01T03:57:59Z</time>
      </trkpt>
      <trkpt lat="42.93453" lon="0.1358">
        <ele>2621.5</ele>
        <time>2010-01-01T03:58:22Z</time>
      </trkpt>
      <trkpt lat="42.93468" lon="0.13545">
        <ele>2623.5</ele>
        <time>2010-01-01T03:58:34Z</time>
      </trkpt>
      <trkpt lat="42.93497" lon="0.13523">
        <ele>2632.3</ele>
        <time>2010-01-01T03:58:47Z</time>
      </trkpt>
      <trkpt lat="42.93532" lon="0.13511">
        <ele>2636.1</ele>
        <time>2010-01-01T03:59:01Z</time>
      </trkpt>
      <trkpt lat="42.93557" lon="0.13508">
        <ele>2638.6</ele>
        <time>2010-01-01T03:59:11Z</time>
      </trkpt>
      <trkpt lat="42.93565" lon="0.13539">
        <ele>2639.1</ele>
        <time>2010-01-01T03:59:21Z</time>
      </trkpt>
      <trkpt lat="42.93573" lon="0.13609">
        <ele>2651.6</ele>
        <time>2010-01-01T03:59:42Z</time>
      </trkpt>
      <trkpt lat="42.93546" lon="0.13677">
        <ele>2654.4</ele>
        <time>2010-01-01T04:00:04Z</time>
      </trkpt>
      <trkpt lat="42.93548" lon="0.1371">
        <ele>2658.5</ele>
        <time>2010-01-01T04:00:14Z</time>
      </trkpt>
      <trkpt lat="42.93584" lon="0.13674">
        <ele>2669.2</ele>
        <time>2010-01-01T04:00:32Z</time>
      </trkpt>
      <trkpt lat="42.93639" lon="0.13628">
        <ele>2679</ele>
        <time>2010-01-01T04:00:57Z</time>
      </trkpt>
      <trkpt lat="42.93631" lon="0.1373">
        <ele>2701.3</ele>
        <time>2010-01-01T04:01:28Z</time>
      </trkpt>
      <trkpt lat="42.93635" lon="0.13799">
        <ele>2719.3</ele>
        <time>2010-01-01T04:01:48Z</time>
      </trkpt>
      <trkpt lat="42.93675" lon="0.13776">
        <ele>2733.6</ele>
        <time>2010-01-01T04:02:05Z</time>
      </trkpt>
      <trkpt lat="42.9366" lon="0.13839">
        <ele>2742.9</ele>
        <time>2010-01-01T04:02:25Z</time>
      </trkpt>
      <trkpt lat="42.93686" lon="0.13813">
        <ele>2746.5</ele>
        <time>2010-01-01T04:02:38Z</time>
      </trkpt>
      <trkpt lat="42.93696" lon="0.13803">
        <ele>2748.4</ele>
        <time>2010-01-01T04:02:43Z</time>
      </trkpt>
      <trkpt lat="42.93673" lon="0.13887">
        <ele>2763.1</ele>
        <time>2010-01-01T04:03:09Z</time>
      </trkpt>
      <trkpt lat="42.9366" lon="0.13971">
        <ele>2783.4</ele>
        <time>2010-01-01T04:03:34Z</time>
      </trkpt>
      <trkpt lat="42.93708" lon="0.13926">
        <ele>2821</ele>
        <time>2010-01-01T04:03:58Z</time>
      </trkpt>
      <trkpt lat="42.93697" lon="0.1401">
        <ele>2828</ele>
        <time>2010-01-01T04:04:23Z</time>
      </trkpt>
      <trkpt lat="42.93722" lon="0.13992">
        <ele>2821</ele>
        <time>2010-01-01T04:04:34Z</time>
      </trkpt>
      <trkpt lat="42.93702" lon="0.14071">
        <ele>2830</ele>
        <time>2010-01-01T04:04:58Z</time>
      </trkpt>
      <trkpt lat="42.93689" lon="0.14138">
        <ele>2842</ele>
        <time>2010-01-01T04:05:18Z</time>
      </trkpt>
      <trkpt lat="42.93675" lon="0.14174">
        <ele>2846</ele>
        <time>2010-01-01T04:05:30Z</time>
      </trkpt>
      <trkpt lat="42.93686" lon="0.14134">
        <ele>2842</ele>
        <time>2010-01-01T04:05:43Z</time>
      </trkpt>
      <trkpt lat="42.93698" lon="0.14071">
        <ele>2829</ele>
        <time>2010-01-01T04:06:02Z</time>
      </trkpt>
      <trkpt lat="42.93718" lon="0.13992">
        <ele>2821</ele>
        <time>2010-01-01T04:06:26Z</time>
      </trkpt>
      <trkpt lat="42.93693" lon="0.14011">
        <ele>2828</ele>
        <time>2010-01-01T04:06:38Z</time>
      </trkpt>
      <trkpt lat="42.93713" lon="0.13923">
        <ele>2821</ele>
        <time>2010-01-01T04:07:04Z</time>
      </trkpt>
      <trkpt lat="42.93662" lon="0.13965">
        <ele>2782.2</ele>
        <time>2010-01-01T04:07:28Z</time>
      </trkpt>
      <trkpt lat="42.9367" lon="0.13886">
        <ele>2761</ele>
        <time>2010-01-01T04:07:52Z</time>
      </trkpt>
      <trkpt lat="42.93694" lon="0.13812">
        <ele>2749.6</ele>
        <time>2010-01-01T04:08:15Z</time>
      </trkpt>
      <trkpt lat="42.93685" lon="0.1382">
        <ele>2747.5</ele>
        <time>2010-01-01T04:08:19Z</time>
      </trkpt>
      <trkpt lat="42.93657" lon="0.13841">
        <ele>2741.7</ele>
        <time>2010-01-01T04:08:32Z</time>
      </trkpt>
      <trkpt lat="42.93673" lon="0.13773">
        <ele>2731.8</ele>
        <time>2010-01-01T04:08:53Z</time>
      </trkpt>
      <trkpt lat="42.93634" lon="0.13808">
        <ele>2720.5</ele>
        <time>2010-01-01T04:09:11Z</time>
      </trkpt>
      <trkpt lat="42.93628" lon="0.13723">
        <ele>2698.2</ele>
        <time>2010-01-01T04:09:36Z</time>
      </trkpt>
      <trkpt lat="42.93636" lon="0.13632">
        <ele>2679.9</ele>
        <time>2010-01-01T04:10:03Z</time>
      </trkpt>
      <trkpt lat="42.93591" lon="0.13667">
        <ele>2670.7</ele>
        <time>2010-01-01T04:10:23Z</time>
      </trkpt>
      <trkpt lat="42.93551" lon="0.13708">
        <ele>2659.4</ele>
        <time>2010-01-01T04:10:43Z</time>
      </trkpt>
      <trkpt lat="42.93549" lon="0.13676">
        <ele>2655</ele>
        <time>2010-01-01T04:10:53Z</time>
      </trkpt>
      <trkpt lat="42.93568" lon="0.13609">
        <ele>2650.3</ele>
        <time>2010-01-01T04:11:14Z</time>
      </trkpt>
      <trkpt lat="42.93565" lon="0.13539">
        <ele>2639.1</ele>
        <time>2010-01-01T04:11:34Z</time>
      </trkpt>
      <trkpt lat="42.93553" lon="0.13503">
        <ele>2638.6</ele>
        <time>2010-01-01T04:11:46Z</time>
      </trkpt>
      <trkpt lat="42.93523" lon="0.13507">
        <ele>2635.7</ele>
        <time>2010-01-01T04:11:58Z</time>
      </trkpt>
      <trkpt lat="42.93464" lon="0.13546">
        <ele>2621.9</ele>
        <time>2010-01-01T04:12:24Z</time>
      </trkpt>
      <trkpt lat="42.93447" lon="0.13607">
        <ele>2619</ele>
        <time>2010-01-01T04:12:44Z</time>
      </trkpt>
      <trkpt lat="42.93441" lon="0.13657">
        <ele>2611.9</ele>
        <time>2010-01-01T04:12:58Z</time>
      </trkpt>
      <trkpt lat="42.93469" lon="0.13692">
        <ele>2621.3</ele>
        <time>2010-01-01T04:13:13Z</time>
      </trkpt>
      <trkpt lat="42.93451" lon="0.13708">
        <ele>2610.4</ele>
        <time>2010-01-01T04:13:22Z</time>
      </trkpt>
      <trkpt lat="42.93423" lon="0.13669">
        <ele>2598</ele>
        <time>2010-01-01T04:13:38Z</time>
      </trkpt>
      <trkpt lat="42.93418" lon="0.13627">
        <ele>2597.6</ele>
        <time>2010-01-01T04:13:50Z</time>
      </trkpt>
      <trkpt lat="42.93432" lon="0.13556">
        <ele>2608.3</ele>
        <time>2010-01-01T04:14:12Z</time>
      </trkpt>
      <trkpt lat="42.93422" lon="0.13486">
        <ele>2594.3</ele>
        <time>2010-01-01T04:14:33Z</time>
      </trkpt>
      <trkpt lat="42.93414" lon="0.13431">
        <ele>2500</ele>
        <time>2010-01-01T04:14:49Z</time>
      </trkpt>
      <trkpt lat="42.93392" lon="0.13435">
        <ele>2499</ele>
        <time>2010-01-01T04:14:58Z</time>
      </trkpt>
      <trkpt lat="42.934" lon="0.13524">
        <ele>2523</ele>
        <time>2010-01-01T04:15:24Z</time>
      </trkpt>
      <trkpt lat="42.93397" lon="0.13609">
        <ele>2528</ele>
        <time>2010-01-01T04:15:50Z</time>
      </trkpt>
      <trkpt lat="42.93392" lon="0.13662">
        <ele>2534</ele>
        <time>2010-01-01T04:16:05Z</time>
      </trkpt>
      <trkpt lat="42.93368" lon="0.13724">
        <ele>2546</ele>
        <time>2010-01-01T04:16:25Z</time>
      </trkpt>
      <trkpt lat="42.93362" lon="0.13852">
        <ele>2526</ele>
        <time>2010-01-01T04:17:03Z</time>
      </trkpt>
      <trkpt lat="42.93342" lon="0.1396">
        <ele>2534</ele>
        <time>2010-01-01T04:17:36Z</time>
      </trkpt>
      <trkpt lat="42.93302" lon="0.1409">
        <ele>2512</ele>
        <time>2010-01-01T04:18:17Z</time>
      </trkpt>
      <trkpt lat="42.93309" lon="0.13998">
        <ele>2513</ele>
        <time>2010-01-01T04:18:44Z</time>
      </trkpt>
      <trkpt lat="42.93308" lon="0.13901">
        <ele>2502</ele>
        <time>2010-01-01T04:19:13Z</time>
      </trkpt>
      <trkpt lat="42.93305" lon="0.13799">
        <ele>2498</ele>
        <time>2010-01-01T04:19:43Z</time>
      </trkpt>
      <trkpt lat="42.93298" lon="0.13767">
        <ele>2497</ele>
        <time>2010-01-01T04:19:52Z</time>
      </trkpt>
      <trkpt lat="42.93299" lon="0.13738">
        <ele>2494</ele>
        <time>2010-01-01T04:20:01Z</time>
      </trkpt>
      <trkpt lat="42.93281" lon="0.13751">
        <ele>2483</ele>
        <time>2010-01-01T04:20:09Z</time>
      </trkpt>
      <trkpt lat="42.93285" lon="0.13797">
        <ele>2488</ele>
        <time>2010-01-01T04:20:22Z</time>
      </trkpt>
      <trkpt lat="42.93268" lon="0.1385">
        <ele>2479</ele>
        <time>2010-01-01T04:20:39Z</time>
      </trkpt>
      <trkpt lat="42.93222" lon="0.1401">
        <ele>2447</ele>
        <time>2010-01-01T04:21:30Z</time>
      </trkpt>
      <trkpt lat="42.93224" lon="0.14151">
        <ele>2451</ele>
        <time>2010-01-01T04:22:11Z</time>
      </trkpt>
      <trkpt lat="42.93204" lon="0.14259">
        <ele>2424</ele>
        <time>2010-01-01T04:22:44Z</time>
      </trkpt>
      <trkpt lat="42.93198" lon="0.14299">
        <ele>2420</ele>
        <time>2010-01-01T04:22:56Z</time>
      </trkpt>
      <trkpt lat="42.93178" lon="0.14303">
        <ele>2419</ele>
        <time>2010-01-01T04:23:04Z</time>
      </trkpt>
      <trkpt lat="42.9318" lon="0.14263">
        <ele>2418</ele>
        <time>2010-01-01T04:23:15Z</time>
      </trkpt>
      <trkpt lat="42.93196" lon="0.14201">
        <ele>2434</ele>
        <time>2010-01-01T04:23:35Z</time>
      </trkpt>
      <trkpt lat="42.93191" lon="0.14146">
        <ele>2434</ele>
        <time>2010-01-01T04:23:51Z</time>
      </trkpt>
      <trkpt lat="42.93169" lon="0.14058">
        <ele>2428</ele>
        <time>2010-01-01T04:24:18Z</time>
      </trkpt>
      <trkpt lat="42.93142" lon="0.13968">
        <ele>2398</ele>
        <time>2010-01-01T04:24:47Z</time>
      </trkpt>
      <trkpt lat="42.93106" lon="0.13865">
        <ele>2387</ele>
        <time>2010-01-01T04:25:20Z</time>
      </trkpt>
      <trkpt lat="42.9304" lon="0.13859">
        <ele>2372</ele>
        <time>2010-01-01T04:25:46Z</time>
      </trkpt>
      <trkpt lat="42.9304" lon="0.13859">
        <ele>2372</ele>
        <time>2010-01-01T04:25:46Z</time>
      </trkpt>
      <trkpt lat="42.93035" lon="0.13829">
        <ele>2357</ele>
        <time>2010-01-01T04:25:56Z</time>
      </trkpt>
      <trkpt lat="42.92879" lon="0.13848">
        <ele>2374</ele>
        <time>2010-01-01T04:26:58Z</time>
      </trkpt>
      <trkpt lat="42.9277" lon="0.13804">
        <ele>2343</ele>
        <time>2010-01-01T04:27:44Z</time>
      </trkpt>
      <trkpt lat="42.92702" lon="0.13764">
        <ele>2340</ele>
        <time>2010-01-01T04:28:13Z</time>
      </trkpt>
      <trkpt lat="42.92697" lon="0.13755">
        <ele>2339</ele>
        <time>2010-01-01T04:28:17Z</time>
      </trkpt>
      <trkpt lat="42.92624" lon="0.13728">
        <ele>2320</ele>
        <time>2010-01-01T04:28:47Z</time>
      </trkpt>
      <trkpt lat="42.92692" lon="0.13671">
        <ele>2304</ele>
        <time>2010-01-01T04:29:19Z</time>
      </trkpt>
      <trkpt lat="42.9269" lon="0.13633">
        <ele>2285</ele>
        <time>2010-01-01T04:29:30Z</time>
      </trkpt>
      <trkpt lat="42.9269" lon="0.13625">
        <ele>2284</ele>
        <time>2010-01-01T04:29:33Z</time>
      </trkpt>
      <trkpt lat="42.9256" lon="0.13437">
        <ele>2244</ele>
        <time>2010-01-01T04:30:48Z</time>
      </trkpt>
      <trkpt lat="42.92551" lon="0.13499">
        <ele>2247</ele>
        <time>2010-01-01T04:31:07Z</time>
      </trkpt>
      <trkpt lat="42.92552" lon="0.13465">
        <ele>2245</ele>
        <time>2010-01-01T04:31:17Z</time>
      </trkpt>
      <trkpt lat="42.92493" lon="0.13427">
        <ele>2234</ele>
        <time>2010-01-01T04:31:43Z</time>
      </trkpt>
      <trkpt lat="42.92452" lon="0.13388">
        <ele>2227</ele>
        <time>2010-01-01T04:32:03Z</time>
      </trkpt>
      <trkpt lat="42.9239" lon="0.13264">
        <ele>2220</ele>
        <time>2010-01-01T04:32:47Z</time>
      </trkpt>
      <trkpt lat="42.92232" lon="0.13222">
        <ele>2212</ele>
        <time>2010-01-01T04:33:51Z</time>
      </trkpt>
      <trkpt lat="42.92211" lon="0.13207">
        <ele>2213</ele>
        <time>2010-01-01T04:34:01Z</time>
      </trkpt>
      <trkpt lat="42.92205" lon="0.13173">
        <ele>2215</ele>
        <time>2010-01-01T04:34:11Z</time>
      </trkpt>
      <trkpt lat="42.92151" lon="0.13147">
        <ele>2211</ele>
        <time>2010-01-01T04:34:34Z</time>
      </trkpt>
      <trkpt lat="42.92133" lon="0.13061">
        <ele>2227</ele>
        <time>2010-01-01T04:35:00Z</time>
      </trkpt>
      <trkpt lat="42.92092" lon="0.13039">
        <ele>2225</ele>
        <time>2010-01-01T04:35:18Z</time>
      </trkpt>
      <trkpt lat="42.92068" lon="0.12991">
        <ele>2229</ele>
        <time>2010-01-01T04:35:35Z</time>
      </trkpt>
      <trkpt lat="42.92051" lon="0.12952">
        <ele>2234</ele>
        <time>2010-01-01T04:35:48Z</time>
      </trkpt>
      <trkpt lat="42.91978" lon="0.12873">
        <ele>2241</ele>
        <time>2010-01-01T04:36:25Z</time>
      </trkpt>
      <trkpt lat="42.9192" lon="0.12843">
        <ele>2252</ele>
        <time>2010-01-01T04:36:50Z</time>
      </trkpt>
      <trkpt lat="42.91879" lon="0.1282">
        <ele>2264</ele>
        <time>2010-01-01T04:37:08Z</time>
      </trkpt>
      <trkpt lat="42.91847" lon="0.12773">
        <ele>2273</ele>
        <time>2010-01-01T04:37:27Z</time>
      </trkpt>
      <trkpt lat="42.91886" lon="0.12762">
        <ele>2276</ele>
        <time>2010-01-01T04:37:43Z</time>
      </trkpt>
      <trkpt lat="42.91843" lon="0.1272">
        <ele>2290</ele>
        <time>2010-01-01T04:38:04Z</time>
      </trkpt>
      <trkpt lat="42.91871" lon="0.1271">
        <ele>2293</ele>
        <time>2010-01-01T04:38:16Z</time>
      </trkpt>
      <trkpt lat="42.91863" lon="0.12689">
        <ele>2294</ele>
        <time>2010-01-01T04:38:23Z</time>
      </trkpt>
      <trkpt lat="42.91957" lon="0.12622">
        <ele>2306</ele>
        <time>2010-01-01T04:39:06Z</time>
      </trkpt>
      <trkpt lat="42.92025" lon="0.12531">
        <ele>2322</ele>
        <time>2010-01-01T04:39:44Z</time>
      </trkpt>
      <trkpt lat="42.92048" lon="0.12469">
        <ele>2312</ele>
        <time>2010-01-01T04:40:04Z</time>
      </trkpt>
      <trkpt lat="42.92061" lon="0.12373">
        <ele>2298</ele>
        <time>2010-01-01T04:40:33Z</time>
      </trkpt>
      <trkpt lat="42.9223" lon="0.12334">
        <ele>2308</ele>
        <time>2010-01-01T04:41:41Z</time>
      </trkpt>
      <trkpt lat="42.92207" lon="0.12318">
        <ele>2278</ele>
        <time>2010-01-01T04:41:52Z</time>
      </trkpt>
      <trkpt lat="42.92268" lon="0.12309">
        <ele>2273</ele>
        <time>2010-01-01T04:42:16Z</time>
      </trkpt>
      <trkpt lat="42.92258" lon="0.12298">
        <ele>2269</ele>
        <time>2010-01-01T04:42:22Z</time>
      </trkpt>
      <trkpt lat="42.92299" lon="0.12297">
        <ele>2266</ele>
        <time>2010-01-01T04:42:38Z</time>
      </trkpt>
      <trkpt lat="42.92291" lon="0.12287">
        <ele>2263</ele>
        <time>2010-01-01T04:42:42Z</time>
      </trkpt>
      <trkpt lat="42.92305" lon="0.12283">
        <ele>2261</ele>
        <time>2010-01-01T04:42:48Z</time>
      </trkpt>
      <trkpt lat="42.92295" lon="0.12271">
        <ele>2258</ele>
        <time>2010-01-01T04:42:54Z</time>
      </trkpt>
      <trkpt lat="42.92312" lon="0.12268">
        <ele>2255</ele>
        <time>2010-01-01T04:43:00Z</time>
      </trkpt>
      <trkpt lat="42.92291" lon="0.12258">
        <ele>2255</ele>
        <time>2010-01-01T04:43:09Z</time>
      </trkpt>
      <trkpt lat="42.92314" lon="0.12252">
        <ele>2250</ele>
        <time>2010-01-01T04:43:18Z</time>
      </trkpt>
      <trkpt lat="42.92282" lon="0.12219">
        <ele>2217</ele>
        <time>2010-01-01T04:43:34Z</time>
      </trkpt>
      <trkpt lat="42.92322" lon="0.1221">
        <ele>2214</ele>
        <time>2010-01-01T04:43:50Z</time>
      </trkpt>
      <trkpt lat="42.92391" lon="0.12234">
        <ele>2219</ele>
        <time>2010-01-01T04:44:19Z</time>
      </trkpt>
      <trkpt lat="42.92463" lon="0.12187">
        <ele>2221</ele>
        <time>2010-01-01T04:44:50Z</time>
      </trkpt>
      <trkpt lat="42.92522" lon="0.12114">
        <ele>2224</ele>
        <time>2010-01-01T04:45:22Z</time>
      </trkpt>
      <trkpt lat="42.92543" lon="0.12042">
        <ele>2218</ele>
        <time>2010-01-01T04:45:45Z</time>
      </trkpt>
      <trkpt lat="42.92584" lon="0.11962">
        <ele>2228</ele>
        <time>2010-01-01T04:46:14Z</time>
      </trkpt>
      <trkpt lat="42.92604" lon="0.11886">
        <ele>2222</ele>
        <time>2010-01-01T04:46:37Z</time>
      </trkpt>
      <trkpt lat="42.9263" lon="0.1186">
        <ele>2222</ele>
        <time>2010-01-01T04:46:50Z</time>
      </trkpt>
      <trkpt lat="42.92684" lon="0.11873">
        <ele>2225</ele>
        <time>2010-01-01T04:47:12Z</time>
      </trkpt>
      <trkpt lat="42.92732" lon="0.11828">
        <ele>2218</ele>
        <time>2010-01-01T04:47:35Z</time>
      </trkpt>
      <trkpt lat="42.92777" lon="0.11762">
        <ele>2221</ele>
        <time>2010-01-01T04:48:02Z</time>
      </trkpt>
      <trkpt lat="42.92859" lon="0.11738">
        <ele>2226</ele>
        <time>2010-01-01T04:48:35Z</time>
      </trkpt>
      <trkpt lat="42.92886" lon="0.11651">
        <ele>2227</ele>
        <time>2010-01-01T04:49:03Z</time>
      </trkpt>
      <trkpt lat="42.92907" lon="0.11625">
        <ele>2228</ele>
        <time>2010-01-01T04:49:15Z</time>
      </trkpt>
      <trkpt lat="42.92938" lon="0.11603">
        <ele>2241</ele>
        <time>2010-01-01T04:49:28Z</time>
      </trkpt>
      <trkpt lat="42.92954" lon="0.11599">
        <ele>2244</ele>
        <time>2010-01-01T04:49:35Z</time>
      </trkpt>
      <trkpt lat="42.92965" lon="0.11593">
        <ele>2247</ele>
        <time>2010-01-01T04:49:40Z</time>
      </trkpt>
      <trkpt lat="42.92984" lon="0.11582">
        <ele>2257</ele>
        <time>2010-01-01T04:49:48Z</time>
      </trkpt>
      <trkpt lat="42.93008" lon="0.11552">
        <ele>2267</ele>
        <time>2010-01-01T04:50:01Z</time>
      </trkpt>
      <trkpt lat="42.93001" lon="0.11529">
        <ele>2269</ele>
        <time>2010-01-01T04:50:09Z</time>
      </trkpt>
      <trkpt lat="42.93001" lon="0.11479">
        <ele>2283</ele>
        <time>2010-01-01T04:50:23Z</time>
      </trkpt>
      <trkpt lat="42.9301" lon="0.11429">
        <ele>2294</ele>
        <time>2010-01-01T04:50:38Z</time>
      </trkpt>
      <trkpt lat="42.93039" lon="0.11474">
        <ele>2287</ele>
        <time>2010-01-01T04:50:56Z</time>
      </trkpt>
      <trkpt lat="42.93051" lon="0.11427">
        <ele>2297</ele>
        <time>2010-01-01T04:51:10Z</time>
      </trkpt>
      <trkpt lat="42.93075" lon="0.11465">
        <ele>2290</ele>
        <time>2010-01-01T04:51:25Z</time>
      </trkpt>
      <trkpt lat="42.93098" lon="0.11383">
        <ele>2377</ele>
        <time>2010-01-01T04:51:51Z</time>
      </trkpt>
      <trkpt lat="42.93094" lon="0.11355">
        <ele>2375</ele>
        <time>2010-01-01T04:51:59Z</time>
      </trkpt>
      <trkpt lat="42.93108" lon="0.11313">
        <ele>2384</ele>
        <time>2010-01-01T04:52:13Z</time>
      </trkpt>
      <trkpt lat="42.93067" lon="0.11264">
        <ele>2368</ele>
        <time>2010-01-01T04:52:35Z</time>
      </trkpt>
      <trkpt lat="42.93089" lon="0.11204">
        <ele>2376</ele>
        <time>2010-01-01T04:52:55Z</time>
      </trkpt>
      <trkpt lat="42.93115" lon="0.11146">
        <ele>2362</ele>
        <time>2010-01-01T04:53:14Z</time>
      </trkpt>
      <trkpt lat="42.93147" lon="0.11019">
        <ele>2350</ele>
        <time>2010-01-01T04:53:54Z</time>
      </trkpt>
      <trkpt lat="42.93139" lon="0.10894">
        <ele>2323</ele>
        <time>2010-01-01T04:54:30Z</time>
      </trkpt>
      <trkpt lat="42.93127" lon="0.10835">
        <ele>2316</ele>
        <time>2010-01-01T04:54:48Z</time>
      </trkpt>
      <trkpt lat="42.93138" lon="0.10779">
        <ele>2306</ele>
        <time>2010-01-01T04:55:05Z</time>
      </trkpt>
      <trkpt lat="42.93122" lon="0.10713">
        <ele>2286</ele>
        <time>2010-01-01T04:55:26Z</time>
      </trkpt>
      <trkpt lat="42.93124" lon="0.10644">
        <ele>2269</ele>
        <time>2010-01-01T04:55:46Z</time>
      </trkpt>
      <trkpt lat="42.93113" lon="0.10517">
        <ele>2252</ele>
        <time>2010-01-01T04:56:23Z</time>
      </trkpt>
      <trkpt lat="42.93075" lon="0.10459">
        <ele>2236</ele>
        <time>2010-01-01T04:56:46Z</time>
      </trkpt>
      <trkpt lat="42.93052" lon="0.10299">
        <ele>2218</ele>
        <time>2010-01-01T04:57:34Z</time>
      </trkpt>
      <trkpt lat="42.93067" lon="0.1019">
        <ele>2201</ele>
        <time>2010-01-01T04:58:06Z</time>
      </trkpt>
      <trkpt lat="42.93147" lon="0.10053">
        <ele>2185</ele>
        <time>2010-01-01T04:58:58Z</time>
      </trkpt>
      <trkpt lat="42.93163" lon="0.09917">
        <ele>2165</ele>
        <time>2010-01-01T04:59:38Z</time>
      </trkpt>
      <trkpt lat="42.93191" lon="0.0977">
        <ele>2158</ele>
        <time>2010-01-01T05:00:23Z</time>
      </trkpt>
      <trkpt lat="42.93247" lon="0.09683">
        <ele>2149</ele>
        <time>2010-01-01T05:00:57Z</time>
      </trkpt>
      <trkpt lat="42.93296" lon="0.09566">
        <ele>2137</ele>
        <time>2010-01-01T05:01:36Z</time>
      </trkpt>
      <trkpt lat="42.93342" lon="0.09518">
        <ele>2136</ele>
        <time>2010-01-01T05:01:59Z</time>
      </trkpt>
      <trkpt lat="42.9342" lon="0.09484">
        <ele>2133</ele>
        <time>2010-01-01T05:02:32Z</time>
      </trkpt>
      <trkpt lat="42.93458" lon="0.09458">
        <ele>2132</ele>
        <time>2010-01-01T05:02:49Z</time>
      </trkpt>
      <trkpt lat="42.9348" lon="0.09393">
        <ele>2124</ele>
        <time>2010-01-01T05:03:10Z</time>
      </trkpt>
      <trkpt lat="42.93485" lon="0.09305">
        <ele>2113</ele>
        <time>2010-01-01T05:03:36Z</time>
      </trkpt>
      <trkpt lat="42.93487" lon="0.09245">
        <ele>2104</ele>
        <time>2010-01-01T05:03:54Z</time>
      </trkpt>
      <trkpt lat="42.93509" lon="0.09171">
        <ele>2103</ele>
        <time>2010-01-01T05:04:17Z</time>
      </trkpt>
      <trkpt lat="42.93488" lon="0.09164">
        <ele>2098</ele>
        <time>2010-01-01T05:04:25Z</time>
      </trkpt>
      <trkpt lat="42.93485" lon="0.09115">
        <ele>2094</ele>
        <time>2010-01-01T05:04:40Z</time>
      </trkpt>
      <trkpt lat="42.93471" lon="0.09107">
        <ele>2093</ele>
        <time>2010-01-01T05:04:46Z</time>
      </trkpt>
      <trkpt lat="42.93491" lon="0.09066">
        <ele>2089</ele>
        <time>2010-01-01T05:05:01Z</time>
      </trkpt>
      <trkpt lat="42.9349" lon="0.09006">
        <ele>2085</ele>
        <time>2010-01-01T05:05:18Z</time>
      </trkpt>
      <trkpt lat="42.93466" lon="0.09001">
        <ele>2083</ele>
        <time>2010-01-01T05:05:28Z</time>
      </trkpt>
      <trkpt lat="42.93464" lon="0.08952">
        <ele>2077</ele>
        <time>2010-01-01T05:05:42Z</time>
      </trkpt>
      <trkpt lat="42.93413" lon="0.08911">
        <ele>2062</ele>
        <time>2010-01-01T05:06:06Z</time>
      </trkpt>
      <trkpt lat="42.93414" lon="0.08841">
        <ele>2063</ele>
        <time>2010-01-01T05:06:26Z</time>
      </trkpt>
      <trkpt lat="42.93424" lon="0.08756">
        <ele>2071</ele>
        <time>2010-01-01T05:06:52Z</time>
      </trkpt>
      <trkpt lat="42.93429" lon="0.08702">
        <ele>2068</ele>
        <time>2010-01-01T05:07:07Z</time>
      </trkpt>
      <trkpt lat="42.93433" lon="0.08618">
        <ele>2049</ele>
        <time>2010-01-01T05:07:32Z</time>
      </trkpt>
      <trkpt lat="42.93416" lon="0.0861">
        <ele>2038</ele>
        <time>2010-01-01T05:07:39Z</time>
      </trkpt>
      <trkpt lat="42.93378" lon="0.08645">
        <ele>2037</ele>
        <time>2010-01-01T05:07:58Z</time>
      </trkpt>
      <trkpt lat="42.93326" lon="0.08563">
        <ele>2025</ele>
        <time>2010-01-01T05:08:29Z</time>
      </trkpt>
      <trkpt lat="42.9328" lon="0.08389">
        <ele>2002</ele>
        <time>2010-01-01T05:09:24Z</time>
      </trkpt>
      <trkpt lat="42.93255" lon="0.08292">
        <ele>1986</ele>
        <time>2010-01-01T05:09:54Z</time>
      </trkpt>
      <trkpt lat="42.93186" lon="0.08238">
        <ele>1979</ele>
        <time>2010-01-01T05:10:26Z</time>
      </trkpt>
      <trkpt lat="42.93127" lon="0.08143">
        <ele>1967</ele>
        <time>2010-01-01T05:11:03Z</time>
      </trkpt>
      <trkpt lat="42.93067" lon="0.08127">
        <ele>1977</ele>
        <time>2010-01-01T05:11:27Z</time>
      </trkpt>
      <trkpt lat="42.93001" lon="0.07973">
        <ele>1967</ele>
        <time>2010-01-01T05:12:19Z</time>
      </trkpt>
      <trkpt lat="42.92995" lon="0.07862">
        <ele>1994</ele>
        <time>2010-01-01T05:12:52Z</time>
      </trkpt>
      <trkpt lat="42.93033" lon="0.07713">
        <ele>1996</ele>
        <time>2010-01-01T05:13:38Z</time>
      </trkpt>
      <trkpt lat="42.9312" lon="0.07675">
        <ele>1975</ele>
        <time>2010-01-01T05:14:15Z</time>
      </trkpt>
      <trkpt lat="42.93213" lon="0.07645">
        <ele>1985</ele>
        <time>2010-01-01T05:14:53Z</time>
      </trkpt>
      <trkpt lat="42.9334" lon="0.07676">
        <ele>1974</ele>
        <time>2010-01-01T05:15:45Z</time>
      </trkpt>
      <trkpt lat="42.93437" lon="0.07624">
        <ele>1984</ele>
        <time>2010-01-01T05:16:26Z</time>
      </trkpt>
      <trkpt lat="42.9356" lon="0.07626">
        <ele>1978</ele>
        <time>2010-01-01T05:17:16Z</time>
      </trkpt>
      <trkpt lat="42.93689" lon="0.07566">
        <ele>1995</ele>
        <time>2010-01-01T05:18:10Z</time>
      </trkpt>
      <trkpt lat="42.93766" lon="0.07541">
        <ele>1990</ele>
        <time>2010-01-01T05:18:42Z</time>
      </trkpt>
      <trkpt lat="42.93833" lon="0.07556">
        <ele>1988</ele>
        <time>2010-01-01T05:19:09Z</time>
      </trkpt>
      <trkpt lat="42.93922" lon="0.07562">
        <ele>2017</ele>
        <time>2010-01-01T05:19:45Z</time>
      </trkpt>
      <trkpt lat="42.94008" lon="0.07645">
        <ele>2010</ele>
        <time>2010-01-01T05:20:27Z</time>
      </trkpt>
      <trkpt lat="42.94093" lon="0.07668">
        <ele>2025</ele>
        <time>2010-01-01T05:21:01Z</time>
      </trkpt>
      <trkpt lat="42.94114" lon="0.0762">
        <ele>2043</ele>
        <time>2010-01-01T05:21:18Z</time>
      </trkpt>
      <trkpt lat="42.94131" lon="0.07548">
        <ele>2056</ele>
        <time>2010-01-01T05:21:40Z</time>
      </trkpt>
      <trkpt lat="42.94192" lon="0.07501">
        <ele>2081</ele>
        <time>2010-01-01T05:22:08Z</time>
      </trkpt>
      <trkpt lat="42.94265" lon="0.07381">
        <ele>2127</ele>
        <time>2010-01-01T05:22:54Z</time>
      </trkpt>
      <trkpt lat="42.94296" lon="0.07301">
        <ele>2143</ele>
        <time>2010-01-01T05:23:20Z</time>
      </trkpt>
      <trkpt lat="42.94335" lon="0.07284">
        <ele>2165</ele>
        <time>2010-01-01T05:23:37Z</time>
      </trkpt>
      <trkpt lat="42.94381" lon="0.07132">
        <ele>2199</ele>
        <time>2010-01-01T05:24:25Z</time>
      </trkpt>
      <trkpt lat="42.94437" lon="0.07045">
        <ele>2228</ele>
        <time>2010-01-01T05:24:59Z</time>
      </trkpt>
      <trkpt lat="42.94425" lon="0.0698">
        <ele>2236</ele>
        <time>2010-01-01T05:25:18Z</time>
      </trkpt>
      <trkpt lat="42.9446" lon="0.06936">
        <ele>2240</ele>
        <time>2010-01-01T05:25:37Z</time>
      </trkpt>
      <trkpt lat="42.9448" lon="0.06905">
        <ele>2233</ele>
        <time>2010-01-01T05:25:50Z</time>
      </trkpt>
      <trkpt lat="42.94485" lon="0.06855">
        <ele>2224</ele>
        <time>2010-01-01T05:26:04Z</time>
      </trkpt>
      <trkpt lat="42.94463" lon="0.06831">
        <ele>2202</ele>
        <time>2010-01-01T05:26:16Z</time>
      </trkpt>
      <trkpt lat="42.94492" lon="0.0682">
        <ele>2207</ele>
        <time>2010-01-01T05:26:28Z</time>
      </trkpt>
      <trkpt lat="42.94451" lon="0.06785">
        <ele>2192</ele>
        <time>2010-01-01T05:26:47Z</time>
      </trkpt>
      <trkpt lat="42.94487" lon="0.06759">
        <ele>2189</ele>
        <time>2010-01-01T05:27:03Z</time>
      </trkpt>
      <trkpt lat="42.94471" lon="0.06725">
        <ele>2161</ele>
        <time>2010-01-01T05:27:15Z</time>
      </trkpt>
      <trkpt lat="42.94481" lon="0.06701">
        <ele>2156</ele>
        <time>2010-01-01T05:27:23Z</time>
      </trkpt>
      <trkpt lat="42.94467" lon="0.06696">
        <ele>2154</ele>
        <time>2010-01-01T05:27:29Z</time>
      </trkpt>
      <trkpt lat="42.94478" lon="0.06665">
        <ele>2132</ele>
        <time>2010-01-01T05:27:39Z</time>
      </trkpt>
      <trkpt lat="42.94452" lon="0.06659">
        <ele>2125</ele>
        <time>2010-01-01T05:27:49Z</time>
      </trkpt>
      <trkpt lat="42.94473" lon="0.06605">
        <ele>2119</ele>
        <time>2010-01-01T05:28:07Z</time>
      </trkpt>
      <trkpt lat="42.94439" lon="0.06584">
        <ele>2111</ele>
        <time>2010-01-01T05:28:22Z</time>
      </trkpt>
      <trkpt lat="42.94444" lon="0.06536">
        <ele>2098</ele>
        <time>2010-01-01T05:28:37Z</time>
      </trkpt>
      <trkpt lat="42.94416" lon="0.06534">
        <ele>2086</ele>
        <time>2010-01-01T05:28:48Z</time>
      </trkpt>
      <trkpt lat="42.94415" lon="0.06509">
        <ele>2086</ele>
        <time>2010-01-01T05:28:55Z</time>
      </trkpt>
      <trkpt lat="42.94389" lon="0.06498">
        <ele>2076</ele>
        <time>2010-01-01T05:29:06Z</time>
      </trkpt>
      <trkpt lat="42.94394" lon="0.06448">
        <ele>2072</ele>
        <time>2010-01-01T05:29:21Z</time>
      </trkpt>
      <trkpt lat="42.94409" lon="0.06329">
        <ele>2016</ele>
        <time>2010-01-01T05:29:56Z</time>
      </trkpt>
      <trkpt lat="42.94422" lon="0.06211">
        <ele>1977</ele>
        <time>2010-01-01T05:30:31Z</time>
      </trkpt>
      <trkpt lat="42.94394" lon="0.0619">
        <ele>1950</ele>
        <time>2010-01-01T05:30:44Z</time>
      </trkpt>
      <trkpt lat="42.94422" lon="0.06141">
        <ele>1958</ele>
        <time>2010-01-01T05:31:02Z</time>
      </trkpt>
      <trkpt lat="42.94382" lon="0.06098">
        <ele>1924</ele>
        <time>2010-01-01T05:31:23Z</time>
      </trkpt>
      <trkpt lat="42.94403" lon="0.06079">
        <ele>1921</ele>
        <time>2010-01-01T05:31:33Z</time>
      </trkpt>
      <trkpt lat="42.94374" lon="0.06059">
        <ele>1904</ele>
        <time>2010-01-01T05:31:46Z</time>
      </trkpt>
      <trkpt lat="42.94376" lon="0.06022">
        <ele>1900</ele>
        <time>2010-01-01T05:31:56Z</time>
      </trkpt>
      <trkpt lat="42.94342" lon="0.05981">
        <ele>1877</ele>
        <time>2010-01-01T05:32:15Z</time>
      </trkpt>
      <trkpt lat="42.94253" lon="0.05942">
        <ele>1855</ele>
        <time>2010-01-01T05:32:52Z</time>
      </trkpt>
      <trkpt lat="42.94263" lon="0.0587">
        <ele>1826</ele>
        <time>2010-01-01T05:33:13Z</time>
      </trkpt>
      <trkpt lat="42.94279" lon="0.05824">
        <ele>1797</ele>
        <time>2010-01-01T05:33:28Z</time>
      </trkpt>
      <trkpt lat="42.94299" lon="0.0574">
        <ele>1786</ele>
        <time>2010-01-01T05:33:54Z</time>
      </trkpt>
      <trkpt lat="42.94332" lon="0.05688">
        <ele>1782</ele>
        <time>2010-01-01T05:34:14Z</time>
      </trkpt>
      <trkpt lat="42.94382" lon="0.0564">
        <ele>1773</ele>
        <time>2010-01-01T05:34:39Z</time>
      </trkpt>
      <trkpt lat="42.94397" lon="0.05598">
        <ele>1770</ele>
        <time>2010-01-01T05:34:52Z</time>
      </trkpt>
      <trkpt lat="42.94404" lon="0.05559">
        <ele>1773</ele>
        <time>2010-01-01T05:35:04Z</time>
      </trkpt>
      <trkpt lat="42.94456" lon="0.05526">
        <ele>1762</ele>
        <time>2010-01-01T05:35:27Z</time>
      </trkpt>
      <trkpt lat="42.94501" lon="0.05473">
        <ele>1756</ele>
        <time>2010-01-01T05:35:51Z</time>
      </trkpt>
      <trkpt lat="42.94544" lon="0.05442">
        <ele>1756</ele>
        <time>2010-01-01T05:36:10Z</time>
      </trkpt>
      <trkpt lat="42.94561" lon="0.05322">
        <ele>1769</ele>
        <time>2010-01-01T05:36:46Z</time>
      </trkpt>
      <trkpt lat="42.94609" lon="0.05294">
        <ele>1760</ele>
        <time>2010-01-01T05:37:07Z</time>
      </trkpt>
      <trkpt lat="42.94672" lon="0.0519">
        <ele>1756</ele>
        <time>2010-01-01T05:37:46Z</time>
      </trkpt>
      <trkpt lat="42.94731" lon="0.05131">
        <ele>1754</ele>
        <time>2010-01-01T05:38:16Z</time>
      </trkpt>
      <trkpt lat="42.94782" lon="0.05031">
        <ele>1746</ele>
        <time>2010-01-01T05:38:52Z</time>
      </trkpt>
      <trkpt lat="42.94794" lon="0.04927">
        <ele>1744</ele>
        <time>2010-01-01T05:39:22Z</time>
      </trkpt>
      <trkpt lat="42.94802" lon="0.0483">
        <ele>1731</ele>
        <time>2010-01-01T05:39:51Z</time>
      </trkpt>
      <trkpt lat="42.94854" lon="0.04734">
        <ele>1712</ele>
        <time>2010-01-01T05:40:26Z</time>
      </trkpt>
      <trkpt lat="42.94904" lon="0.04623">
        <ele>1695</ele>
        <time>2010-01-01T05:41:04Z</time>
      </trkpt>
      <trkpt lat="42.94954" lon="0.04503">
        <ele>1677</ele>
        <time>2010-01-01T05:41:45Z</time>
      </trkpt>
      <trkpt lat="42.94967" lon="0.04362">
        <ele>1684</ele>
        <time>2010-01-01T05:42:26Z</time>
      </trkpt>
      <trkpt lat="42.95011" lon="0.04321">
        <ele>1678</ele>
        <time>2010-01-01T05:42:48Z</time>
      </trkpt>
      <trkpt lat="42.95061" lon="0.04248">
        <ele>1690</ele>
        <time>2010-01-01T05:43:17Z</time>
      </trkpt>
      <trkpt lat="42.95114" lon="0.04191">
        <ele>1690</ele>
        <time>2010-01-01T05:43:44Z</time>
      </trkpt>
      <trkpt lat="42.95169" lon="0.04163">
        <ele>1692</ele>
        <time>2010-01-01T05:44:07Z</time>
      </trkpt>
      <trkpt lat="42.95246" lon="0.04121">
        <ele>1708</ele>
        <time>2010-01-01T05:44:41Z</time>
      </trkpt>
      <trkpt lat="42.95284" lon="0.04083">
        <ele>1723</ele>
        <time>2010-01-01T05:45:00Z</time>
      </trkpt>
      <trkpt lat="42.9532" lon="0.04027">
        <ele>1727</ele>
        <time>2010-01-01T05:45:21Z</time>
      </trkpt>
      <trkpt lat="42.95331" lon="0.03973">
        <ele>1734</ele>
        <time>2010-01-01T05:45:38Z</time>
      </trkpt>
      <trkpt lat="42.95314" lon="0.03941">
        <ele>1735</ele>
        <time>2010-01-01T05:45:49Z</time>
      </trkpt>
      <trkpt lat="42.95341" lon="0.03895">
        <ele>1737</ele>
        <time>2010-01-01T05:46:07Z</time>
      </trkpt>
      <trkpt lat="42.95414" lon="0.03825">
        <ele>1747</ele>
        <time>2010-01-01T05:46:42Z</time>
      </trkpt>
      <trkpt lat="42.95489" lon="0.03782">
        <ele>1768</ele>
        <time>2010-01-01T05:47:15Z</time>
      </trkpt>
      <trkpt lat="42.95565" lon="0.03776">
        <ele>1774</ele>
        <time>2010-01-01T05:47:45Z</time>
      </trkpt>
      <trkpt lat="42.95601" lon="0.03771">
        <ele>1774</ele>
        <time>2010-01-01T05:48:00Z</time>
      </trkpt>
      <trkpt lat="42.95639" lon="0.03776">
        <ele>1769</ele>
        <time>2010-01-01T05:48:15Z</time>
      </trkpt>
      <trkpt lat="42.95607" lon="0.03731">
        <ele>1799</ele>
        <time>2010-01-01T05:48:34Z</time>
      </trkpt>
      <trkpt lat="42.95595" lon="0.03707">
        <ele>1805</ele>
        <time>2010-01-01T05:48:42Z</time>
      </trkpt>
      <trkpt lat="42.95565" lon="0.03659">
        <ele>1823</ele>
        <time>2010-01-01T05:49:01Z</time>
      </trkpt>
      <trkpt lat="42.95493" lon="0.03592">
        <ele>1843</ele>
        <time>2010-01-01T05:49:35Z</time>
      </trkpt>
      <trkpt lat="42.95508" lon="0.03575">
        <ele>1854</ele>
        <time>2010-01-01T05:49:43Z</time>
      </trkpt>
      <trkpt lat="42.95457" lon="0.03548">
        <ele>1862</ele>
        <time>2010-01-01T05:50:05Z</time>
      </trkpt>
      <trkpt lat="42.95414" lon="0.03575">
        <ele>1862</ele>
        <time>2010-01-01T05:50:24Z</time>
      </trkpt>
      <trkpt lat="42.9542" lon="0.03503">
        <ele>1874</ele>
        <time>2010-01-01T05:50:45Z</time>
      </trkpt>
      <trkpt lat="42.95384" lon="0.03473">
        <ele>1871</ele>
        <time>2010-01-01T05:51:02Z</time>
      </trkpt>
      <trkpt lat="42.95351" lon="0.03393">
        <ele>1854</ele>
        <time>2010-01-01T05:51:29Z</time>
      </trkpt>
      <trkpt lat="42.95388" lon="0.0329">
        <ele>1839</ele>
        <time>2010-01-01T05:52:03Z</time>
      </trkpt>
      <trkpt lat="42.95415" lon="0.03268">
        <ele>1839</ele>
        <time>2010-01-01T05:52:16Z</time>
      </trkpt>
      <trkpt lat="42.95443" lon="0.03215">
        <ele>1835</ele>
        <time>2010-01-01T05:52:34Z</time>
      </trkpt>
      <trkpt lat="42.95475" lon="0.03146">
        <ele>1824</ele>
        <time>2010-01-01T05:52:59Z</time>
      </trkpt>
      <trkpt lat="42.95531" lon="0.0311">
        <ele>1828</ele>
        <time>2010-01-01T05:53:23Z</time>
      </trkpt>
      <trkpt lat="42.9557" lon="0.03078">
        <ele>1810</ele>
        <time>2010-01-01T05:53:42Z</time>
      </trkpt>
      <trkpt lat="42.95631" lon="0.03082">
        <ele>1806</ele>
        <time>2010-01-01T05:54:06Z</time>
      </trkpt>
      <trkpt lat="42.95651" lon="0.03066">
        <ele>1806</ele>
        <time>2010-01-01T05:54:15Z</time>
      </trkpt>
      <trkpt lat="42.9572" lon="0.03054">
        <ele>1805</ele>
        <time>2010-01-01T05:54:43Z</time>
      </trkpt>
      <trkpt lat="42.95738" lon="0.03011">
        <ele>1801</ele>
        <time>2010-01-01T05:54:58Z</time>
      </trkpt>
      <trkpt lat="42.95752" lon="0.02958">
        <ele>1801</ele>
        <time>2010-01-01T05:55:14Z</time>
      </trkpt>
      <trkpt lat="42.95852" lon="0.02905">
        <ele>1807</ele>
        <time>2010-01-01T05:55:57Z</time>
      </trkpt>
      <trkpt lat="42.95903" lon="0.02783">
        <ele>1795</ele>
        <time>2010-01-01T05:56:38Z</time>
      </trkpt>
      <trkpt lat="42.95928" lon="0.02694">
        <ele>1793</ele>
        <time>2010-01-01T05:57:06Z</time>
      </trkpt>
      <trkpt lat="42.95954" lon="0.02612">
        <ele>1777</ele>
        <time>2010-01-01T05:57:32Z</time>
      </trkpt>
      <trkpt lat="42.95996" lon="0.02562">
        <ele>1768</ele>
        <time>2010-01-01T05:57:54Z</time>
      </trkpt>
      <trkpt lat="42.96051" lon="0.02512">
        <ele>1782</ele>
        <time>2010-01-01T05:58:21Z</time>
      </trkpt>
      <trkpt lat="42.96125" lon="0.02457">
        <ele>1776</ele>
        <time>2010-01-01T05:58:55Z</time>
      </trkpt>
      <trkpt lat="42.96154" lon="0.02387">
        <ele>1759</ele>
        <time>2010-01-01T05:59:18Z</time>
      </trkpt>
      <trkpt lat="42.96198" lon="0.02308">
        <ele>1760</ele>
        <time>2010-01-01T05:59:47Z</time>
      </trkpt>
      <trkpt lat="42.96231" lon="0.02244">
        <ele>1742</ele>
        <time>2010-01-01T06:00:10Z</time>
      </trkpt>
      <trkpt lat="42.96281" lon="0.02151">
        <ele>1728</ele>
        <time>2010-01-01T06:00:44Z</time>
      </trkpt>
      <trkpt lat="42.96316" lon="0.02143">
        <ele>1735</ele>
        <time>2010-01-01T06:00:58Z</time>
      </trkpt>
      <trkpt lat="42.96393" lon="0.02096">
        <ele>1734</ele>
        <time>2010-01-01T06:01:32Z</time>
      </trkpt>
      <trkpt lat="42.9642" lon="0.02054">
        <ele>1723</ele>
        <time>2010-01-01T06:01:49Z</time>
      </trkpt>
      <trkpt lat="42.96453" lon="0.01949">
        <ele>1716</ele>
        <time>2010-01-01T06:02:22Z</time>
      </trkpt>
      <trkpt lat="42.96465" lon="0.01873">
        <ele>1713</ele>
        <time>2010-01-01T06:02:45Z</time>
      </trkpt>
      <trkpt lat="42.96477" lon="0.01757">
        <ele>1707</ele>
        <time>2010-01-01T06:03:19Z</time>
      </trkpt>
      <trkpt lat="42.96541" lon="0.01707">
        <ele>1715</ele>
        <time>2010-01-01T06:03:48Z</time>
      </trkpt>
      <trkpt lat="42.96574" lon="0.01572">
        <ele>1690</ele>
        <time>2010-01-01T06:04:30Z</time>
      </trkpt>
      <trkpt lat="42.96623" lon="0.01465">
        <ele>1694</ele>
        <time>2010-01-01T06:05:07Z</time>
      </trkpt>
      <trkpt lat="42.96626" lon="0.01402">
        <ele>1682</ele>
        <time>2010-01-01T06:05:25Z</time>
      </trkpt>
      <trkpt lat="42.96614" lon="0.01367">
        <ele>1679</ele>
        <time>2010-01-01T06:05:37Z</time>
      </trkpt>
      <trkpt lat="42.96654" lon="0.01283">
        <ele>1676</ele>
        <time>2010-01-01T06:06:06Z</time>
      </trkpt>
      <trkpt lat="42.96675" lon="0.01196">
        <ele>1690</ele>
        <time>2010-01-01T06:06:33Z</time>
      </trkpt>
      <trkpt lat="42.96671" lon="0.01127">
        <ele>1687</ele>
        <time>2010-01-01T06:06:53Z</time>
      </trkpt>
      <trkpt lat="42.96666" lon="0.01089">
        <ele>1674</ele>
        <time>2010-01-01T06:07:04Z</time>
      </trkpt>
      <trkpt lat="42.96689" lon="0.0105">
        <ele>1683</ele>
        <time>2010-01-01T06:07:19Z</time>
      </trkpt>
      <trkpt lat="42.96695" lon="0.01009">
        <ele>1680</ele>
        <time>2010-01-01T06:07:31Z</time>
      </trkpt>
      <trkpt lat="42.9677" lon="0.00886">
        <ele>1677</ele>
        <time>2010-01-01T06:08:18Z</time>
      </trkpt>
      <trkpt lat="42.96855" lon="0.00813">
        <ele>1671</ele>
        <time>2010-01-01T06:08:58Z</time>
      </trkpt>
      <trkpt lat="42.96873" lon="0.00824">
        <ele>1668</ele>
        <time>2010-01-01T06:09:06Z</time>
      </trkpt>
      <trkpt lat="42.96918" lon="0.00721">
        <ele>1639</ele>
        <time>2010-01-01T06:09:41Z</time>
      </trkpt>
      <trkpt lat="42.96946" lon="0.00577">
        <ele>1644</ele>
        <time>2010-01-01T06:10:25Z</time>
      </trkpt>
      <trkpt lat="42.96993" lon="0.00497">
        <ele>1632</ele>
        <time>2010-01-01T06:10:55Z</time>
      </trkpt>
      <trkpt lat="42.9706" lon="0.00366">
        <ele>1619</ele>
        <time>2010-01-01T06:11:42Z</time>
      </trkpt>
      <trkpt lat="42.97091" lon="0.00251">
        <ele>1605</ele>
        <time>2010-01-01T06:12:18Z</time>
      </trkpt>
      <trkpt lat="42.97088" lon="0.0012">
        <ele>1602</ele>
        <time>2010-01-01T06:12:56Z</time>
      </trkpt>
      <trkpt lat="42.97097" lon="-0.00012">
        <ele>1601</ele>
        <time>2010-01-01T06:13:35Z</time>
      </trkpt>
      <trkpt lat="42.97098" lon="-0.00139">
        <ele>1605</ele>
        <time>2010-01-01T06:14:12Z</time>
      </trkpt>
      <trkpt lat="42.97101" lon="-0.00202">
        <ele>1614</ele>
        <time>2010-01-01T06:14:31Z</time>
      </trkpt>
      <trkpt lat="42.97111" lon="-0.00251">
        <ele>1620</ele>
        <time>2010-01-01T06:14:46Z</time>
      </trkpt>
      <trkpt lat="42.97116" lon="-0.00292">
        <ele>1620</ele>
        <time>2010-01-01T06:14:58Z</time>
      </trkpt>
      <trkpt lat="42.97122" lon="-0.00377">
        <ele>1613</ele>
        <time>2010-01-01T06:15:23Z</time>
      </trkpt>
      <trkpt lat="42.9713" lon="-0.00463">
        <ele>1595</ele>
        <time>2010-01-01T06:15:48Z</time>
      </trkpt>
      <trkpt lat="42.97132" lon="-0.00639">
        <ele>1555</ele>
        <time>2010-01-01T06:16:40Z</time>
      </trkpt>
      <trkpt lat="42.97088" lon="-0.00822">
        <ele>1531</ele>
        <time>2010-01-01T06:17:36Z</time>
      </trkpt>
      <trkpt lat="42.97132" lon="-0.00895">
        <ele>1522</ele>
        <time>2010-01-01T06:18:04Z</time>
      </trkpt>
      <trkpt lat="42.97164" lon="-0.00936">
        <ele>1512</ele>
        <time>2010-01-01T06:18:22Z</time>
      </trkpt>
      <trkpt lat="42.972" lon="-0.00918">
        <ele>1504</ele>
        <time>2010-01-01T06:18:37Z</time>
      </trkpt>
      <trkpt lat="42.97245" lon="-0.00822">
        <ele>1519</ele>
        <time>2010-01-01T06:19:10Z</time>
      </trkpt>
      <trkpt lat="42.97301" lon="-0.00925">
        <ele>1498</ele>
        <time>2010-01-01T06:19:48Z</time>
      </trkpt>
      <trkpt lat="42.97302" lon="-0.01017">
        <ele>1478</ele>
        <time>2010-01-01T06:20:15Z</time>
      </trkpt>
      <trkpt lat="42.97361" lon="-0.01118">
        <ele>1474</ele>
        <time>2010-01-01T06:20:53Z</time>
      </trkpt>
      <trkpt lat="42.97366" lon="-0.01323">
        <ele>1439</ele>
        <time>2010-01-01T06:21:53Z</time>
      </trkpt>
      <trkpt lat="42.97282" lon="-0.01523">
        <ele>1401</ele>
        <time>2010-01-01T06:23:01Z</time>
      </trkpt>
      <trkpt lat="42.97222" lon="-0.01668">
        <ele>1366</ele>
        <time>2010-01-01T06:23:49Z</time>
      </trkpt>
      <trkpt lat="42.97153" lon="-0.01828">
        <ele>1345</ele>
        <time>2010-01-01T06:24:44Z</time>
      </trkpt>
      <trkpt lat="42.97204" lon="-0.01987">
        <ele>1337</ele>
        <time>2010-01-01T06:25:34Z</time>
      </trkpt>
      <trkpt lat="42.97193" lon="-0.02066">
        <ele>1326</ele>
        <time>2010-01-01T06:25:58Z</time>
      </trkpt>
      <trkpt lat="42.97251" lon="-0.02186">
        <ele>1320</ele>
        <time>2010-01-01T06:26:40Z</time>
      </trkpt>
      <trkpt lat="42.97286" lon="-0.02357">
        <ele>1295</ele>
        <time>2010-01-01T06:27:32Z</time>
      </trkpt>
      <trkpt lat="42.97327" lon="-0.02579">
        <ele>1275</ele>
        <time>2010-01-01T06:28:39Z</time>
      </trkpt>
      <trkpt lat="42.97327" lon="-0.02773">
        <ele>1238</ele>
        <time>2010-01-01T06:29:36Z</time>
      </trkpt>
      <trkpt lat="42.97252" lon="-0.02651">
        <ele>1252</ele>
        <time>2010-01-01T06:30:23Z</time>
      </trkpt>
      <trkpt lat="42.97146" lon="-0.02481">
        <ele>1243</ele>
        <time>2010-01-01T06:31:28Z</time>
      </trkpt>
      <trkpt lat="42.97178" lon="-0.02568">
        <ele>1239</ele>
        <time>2010-01-01T06:31:56Z</time>
      </trkpt>
      <trkpt lat="42.97158" lon="-0.0263">
        <ele>1219</ele>
        <time>2010-01-01T06:32:16Z</time>
      </trkpt>
      <trkpt lat="42.97166" lon="-0.02726">
        <ele>1212</ele>
        <time>2010-01-01T06:32:44Z</time>
      </trkpt>
      <trkpt lat="42.9716" lon="-0.02807">
        <ele>1201</ele>
        <time>2010-01-01T06:33:08Z</time>
      </trkpt>
      <trkpt lat="42.97156" lon="-0.02753">
        <ele>1210</ele>
        <time>2010-01-01T06:33:24Z</time>
      </trkpt>
      <trkpt lat="42.97118" lon="-0.02653">
        <ele>1213</ele>
        <time>2010-01-01T06:33:57Z</time>
      </trkpt>
      <trkpt lat="42.97056" lon="-0.02659">
        <ele>1200</ele>
        <time>2010-01-01T06:34:22Z</time>
      </trkpt>
      <trkpt lat="42.97024" lon="-0.02613">
        <ele>1201</ele>
        <time>2010-01-01T06:34:41Z</time>
      </trkpt>
      <trkpt lat="42.9696" lon="-0.0264">
        <ele>1190</ele>
        <time>2010-01-01T06:35:07Z</time>
      </trkpt>
      <trkpt lat="42.96911" lon="-0.0256">
        <ele>1199</ele>
        <time>2010-01-01T06:35:38Z</time>
      </trkpt>
      <trkpt lat="42.96923" lon="-0.02645">
        <ele>1187</ele>
        <time>2010-01-01T06:36:04Z</time>
      </trkpt>
      <trkpt lat="42.96922" lon="-0.02755">
        <ele>1171</ele>
        <time>2010-01-01T06:36:36Z</time>
      </trkpt>
      <trkpt lat="42.96922" lon="-0.02877">
        <ele>1155</ele>
        <time>2010-01-01T06:37:11Z</time>
      </trkpt>
      <trkpt lat="42.96999" lon="-0.0291">
        <ele>1153</ele>
        <time>2010-01-01T06:37:44Z</time>
      </trkpt>
      <trkpt lat="42.97081" lon="-0.02936">
        <ele>1147</ele>
        <time>2010-01-01T06:38:17Z</time>
      </trkpt>
      <trkpt lat="42.97147" lon="-0.02938">
        <ele>1148</ele>
        <time>2010-01-01T06:38:44Z</time>
      </trkpt>
      <trkpt lat="42.97222" lon="-0.03079">
        <ele>1128</ele>
        <time>2010-01-01T06:39:35Z</time>
      </trkpt>
      <trkpt lat="42.97302" lon="-0.03103">
        <ele>1116</ele>
        <time>2010-01-01T06:40:08Z</time>
      </trkpt>
      <trkpt lat="42.97381" lon="-0.03141">
        <ele>1113</ele>
        <time>2010-01-01T06:40:41Z</time>
      </trkpt>
      <trkpt lat="42.97321" lon="-0.03151">
        <ele>1108</ele>
        <time>2010-01-01T06:41:06Z</time>
      </trkpt>
      <trkpt lat="42.97243" lon="-0.03157">
        <ele>1100</ele>
        <time>2010-01-01T06:41:37Z</time>
      </trkpt>
      <trkpt lat="42.97269" lon="-0.03185">
        <ele>1091</ele>
        <time>2010-01-01T06:41:50Z</time>
      </trkpt>
      <trkpt lat="42.97328" lon="-0.03219">
        <ele>1088</ele>
        <time>2010-01-01T06:42:16Z</time>
      </trkpt>
      <trkpt lat="42.9727" lon="-0.03229">
        <ele>1084</ele>
        <time>2010-01-01T06:42:39Z</time>
      </trkpt>
      <trkpt lat="42.97302" lon="-0.03273">
        <ele>1074</ele>
        <time>2010-01-01T06:42:58Z</time>
      </trkpt>
      <trkpt lat="42.97322" lon="-0.03317">
        <ele>1069</ele>
        <time>2010-01-01T06:43:13Z</time>
      </trkpt>
      <trkpt lat="42.97282" lon="-0.03315">
        <ele>1070</ele>
        <time>2010-01-01T06:43:29Z</time>
      </trkpt>
      <trkpt lat="42.97167" lon="-0.03407">
        <ele>1052</ele>
        <time>2010-01-01T06:44:22Z</time>
      </trkpt>
      <trkpt lat="42.97071" lon="-0.03339">
        <ele>1048</ele>
        <time>2010-01-01T06:45:06Z</time>
      </trkpt>
      <trkpt lat="42.96981" lon="-0.03367">
        <ele>1048</ele>
        <time>2010-01-01T06:45:43Z</time>
      </trkpt>
      <trkpt lat="42.96937" lon="-0.03378">
        <ele>1050</ele>
        <time>2010-01-01T06:46:01Z</time>
      </trkpt>
      <trkpt lat="42.9683" lon="-0.03505">
        <ele>1061</ele>
        <time>2010-01-01T06:46:57Z</time>
      </trkpt>
      <trkpt lat="42.96806" lon="-0.03709">
        <ele>1052</ele>
        <time>2010-01-01T06:47:58Z</time>
      </trkpt>
      <trkpt lat="42.9678" lon="-0.03902">
        <ele>1048</ele>
        <time>2010-01-01T06:48:55Z</time>
      </trkpt>
      <trkpt lat="42.96847" lon="-0.03984">
        <ele>1008</ele>
        <time>2010-01-01T06:49:31Z</time>
      </trkpt>
      <trkpt lat="42.96933" lon="-0.0395">
        <ele>979</ele>
        <time>2010-01-01T06:50:07Z</time>
      </trkpt>
      <trkpt lat="42.96885" lon="-0.041">
        <ele>961</ele>
        <time>2010-01-01T06:50:55Z</time>
      </trkpt>
      <trkpt lat="42.96873" lon="-0.04262">
        <ele>938</ele>
        <time>2010-01-01T06:51:43Z</time>
      </trkpt>
      <trkpt lat="42.96861" lon="-0.0437">
        <ele>926</ele>
        <time>2010-01-01T06:52:15Z</time>
      </trkpt>
      <trkpt lat="42.96876" lon="-0.04483">
        <ele>907</ele>
        <time>2010-01-01T06:52:48Z</time>
      </trkpt>
      <trkpt lat="42.96884" lon="-0.04609">
        <ele>891</ele>
        <time>2010-01-01T06:53:25Z</time>
      </trkpt>
      <trkpt lat="42.9685" lon="-0.04728">
        <ele>882</ele>
        <time>2010-01-01T06:54:03Z</time>
      </trkpt>
      <trkpt lat="42.96878" lon="-0.04691">
        <ele>879</ele>
        <time>2010-01-01T06:54:18Z</time>
      </trkpt>
      <trkpt lat="42.96861" lon="-0.04775">
        <ele>868</ele>
        <time>2010-01-01T06:54:44Z</time>
      </trkpt>
      <trkpt lat="42.96867" lon="-0.04822">
        <ele>864</ele>
        <time>2010-01-01T06:54:58Z</time>
      </trkpt>
      <trkpt lat="42.96845" lon="-0.04901">
        <ele>849</ele>
        <time>2010-01-01T06:55:22Z</time>
      </trkpt>
      <trkpt lat="42.96792" lon="-0.04965">
        <ele>849</ele>
        <time>2010-01-01T06:55:51Z</time>
      </trkpt>
      <trkpt lat="42.96707" lon="-0.05035">
        <ele>842</ele>
        <time>2010-01-01T06:56:30Z</time>
      </trkpt>
      <trkpt lat="42.96677" lon="-0.05099">
        <ele>822</ele>
        <time>2010-01-01T06:56:53Z</time>
      </trkpt>
      <trkpt lat="42.96592" lon="-0.05131">
        <ele>815</ele>
        <time>2010-01-01T06:57:28Z</time>
      </trkpt>
      <trkpt lat="42.9665" lon="-0.05132">
        <ele>816</ele>
        <time>2010-01-01T06:57:51Z</time>
      </trkpt>
      <trkpt lat="42.96781" lon="-0.05154">
        <ele>801</ele>
        <time>2010-01-01T06:58:44Z</time>
      </trkpt>
      <trkpt lat="42.96774" lon="-0.05201">
        <ele>785</ele>
        <time>2010-01-01T06:58:58Z</time>
      </trkpt>
      <trkpt lat="42.96839" lon="-0.05146">
        <ele>786</ele>
        <time>2010-01-01T06:59:28Z</time>
      </trkpt>
      <trkpt lat="42.96827" lon="-0.05197">
        <ele>782</ele>
        <time>2010-01-01T06:59:44Z</time>
      </trkpt>
      <trkpt lat="42.96818" lon="-0.0524">
        <ele>774</ele>
        <time>2010-01-01T06:59:57Z</time>
      </trkpt>
      <trkpt lat="42.96792" lon="-0.05262">
        <ele>760</ele>
        <time>2010-01-01T07:00:09Z</time>
      </trkpt>
      <trkpt lat="42.9672" lon="-0.05265">
        <ele>766</ele>
        <time>2010-01-01T07:00:38Z</time>
      </trkpt>
      <trkpt lat="42.96608" lon="-0.053">
        <ele>758</ele>
        <time>2010-01-01T07:01:24Z</time>
      </trkpt>
      <trkpt lat="42.96517" lon="-0.05269">
        <ele>743</ele>
        <time>2010-01-01T07:02:01Z</time>
      </trkpt>
      <trkpt lat="42.9648" lon="-0.0524">
        <ele>740</ele>
        <time>2010-01-01T07:02:18Z</time>
      </trkpt>
      <trkpt lat="42.96424" lon="-0.05234">
        <ele>725</ele>
        <time>2010-01-01T07:02:41Z</time>
      </trkpt>
      <trkpt lat="42.96328" lon="-0.05191">
        <ele>703</ele>
        <time>2010-01-01T07:03:21Z</time>
      </trkpt>
      <trkpt lat="42.96269" lon="-0.0514">
        <ele>729</ele>
        <time>2010-01-01T07:03:49Z</time>
      </trkpt>
      <trkpt lat="42.9622" lon="-0.05189">
        <ele>711</ele>
        <time>2010-01-01T07:04:13Z</time>
      </trkpt>
      <trkpt lat="42.96199" lon="-0.05234">
        <ele>708</ele>
        <time>2010-01-01T07:04:29Z</time>
      </trkpt>
      <trkpt lat="42.96147" lon="-0.05244">
        <ele>738</ele>
        <time>2010-01-01T07:04:50Z</time>
      </trkpt>
      <trkpt lat="42.96134" lon="-0.0529">
        <ele>726</ele>
        <time>2010-01-01T07:05:04Z</time>
      </trkpt>
      <trkpt lat="42.96122" lon="-0.05396">
        <ele>695</ele>
        <time>2010-01-01T07:05:36Z</time>
      </trkpt>
      <trkpt lat="42.9609" lon="-0.05476">
        <ele>672</ele>
        <time>2010-01-01T07:06:03Z</time>
      </trkpt>
      <trkpt lat="42.96054" lon="-0.05536">
        <ele>652</ele>
        <time>2010-01-01T07:06:25Z</time>
      </trkpt>
      <trkpt lat="42.96005" lon="-0.05577">
        <ele>638</ele>
        <time>2010-01-01T07:06:48Z</time>
      </trkpt>
      <trkpt lat="42.95981" lon="-0.05549">
        <ele>632</ele>
        <time>2010-01-01T07:07:01Z</time>
      </trkpt>
      <trkpt lat="42.95976" lon="-0.05502">
        <ele>643</ele>
        <time>2010-01-01T07:07:15Z</time>
      </trkpt>
      <trkpt lat="42.95931" lon="-0.05471">
        <ele>655</ele>
        <time>2010-01-01T07:07:35Z</time>
      </trkpt>
      <trkpt lat="42.95898" lon="-0.05451">
        <ele>629</ele>
        <time>2010-01-01T07:07:50Z</time>
      </trkpt>
      <trkpt lat="42.95875" lon="-0.05453">
        <ele>622</ele>
        <time>2010-01-01T07:07:59Z</time>
      </trkpt>
      <trkpt lat="42.95747" lon="-0.05365">
        <ele>591</ele>
        <time>2010-01-01T07:08:56Z</time>
      </trkpt>
      <trkpt lat="42.95657" lon="-0.05318">
        <ele>584</ele>
        <time>2010-01-01T07:09:35Z</time>
      </trkpt>
      <trkpt lat="42.95633" lon="-0.05337">
        <ele>566</ele>
        <time>2010-01-01T07:09:46Z</time>
      </trkpt>
      <trkpt lat="42.95588" lon="-0.05373">
        <ele>557</ele>
        <time>2010-01-01T07:10:07Z</time>
      </trkpt>
      <trkpt lat="42.95567" lon="-0.05485">
        <ele>535</ele>
        <time>2010-01-01T07:10:41Z</time>
      </trkpt>
      <trkpt lat="42.95516" lon="-0.05562">
        <ele>530</ele>
        <time>2010-01-01T07:11:11Z</time>
      </trkpt>
      <trkpt lat="42.95441" lon="-0.05615">
        <ele>534</ele>
        <time>2010-01-01T07:11:45Z</time>
      </trkpt>
      <trkpt lat="42.95454" lon="-0.05659">
        <ele>530</ele>
        <time>2010-01-01T07:11:59Z</time>
      </trkpt>
      <trkpt lat="42.95431" lon="-0.05764">
        <ele>524</ele>
        <time>2010-01-01T07:12:31Z</time>
      </trkpt>
      <trkpt lat="42.95406" lon="-0.05813">
        <ele>527</ele>
        <time>2010-01-01T07:12:49Z</time>
      </trkpt>
      <trkpt lat="42.95359" lon="-0.05884">
        <ele>525</ele>
        <time>2010-01-01T07:13:17Z</time>
      </trkpt>
      <trkpt lat="42.95346" lon="-0.05982">
        <ele>520</ele>
        <time>2010-01-01T07:13:46Z</time>
      </trkpt>
      <trkpt lat="42.95337" lon="-0.06073">
        <ele>516</ele>
        <time>2010-01-01T07:14:13Z</time>
      </trkpt>
      <trkpt lat="42.9536" lon="-0.0615">
        <ele>511</ele>
        <time>2010-01-01T07:14:37Z</time>
      </trkpt>
      <trkpt lat="42.95341" lon="-0.06205">
        <ele>507</ele>
        <time>2010-01-01T07:14:55Z</time>
      </trkpt>
      <trkpt lat="42.95328" lon="-0.06262">
        <ele>503</ele>
        <time>2010-01-01T07:15:13Z</time>
      </trkpt>
      <trkpt lat="42.95328" lon="-0.06374">
        <ele>494</ele>
        <time>2010-01-01T07:15:45Z</time>
      </trkpt>
      <trkpt lat="42.95329" lon="-0.06482">
        <ele>487</ele>
        <time>2010-01-01T07:16:17Z</time>
      </trkpt>
      <trkpt lat="42.953" lon="-0.06577">
        <ele>480</ele>
        <time>2010-01-01T07:16:47Z</time>
      </trkpt>
      <trkpt lat="42.95218" lon="-0.06591">
        <ele>481</ele>
        <time>2010-01-01T07:17:20Z</time>
      </trkpt>
      <trkpt lat="42.95112" lon="-0.0672">
        <ele>480</ele>
        <time>2010-01-01T07:18:17Z</time>
      </trkpt>
      <trkpt lat="42.95117" lon="-0.06745">
        <ele>480</ele>
        <time>2010-01-01T07:18:25Z</time>
      </trkpt>
      <trkpt lat="42.95094" lon="-0.06803">
        <ele>483</ele>
        <time>2010-01-01T07:18:44Z</time>
      </trkpt>
      <trkpt lat="42.95132" lon="-0.06868">
        <ele>490</ele>
        <time>2010-01-01T07:19:08Z</time>
      </trkpt>
      <trkpt lat="42.95149" lon="-0.06938">
        <ele>508</ele>
        <time>2010-01-01T07:19:30Z</time>
      </trkpt>
      <trkpt lat="42.95183" lon="-0.06989">
        <ele>504</ele>
        <time>2010-01-01T07:19:50Z</time>
      </trkpt>
      <trkpt lat="42.95158" lon="-0.06977">
        <ele>516</ele>
        <time>2010-01-01T07:20:01Z</time>
      </trkpt>
      <trkpt lat="42.9516" lon="-0.06994">
        <ele>517</ele>
        <time>2010-01-01T07:20:06Z</time>
      </trkpt>
      <trkpt lat="42.95145" lon="-0.0699">
        <ele>519</ele>
        <time>2010-01-01T07:20:12Z</time>
      </trkpt>
      <trkpt lat="42.95151" lon="-0.07007">
        <ele>537</ele>
        <time>2010-01-01T07:20:17Z</time>
      </trkpt>
      <trkpt lat="42.95127" lon="-0.0701">
        <ele>550</ele>
        <time>2010-01-01T07:20:27Z</time>
      </trkpt>
      <trkpt lat="42.9521" lon="-0.07059">
        <ele>530</ele>
        <time>2010-01-01T07:21:03Z</time>
      </trkpt>
      <trkpt lat="42.95315" lon="-0.07124">
        <ele>533</ele>
        <time>2010-01-01T07:21:50Z</time>
      </trkpt>
      <trkpt lat="42.95418" lon="-0.07253">
        <ele>521</ele>
        <time>2010-01-01T07:22:45Z</time>
      </trkpt>
      <trkpt lat="42.95473" lon="-0.07369">
        <ele>523</ele>
        <time>2010-01-01T07:23:26Z</time>
      </trkpt>
      <trkpt lat="42.95521" lon="-0.07405">
        <ele>507</ele>
        <time>2010-01-01T07:23:48Z</time>
      </trkpt>
      <trkpt lat="42.95553" lon="-0.07475">
        <ele>516</ele>
        <time>2010-01-01T07:24:12Z</time>
      </trkpt>
      <trkpt lat="42.95615" lon="-0.07489">
        <ele>505</ele>
        <time>2010-01-01T07:24:37Z</time>
      </trkpt>
      <trkpt lat="42.9566" lon="-0.07455">
        <ele>501</ele>
        <time>2010-01-01T07:24:58Z</time>
      </trkpt>
      <trkpt lat="42.95683" lon="-0.07499">
        <ele>498</ele>
        <time>2010-01-01T07:25:13Z</time>
      </trkpt>
      <trkpt lat="42.95749" lon="-0.07517">
        <ele>496</ele>
        <time>2010-01-01T07:25:40Z</time>
      </trkpt>
      <trkpt lat="42.95912" lon="-0.07455">
        <ele>490</ele>
        <time>2010-01-01T07:26:48Z</time>
      </trkpt>
      <trkpt lat="42.9593" lon="-0.07498">
        <ele>489</ele>
        <time>2010-01-01T07:27:03Z</time>
      </trkpt>
      <trkpt lat="42.9593" lon="-0.07688">
        <ele>496</ele>
        <time>2010-01-01T07:27:58Z</time>
      </trkpt>
      <trkpt lat="42.96021" lon="-0.0774">
        <ele>501</ele>
        <time>2010-01-01T07:28:38Z</time>
      </trkpt>
      <trkpt lat="42.96096" lon="-0.07792">
        <ele>513</ele>
        <time>2010-01-01T07:29:11Z</time>
      </trkpt>
      <trkpt lat="42.96152" lon="-0.07808">
        <ele>514</ele>
        <time>2010-01-01T07:29:34Z</time>
      </trkpt>
      <trkpt lat="42.96195" lon="-0.07816">
        <ele>513</ele>
        <time>2010-01-01T07:29:51Z</time>
      </trkpt>
      <trkpt lat="42.96233" lon="-0.07817">
        <ele>514</ele>
        <time>2010-01-01T07:30:07Z</time>
      </trkpt>
      <trkpt lat="42.96262" lon="-0.07813">
        <ele>514</ele>
        <time>2010-01-01T07:30:18Z</time>
      </trkpt>
      <trkpt lat="42.96299" lon="-0.07831">
        <ele>514</ele>
        <time>2010-01-01T07:30:34Z</time>
      </trkpt>
      <trkpt lat="42.9631" lon="-0.07884">
        <ele>527</ele>
        <time>2010-01-01T07:30:50Z</time>
      </trkpt>
      <trkpt lat="42.96276" lon="-0.07928">
        <ele>539</ele>
        <time>2010-01-01T07:31:09Z</time>
      </trkpt>
      <trkpt lat="42.96164" lon="-0.07962">
        <ele>551</ele>
        <time>2010-01-01T07:31:55Z</time>
      </trkpt>
      <trkpt lat="42.96184" lon="-0.08024">
        <ele>564</ele>
        <time>2010-01-01T07:32:15Z</time>
      </trkpt>
      <trkpt lat="42.96146" lon="-0.07999">
        <ele>557</ele>
        <time>2010-01-01T07:32:32Z</time>
      </trkpt>
      <trkpt lat="42.96117" lon="-0.0805">
        <ele>585</ele>
        <time>2010-01-01T07:32:51Z</time>
      </trkpt>
      <trkpt lat="42.9605" lon="-0.08008">
        <ele>597</ele>
        <time>2010-01-01T07:33:20Z</time>
      </trkpt>
      <trkpt lat="42.96053" lon="-0.08047">
        <ele>602</ele>
        <time>2010-01-01T07:33:31Z</time>
      </trkpt>
      <trkpt lat="42.96106" lon="-0.08115">
        <ele>612</ele>
        <time>2010-01-01T07:34:00Z</time>
      </trkpt>
      <trkpt lat="42.9602" lon="-0.08116">
        <ele>624</ele>
        <time>2010-01-01T07:34:35Z</time>
      </trkpt>
      <trkpt lat="42.95974" lon="-0.08133">
        <ele>632</ele>
        <time>2010-01-01T07:34:54Z</time>
      </trkpt>
      <trkpt lat="42.95983" lon="-0.08209">
        <ele>656</ele>
        <time>2010-01-01T07:35:16Z</time>
      </trkpt>
      <trkpt lat="42.95933" lon="-0.08193">
        <ele>654</ele>
        <time>2010-01-01T07:35:37Z</time>
      </trkpt>
      <trkpt lat="42.95905" lon="-0.08169">
        <ele>652</ele>
        <time>2010-01-01T07:35:50Z</time>
      </trkpt>
      <trkpt lat="42.95874" lon="-0.08179">
        <ele>660</ele>
        <time>2010-01-01T07:36:03Z</time>
      </trkpt>
      <trkpt lat="42.95896" lon="-0.08238">
        <ele>670</ele>
        <time>2010-01-01T07:36:22Z</time>
      </trkpt>
      <trkpt lat="42.95843" lon="-0.08237">
        <ele>675</ele>
        <time>2010-01-01T07:36:43Z</time>
      </trkpt>
      <trkpt lat="42.95864" lon="-0.08276">
        <ele>698</ele>
        <time>2010-01-01T07:36:57Z</time>
      </trkpt>
      <trkpt lat="42.95844" lon="-0.08293">
        <ele>703</ele>
        <time>2010-01-01T07:37:07Z</time>
      </trkpt>
      <trkpt lat="42.9588" lon="-0.08328">
        <ele>708</ele>
        <time>2010-01-01T07:37:24Z</time>
      </trkpt>
      <trkpt lat="42.95854" lon="-0.08341">
        <ele>734</ele>
        <time>2010-01-01T07:37:35Z</time>
      </trkpt>
      <trkpt lat="42.95888" lon="-0.08365">
        <ele>737</ele>
        <time>2010-01-01T07:37:51Z</time>
      </trkpt>
      <trkpt lat="42.95929" lon="-0.08402">
        <ele>742</ele>
        <time>2010-01-01T07:38:10Z</time>
      </trkpt>
      <trkpt lat="42.95982" lon="-0.08441">
        <ele>760</ele>
        <time>2010-01-01T07:38:34Z</time>
      </trkpt>
      <trkpt lat="42.96082" lon="-0.08509">
        <ele>774</ele>
        <time>2010-01-01T07:39:19Z</time>
      </trkpt>
      <trkpt lat="42.95998" lon="-0.08516">
        <ele>787</ele>
        <time>2010-01-01T07:39:53Z</time>
      </trkpt>
      <trkpt lat="42.95931" lon="-0.08541">
        <ele>795</ele>
        <time>2010-01-01T07:40:21Z</time>
      </trkpt>
      <trkpt lat="42.95979" lon="-0.08574">
        <ele>801</ele>
        <time>2010-01-01T07:40:43Z</time>
      </trkpt>
      <trkpt lat="42.96024" lon="-0.0859">
        <ele>811</ele>
        <time>2010-01-01T07:41:01Z</time>
      </trkpt>
      <trkpt lat="42.96089" lon="-0.08653">
        <ele>810</ele>
        <time>2010-01-01T07:41:33Z</time>
      </trkpt>
      <trkpt lat="42.9601" lon="-0.08652">
        <ele>826</ele>
        <time>2010-01-01T07:42:04Z</time>
      </trkpt>
      <trkpt lat="42.95893" lon="-0.08638">
        <ele>844</ele>
        <time>2010-01-01T07:42:51Z</time>
      </trkpt>
      <trkpt lat="42.95821" lon="-0.08651">
        <ele>861</ele>
        <time>2010-01-01T07:43:20Z</time>
      </trkpt>
      <trkpt lat="42.95721" lon="-0.08619">
        <ele>864</ele>
        <time>2010-01-01T07:44:02Z</time>
      </trkpt>
      <trkpt lat="42.95564" lon="-0.08603">
        <ele>885</ele>
        <time>2010-01-01T07:45:05Z</time>
      </trkpt>
      <trkpt lat="42.95512" lon="-0.08628">
        <ele>893</ele>
        <time>2010-01-01T07:45:27Z</time>
      </trkpt>
      <trkpt lat="42.95436" lon="-0.08672">
        <ele>914</ele>
        <time>2010-01-01T07:46:00Z</time>
      </trkpt>
      <trkpt lat="42.95454" lon="-0.08697">
        <ele>921</ele>
        <time>2010-01-01T07:46:10Z</time>
      </trkpt>
      <trkpt lat="42.9542" lon="-0.08688">
        <ele>916</ele>
        <time>2010-01-01T07:46:24Z</time>
      </trkpt>
      <trkpt lat="42.95385" lon="-0.08759">
        <ele>933</ele>
        <time>2010-01-01T07:46:49Z</time>
      </trkpt>
      <trkpt lat="42.95426" lon="-0.08761">
        <ele>942</ele>
        <time>2010-01-01T07:47:05Z</time>
      </trkpt>
      <trkpt lat="42.95398" lon="-0.08802">
        <ele>940</ele>
        <time>2010-01-01T07:47:21Z</time>
      </trkpt>
      <trkpt lat="42.95418" lon="-0.0881">
        <ele>955</ele>
        <time>2010-01-01T07:47:29Z</time>
      </trkpt>
      <trkpt lat="42.95433" lon="-0.0886">
        <ele>969</ele>
        <time>2010-01-01T07:47:45Z</time>
      </trkpt>
      <trkpt lat="42.95455" lon="-0.08925">
        <ele>981</ele>
        <time>2010-01-01T07:48:06Z</time>
      </trkpt>
      <trkpt lat="42.9545" lon="-0.09051">
        <ele>993</ele>
        <time>2010-01-01T07:48:43Z</time>
      </trkpt>
      <trkpt lat="42.95415" lon="-0.09092">
        <ele>985</ele>
        <time>2010-01-01T07:49:02Z</time>
      </trkpt>
      <trkpt lat="42.95399" lon="-0.09152">
        <ele>983</ele>
        <time>2010-01-01T07:49:20Z</time>
      </trkpt>
      <trkpt lat="42.95412" lon="-0.09236">
        <ele>986</ele>
        <time>2010-01-01T07:49:45Z</time>
      </trkpt>
      <trkpt lat="42.95429" lon="-0.09338">
        <ele>1007</ele>
        <time>2010-01-01T07:50:16Z</time>
      </trkpt>
      <trkpt lat="42.95398" lon="-0.09455">
        <ele>1009</ele>
        <time>2010-01-01T07:50:52Z</time>
      </trkpt>
      <trkpt lat="42.95372" lon="-0.09553">
        <ele>1015</ele>
        <time>2010-01-01T07:51:23Z</time>
      </trkpt>
      <trkpt lat="42.95379" lon="-0.09623">
        <ele>1025</ele>
        <time>2010-01-01T07:51:44Z</time>
      </trkpt>
      <trkpt lat="42.95396" lon="-0.09677">
        <ele>1042</ele>
        <time>2010-01-01T07:52:01Z</time>
      </trkpt>
      <trkpt lat="42.95383" lon="-0.0973">
        <ele>1049</ele>
        <time>2010-01-01T07:52:17Z</time>
      </trkpt>
      <trkpt lat="42.95322" lon="-0.09758">
        <ele>1068</ele>
        <time>2010-01-01T07:52:43Z</time>
      </trkpt>
      <trkpt lat="42.95244" lon="-0.09774">
        <ele>1066</ele>
        <time>2010-01-01T07:53:15Z</time>
      </trkpt>
      <trkpt lat="42.9516" lon="-0.09789">
        <ele>1057</ele>
        <time>2010-01-01T07:53:48Z</time>
      </trkpt>
      <trkpt lat="42.95153" lon="-0.09867">
        <ele>1075</ele>
        <time>2010-01-01T07:54:12Z</time>
      </trkpt>
      <trkpt lat="42.95161" lon="-0.09933">
        <ele>1088</ele>
        <time>2010-01-01T07:54:31Z</time>
      </trkpt>
      <trkpt lat="42.95175" lon="-0.10006">
        <ele>1108</ele>
        <time>2010-01-01T07:54:53Z</time>
      </trkpt>
      <trkpt lat="42.95161" lon="-0.1008">
        <ele>1114</ele>
        <time>2010-01-01T07:55:15Z</time>
      </trkpt>
      <trkpt lat="42.95102" lon="-0.10128">
        <ele>1119</ele>
        <time>2010-01-01T07:55:43Z</time>
      </trkpt>
      <trkpt lat="42.95039" lon="-0.10159">
        <ele>1111</ele>
        <time>2010-01-01T07:56:10Z</time>
      </trkpt>
      <trkpt lat="42.9499" lon="-0.10198">
        <ele>1116</ele>
        <time>2010-01-01T07:56:32Z</time>
      </trkpt>
      <trkpt lat="42.95046" lon="-0.10288">
        <ele>1145</ele>
        <time>2010-01-01T07:57:07Z</time>
      </trkpt>
      <trkpt lat="42.95123" lon="-0.10356">
        <ele>1173</ele>
        <time>2010-01-01T07:57:44Z</time>
      </trkpt>
      <trkpt lat="42.95136" lon="-0.10416">
        <ele>1180</ele>
        <time>2010-01-01T07:58:02Z</time>
      </trkpt>
      <trkpt lat="42.95186" lon="-0.10402">
        <ele>1195</ele>
        <time>2010-01-01T07:58:23Z</time>
      </trkpt>
      <trkpt lat="42.95126" lon="-0.10517">
        <ele>1207</ele>
        <time>2010-01-01T07:59:04Z</time>
      </trkpt>
      <trkpt lat="42.95126" lon="-0.10566">
        <ele>1213</ele>
        <time>2010-01-01T07:59:18Z</time>
      </trkpt>
      <trkpt lat="42.95151" lon="-0.10515">
        <ele>1212</ele>
        <time>2010-01-01T07:59:37Z</time>
      </trkpt>
      <trkpt lat="42.95235" lon="-0.1046">
        <ele>1223</ele>
        <time>2010-01-01T08:00:14Z</time>
      </trkpt>
      <trkpt lat="42.95296" lon="-0.10452">
        <ele>1243</ele>
        <time>2010-01-01T08:00:38Z</time>
      </trkpt>
      <trkpt lat="42.95366" lon="-0.10409">
        <ele>1244</ele>
        <time>2010-01-01T08:01:09Z</time>
      </trkpt>
      <trkpt lat="42.95423" lon="-0.10357">
        <ele>1262</ele>
        <time>2010-01-01T08:01:36Z</time>
      </trkpt>
      <trkpt lat="42.95466" lon="-0.10315">
        <ele>1257</ele>
        <time>2010-01-01T08:01:58Z</time>
      </trkpt>
      <trkpt lat="42.95499" lon="-0.10293">
        <ele>1259</ele>
        <time>2010-01-01T08:02:12Z</time>
      </trkpt>
      <trkpt lat="42.95457" lon="-0.104">
        <ele>1275</ele>
        <time>2010-01-01T08:02:48Z</time>
      </trkpt>
      <trkpt lat="42.95408" lon="-0.10477">
        <ele>1277</ele>
        <time>2010-01-01T08:03:18Z</time>
      </trkpt>
      <trkpt lat="42.95347" lon="-0.10554">
        <ele>1292</ele>
        <time>2010-01-01T08:03:51Z</time>
      </trkpt>
      <trkpt lat="42.95283" lon="-0.10618">
        <ele>1295</ele>
        <time>2010-01-01T08:04:23Z</time>
      </trkpt>
      <trkpt lat="42.95287" lon="-0.10659">
        <ele>1299</ele>
        <time>2010-01-01T08:04:35Z</time>
      </trkpt>
      <trkpt lat="42.95331" lon="-0.10708">
        <ele>1315</ele>
        <time>2010-01-01T08:04:58Z</time>
      </trkpt>
      <trkpt lat="42.9531" lon="-0.10794">
        <ele>1326</ele>
        <time>2010-01-01T08:05:24Z</time>
      </trkpt>
      <trkpt lat="42.95313" lon="-0.10969">
        <ele>1342</ele>
        <time>2010-01-01T08:06:16Z</time>
      </trkpt>
      <trkpt lat="42.95338" lon="-0.11067">
        <ele>1359</ele>
        <time>2010-01-01T08:06:46Z</time>
      </trkpt>
      <trkpt lat="42.95353" lon="-0.11028">
        <ele>1362</ele>
        <time>2010-01-01T08:06:59Z</time>
      </trkpt>
      <trkpt lat="42.95378" lon="-0.10978">
        <ele>1363</ele>
        <time>2010-01-01T08:07:17Z</time>
      </trkpt>
      <trkpt lat="42.95402" lon="-0.10964">
        <ele>1365</ele>
        <time>2010-01-01T08:07:27Z</time>
      </trkpt>
      <trkpt lat="42.95484" lon="-0.10907">
        <ele>1376</ele>
        <time>2010-01-01T08:08:04Z</time>
      </trkpt>
      <trkpt lat="42.95539" lon="-0.10906">
        <ele>1374</ele>
        <time>2010-01-01T08:08:26Z</time>
      </trkpt>
      <trkpt lat="42.95503" lon="-0.10972">
        <ele>1394</ele>
        <time>2010-01-01T08:08:50Z</time>
      </trkpt>
      <trkpt lat="42.95499" lon="-0.11045">
        <ele>1393</ele>
        <time>2010-01-01T08:09:12Z</time>
      </trkpt>
      <trkpt lat="42.9551" lon="-0.11128">
        <ele>1411</ele>
        <time>2010-01-01T08:09:37Z</time>
      </trkpt>
      <trkpt lat="42.95544" lon="-0.11199">
        <ele>1419</ele>
        <time>2010-01-01T08:10:02Z</time>
      </trkpt>
      <trkpt lat="42.95569" lon="-0.11257">
        <ele>1429</ele>
        <time>2010-01-01T08:10:21Z</time>
      </trkpt>
      <trkpt lat="42.95579" lon="-0.11315">
        <ele>1433</ele>
        <time>2010-01-01T08:10:38Z</time>
      </trkpt>
      <trkpt lat="42.95528" lon="-0.11336">
        <ele>1437</ele>
        <time>2010-01-01T08:11:00Z</time>
      </trkpt>
      <trkpt lat="42.9548" lon="-0.11417">
        <ele>1446</ele>
        <time>2010-01-01T08:11:30Z</time>
      </trkpt>
      <trkpt lat="42.95416" lon="-0.11489">
        <ele>1444</ele>
        <time>2010-01-01T08:12:03Z</time>
      </trkpt>
      <trkpt lat="42.95455" lon="-0.1162">
        <ele>1460</ele>
        <time>2010-01-01T08:12:45Z</time>
      </trkpt>
      <trkpt lat="42.95531" lon="-0.11815">
        <ele>1484</ele>
        <time>2010-01-01T08:13:50Z</time>
      </trkpt>
      <trkpt lat="42.95453" lon="-0.11943">
        <ele>1475</ele>
        <time>2010-01-01T08:14:39Z</time>
      </trkpt>
      <trkpt lat="42.9546" lon="-0.12035">
        <ele>1484</ele>
        <time>2010-01-01T08:15:06Z</time>
      </trkpt>
      <trkpt lat="42.95553" lon="-0.12146">
        <ele>1509</ele>
        <time>2010-01-01T08:15:55Z</time>
      </trkpt>
      <trkpt lat="42.95672" lon="-0.12191">
        <ele>1531</ele>
        <time>2010-01-01T08:16:45Z</time>
      </trkpt>
      <trkpt lat="42.95737" lon="-0.1224">
        <ele>1539</ele>
        <time>2010-01-01T08:17:14Z</time>
      </trkpt>
      <trkpt lat="42.9576" lon="-0.12306">
        <ele>1547</ele>
        <time>2010-01-01T08:17:36Z</time>
      </trkpt>
      <trkpt lat="42.95765" lon="-0.12445">
        <ele>1563</ele>
        <time>2010-01-01T08:18:17Z</time>
      </trkpt>
      <trkpt lat="42.95737" lon="-0.12565">
        <ele>1591</ele>
        <time>2010-01-01T08:18:54Z</time>
      </trkpt>
      <trkpt lat="42.95613" lon="-0.12817">
        <ele>1629</ele>
        <time>2010-01-01T08:20:23Z</time>
      </trkpt>
      <trkpt lat="42.9562" lon="-0.12919">
        <ele>1636</ele>
        <time>2010-01-01T08:20:52Z</time>
      </trkpt>
      <trkpt lat="42.95581" lon="-0.132">
        <ele>1665</ele>
        <time>2010-01-01T08:22:16Z</time>
      </trkpt>
      <trkpt lat="42.9559" lon="-0.13387">
        <ele>1656</ele>
        <time>2010-01-01T08:23:11Z</time>
      </trkpt>
      <trkpt lat="42.95508" lon="-0.13724">
        <ele>1665</ele>
        <time>2010-01-01T08:24:55Z</time>
      </trkpt>
      <trkpt lat="42.95441" lon="-0.14058">
        <ele>1661</ele>
        <time>2010-01-01T08:26:37Z</time>
      </trkpt>
      <trkpt lat="42.95378" lon="-0.14263">
        <ele>1652</ele>
        <time>2010-01-01T08:27:42Z</time>
      </trkpt>
      <trkpt lat="42.95315" lon="-0.14404">
        <ele>1639</ele>
        <time>2010-01-01T08:28:30Z</time>
      </trkpt>
      <trkpt lat="42.95263" lon="-0.14595">
        <ele>1602</ele>
        <time>2010-01-01T08:29:30Z</time>
      </trkpt>
      <trkpt lat="42.9523" lon="-0.14596">
        <ele>1603</ele>
        <time>2010-01-01T08:29:43Z</time>
      </trkpt>
      <trkpt lat="42.9522" lon="-0.1454">
        <ele>1611</ele>
        <time>2010-01-01T08:30:00Z</time>
      </trkpt>
      <trkpt lat="42.95173" lon="-0.14414">
        <ele>1612</ele>
        <time>2010-01-01T08:30:42Z</time>
      </trkpt>
      <trkpt lat="42.95085" lon="-0.14318">
        <ele>1603</ele>
        <time>2010-01-01T08:31:27Z</time>
      </trkpt>
      <trkpt lat="42.95039" lon="-0.14127">
        <ele>1598</ele>
        <time>2010-01-01T08:32:26Z</time>
      </trkpt>
      <trkpt lat="42.94975" lon="-0.14073">
        <ele>1592</ele>
        <time>2010-01-01T08:32:56Z</time>
      </trkpt>
      <trkpt lat="42.94811" lon="-0.14144">
        <ele>1526</ele>
        <time>2010-01-01T08:34:05Z</time>
      </trkpt>
      <trkpt lat="42.94736" lon="-0.14067">
        <ele>1509</ele>
        <time>2010-01-01T08:34:42Z</time>
      </trkpt>
      <trkpt lat="42.94719" lon="-0.14133">
        <ele>1495</ele>
        <time>2010-01-01T08:35:02Z</time>
      </trkpt>
      <trkpt lat="42.94658" lon="-0.14094">
        <ele>1483</ele>
        <time>2010-01-01T08:35:29Z</time>
      </trkpt>
      <trkpt lat="42.94641" lon="-0.14136">
        <ele>1480</ele>
        <time>2010-01-01T08:35:44Z</time>
      </trkpt>
      <trkpt lat="42.94601" lon="-0.14147">
        <ele>1480</ele>
        <time>2010-01-01T08:36:00Z</time>
      </trkpt>
      <trkpt lat="42.94563" lon="-0.14221">
        <ele>1474</ele>
        <time>2010-01-01T08:36:26Z</time>
      </trkpt>
      <trkpt lat="42.94421" lon="-0.14185">
        <ele>1493</ele>
        <time>2010-01-01T08:37:24Z</time>
      </trkpt>
      <trkpt lat="42.94393" lon="-0.14254">
        <ele>1476</ele>
        <time>2010-01-01T08:37:47Z</time>
      </trkpt>
      <trkpt lat="42.94342" lon="-0.14213">
        <ele>1494</ele>
        <time>2010-01-01T08:38:11Z</time>
      </trkpt>
      <trkpt lat="42.94271" lon="-0.14282">
        <ele>1493</ele>
        <time>2010-01-01T08:38:46Z</time>
      </trkpt>
      <trkpt lat="42.9425" lon="-0.14342">
        <ele>1489</ele>
        <time>2010-01-01T08:39:06Z</time>
      </trkpt>
      <trkpt lat="42.94241" lon="-0.14266">
        <ele>1512</ele>
        <time>2010-01-01T08:39:28Z</time>
      </trkpt>
      <trkpt lat="42.94185" lon="-0.14343">
        <ele>1522</ele>
        <time>2010-01-01T08:40:00Z</time>
      </trkpt>
      <trkpt lat="42.9415" lon="-0.14427">
        <ele>1549</ele>
        <time>2010-01-01T08:40:28Z</time>
      </trkpt>
      <trkpt lat="42.94127" lon="-0.14489">
        <ele>1562</ele>
        <time>2010-01-01T08:40:49Z</time>
      </trkpt>
      <trkpt lat="42.94116" lon="-0.14614">
        <ele>1575</ele>
        <time>2010-01-01T08:41:26Z</time>
      </trkpt>
      <trkpt lat="42.94105" lon="-0.14596">
        <ele>1582</ele>
        <time>2010-01-01T08:41:33Z</time>
      </trkpt>
      <trkpt lat="42.94084" lon="-0.1469">
        <ele>1578</ele>
        <time>2010-01-01T08:42:02Z</time>
      </trkpt>
      <trkpt lat="42.94052" lon="-0.14772">
        <ele>1602</ele>
        <time>2010-01-01T08:42:29Z</time>
      </trkpt>
      <trkpt lat="42.9399" lon="-0.14838">
        <ele>1626</ele>
        <time>2010-01-01T08:43:00Z</time>
      </trkpt>
      <trkpt lat="42.93985" lon="-0.14937">
        <ele>1613</ele>
        <time>2010-01-01T08:43:29Z</time>
      </trkpt>
      <trkpt lat="42.93905" lon="-0.14964">
        <ele>1637</ele>
        <time>2010-01-01T08:44:03Z</time>
      </trkpt>
      <trkpt lat="42.93862" lon="-0.14953">
        <ele>1646</ele>
        <time>2010-01-01T08:44:20Z</time>
      </trkpt>
      <trkpt lat="42.93849" lon="-0.14967">
        <ele>1644</ele>
        <time>2010-01-01T08:44:27Z</time>
      </trkpt>
      <trkpt lat="42.93777" lon="-0.14967">
        <ele>1662</ele>
        <time>2010-01-01T08:44:56Z</time>
      </trkpt>
      <trkpt lat="42.93731" lon="-0.14958">
        <ele>1680</ele>
        <time>2010-01-01T08:45:14Z</time>
      </trkpt>
      <trkpt lat="42.93661" lon="-0.14916">
        <ele>1696</ele>
        <time>2010-01-01T08:45:45Z</time>
      </trkpt>
      <trkpt lat="42.93591" lon="-0.14813">
        <ele>1712</ele>
        <time>2010-01-01T08:46:26Z</time>
      </trkpt>
      <trkpt lat="42.93553" lon="-0.1477">
        <ele>1712</ele>
        <time>2010-01-01T08:46:46Z</time>
      </trkpt>
      <trkpt lat="42.93446" lon="-0.14716">
        <ele>1720</ele>
        <time>2010-01-01T08:47:31Z</time>
      </trkpt>
      <trkpt lat="42.93399" lon="-0.14738">
        <ele>1724</ele>
        <time>2010-01-01T08:47:51Z</time>
      </trkpt>
      <trkpt lat="42.93325" lon="-0.14719">
        <ele>1749</ele>
        <time>2010-01-01T08:48:21Z</time>
      </trkpt>
      <trkpt lat="42.93227" lon="-0.14712">
        <ele>1781</ele>
        <time>2010-01-01T08:49:01Z</time>
      </trkpt>
      <trkpt lat="42.93142" lon="-0.14723">
        <ele>1807</ele>
        <time>2010-01-01T08:49:35Z</time>
      </trkpt>
      <trkpt lat="42.93057" lon="-0.1472">
        <ele>1830</ele>
        <time>2010-01-01T08:50:09Z</time>
      </trkpt>
      <trkpt lat="42.92996" lon="-0.14574">
        <ele>1846</ele>
        <time>2010-01-01T08:50:58Z</time>
      </trkpt>
      <trkpt lat="42.92908" lon="-0.14645">
        <ele>1866</ele>
        <time>2010-01-01T08:51:39Z</time>
      </trkpt>
      <trkpt lat="42.92855" lon="-0.14598">
        <ele>1876</ele>
        <time>2010-01-01T08:52:05Z</time>
      </trkpt>
      <trkpt lat="42.92776" lon="-0.14444">
        <ele>1904</ele>
        <time>2010-01-01T08:53:00Z</time>
      </trkpt>
      <trkpt lat="42.92697" lon="-0.1445">
        <ele>1933</ele>
        <time>2010-01-01T08:53:32Z</time>
      </trkpt>
      <trkpt lat="42.9263" lon="-0.14417">
        <ele>1967</ele>
        <time>2010-01-01T08:54:00Z</time>
      </trkpt>
      <trkpt lat="42.92581" lon="-0.14348">
        <ele>1988</ele>
        <time>2010-01-01T08:54:28Z</time>
      </trkpt>
      <trkpt lat="42.92522" lon="-0.14252">
        <ele>2001</ele>
        <time>2010-01-01T08:55:05Z</time>
      </trkpt>
      <trkpt lat="42.92525" lon="-0.14004">
        <ele>2025</ele>
        <time>2010-01-01T08:56:18Z</time>
      </trkpt>
      <trkpt lat="42.92458" lon="-0.14076">
        <ele>2060</ele>
        <time>2010-01-01T08:56:52Z</time>
      </trkpt>
      <trkpt lat="42.92417" lon="-0.14124">
        <ele>2059</ele>
        <time>2010-01-01T08:57:13Z</time>
      </trkpt>
      <trkpt lat="42.9237" lon="-0.14177">
        <ele>2092</ele>
        <time>2010-01-01T08:57:38Z</time>
      </trkpt>
      <trkpt lat="42.92354" lon="-0.14099">
        <ele>2107</ele>
        <time>2010-01-01T08:58:02Z</time>
      </trkpt>
      <trkpt lat="42.92275" lon="-0.14084">
        <ele>2131</ele>
        <time>2010-01-01T08:58:34Z</time>
      </trkpt>
      <trkpt lat="42.92194" lon="-0.1406">
        <ele>2125</ele>
        <time>2010-01-01T08:59:07Z</time>
      </trkpt>
      <trkpt lat="42.92156" lon="-0.14116">
        <ele>2113</ele>
        <time>2010-01-01T08:59:29Z</time>
      </trkpt>
      <trkpt lat="42.92135" lon="-0.14056">
        <ele>2098</ele>
        <time>2010-01-01T08:59:49Z</time>
      </trkpt>
      <trkpt lat="42.92128" lon="-0.14112">
        <ele>2105</ele>
        <time>2010-01-01T09:00:05Z</time>
      </trkpt>
      <trkpt lat="42.92101" lon="-0.14074">
        <ele>2086</ele>
        <time>2010-01-01T09:00:21Z</time>
      </trkpt>
      <trkpt lat="42.92115" lon="-0.14017">
        <ele>2088</ele>
        <time>2010-01-01T09:00:39Z</time>
      </trkpt>
      <trkpt lat="42.92132" lon="-0.13962">
        <ele>2079</ele>
        <time>2010-01-01T09:00:56Z</time>
      </trkpt>
      <trkpt lat="42.92154" lon="-0.13897">
        <ele>2075</ele>
        <time>2010-01-01T09:01:17Z</time>
      </trkpt>
      <trkpt lat="42.9216" lon="-0.1384">
        <ele>2078</ele>
        <time>2010-01-01T09:01:34Z</time>
      </trkpt>
      <trkpt lat="42.92132" lon="-0.13895">
        <ele>2062</ele>
        <time>2010-01-01T09:01:54Z</time>
      </trkpt>
      <trkpt lat="42.92137" lon="-0.13792">
        <ele>2051</ele>
        <time>2010-01-01T09:02:24Z</time>
      </trkpt>
      <trkpt lat="42.92123" lon="-0.1373">
        <ele>2040</ele>
        <time>2010-01-01T09:02:43Z</time>
      </trkpt>
      <trkpt lat="42.92119" lon="-0.13789">
        <ele>2044</ele>
        <time>2010-01-01T09:03:00Z</time>
      </trkpt>
      <trkpt lat="42.92097" lon="-0.13849">
        <ele>2037</ele>
        <time>2010-01-01T09:03:20Z</time>
      </trkpt>
      <trkpt lat="42.92093" lon="-0.13802">
        <ele>2034</ele>
        <time>2010-01-01T09:03:34Z</time>
      </trkpt>
      <trkpt lat="42.9206" lon="-0.13714">
        <ele>1987</ele>
        <time>2010-01-01T09:04:03Z</time>
      </trkpt>
      <trkpt lat="42.92047" lon="-0.13805">
        <ele>1986</ele>
        <time>2010-01-01T09:04:30Z</time>
      </trkpt>
      <trkpt lat="42.92019" lon="-0.13893">
        <ele>1984</ele>
        <time>2010-01-01T09:04:58Z</time>
      </trkpt>
      <trkpt lat="42.91999" lon="-0.13953">
        <ele>1962</ele>
        <time>2010-01-01T09:05:18Z</time>
      </trkpt>
      <trkpt lat="42.91966" lon="-0.13998">
        <ele>1961</ele>
        <time>2010-01-01T09:05:37Z</time>
      </trkpt>
      <trkpt lat="42.91944" lon="-0.14039">
        <ele>1967</ele>
        <time>2010-01-01T09:05:51Z</time>
      </trkpt>
      <trkpt lat="42.9192" lon="-0.14101">
        <ele>1969</ele>
        <time>2010-01-01T09:06:12Z</time>
      </trkpt>
      <trkpt lat="42.91903" lon="-0.14141">
        <ele>1949</ele>
        <time>2010-01-01T09:06:26Z</time>
      </trkpt>
      <trkpt lat="42.91866" lon="-0.14186">
        <ele>1959</ele>
        <time>2010-01-01T09:06:45Z</time>
      </trkpt>
      <trkpt lat="42.91771" lon="-0.14289">
        <ele>1958</ele>
        <time>2010-01-01T09:07:34Z</time>
      </trkpt>
      <trkpt lat="42.91699" lon="-0.14269">
        <ele>1938</ele>
        <time>2010-01-01T09:08:03Z</time>
      </trkpt>
      <trkpt lat="42.91714" lon="-0.14244">
        <ele>1909</ele>
        <time>2010-01-01T09:08:13Z</time>
      </trkpt>
      <trkpt lat="42.9168" lon="-0.1425">
        <ele>1926</ele>
        <time>2010-01-01T09:08:27Z</time>
      </trkpt>
      <trkpt lat="42.91663" lon="-0.14223">
        <ele>1891</ele>
        <time>2010-01-01T09:08:37Z</time>
      </trkpt>
      <trkpt lat="42.91578" lon="-0.14218">
        <ele>1877</ele>
        <time>2010-01-01T09:09:11Z</time>
      </trkpt>
      <trkpt lat="42.91548" lon="-0.14187">
        <ele>1871</ele>
        <time>2010-01-01T09:09:26Z</time>
      </trkpt>
      <trkpt lat="42.91541" lon="-0.14144">
        <ele>1851</ele>
        <time>2010-01-01T09:09:39Z</time>
      </trkpt>
      <trkpt lat="42.91487" lon="-0.14163">
        <ele>1846</ele>
        <time>2010-01-01T09:10:02Z</time>
      </trkpt>
      <trkpt lat="42.91503" lon="-0.14124">
        <ele>1848</ele>
        <time>2010-01-01T09:10:15Z</time>
      </trkpt>
      <trkpt lat="42.91473" lon="-0.14121">
        <ele>1832</ele>
        <time>2010-01-01T09:10:27Z</time>
      </trkpt>
      <trkpt lat="42.91493" lon="-0.141">
        <ele>1834</ele>
        <time>2010-01-01T09:10:37Z</time>
      </trkpt>
      <trkpt lat="42.9146" lon="-0.14085">
        <ele>1827</ele>
        <time>2010-01-01T09:10:51Z</time>
      </trkpt>
      <trkpt lat="42.91485" lon="-0.14066">
        <ele>1819</ele>
        <time>2010-01-01T09:11:02Z</time>
      </trkpt>
      <trkpt lat="42.91466" lon="-0.14057">
        <ele>1812</ele>
        <time>2010-01-01T09:11:10Z</time>
      </trkpt>
      <trkpt lat="42.91443" lon="-0.14073">
        <ele>1809</ele>
        <time>2010-01-01T09:11:21Z</time>
      </trkpt>
      <trkpt lat="42.91429" lon="-0.14124">
        <ele>1825</ele>
        <time>2010-01-01T09:11:37Z</time>
      </trkpt>
      <trkpt lat="42.91421" lon="-0.14068">
        <ele>1806</ele>
        <time>2010-01-01T09:11:54Z</time>
      </trkpt>
      <trkpt lat="42.91397" lon="-0.1416">
        <ele>1800</ele>
        <time>2010-01-01T09:12:22Z</time>
      </trkpt>
      <trkpt lat="42.91384" lon="-0.14217">
        <ele>1800</ele>
        <time>2010-01-01T09:12:40Z</time>
      </trkpt>
      <trkpt lat="42.91368" lon="-0.14232">
        <ele>1794</ele>
        <time>2010-01-01T09:12:47Z</time>
      </trkpt>
      <trkpt lat="42.91358" lon="-0.14255">
        <ele>1794</ele>
        <time>2010-01-01T09:12:55Z</time>
      </trkpt>
      <trkpt lat="42.91362" lon="-0.14188">
        <ele>1789</ele>
        <time>2010-01-01T09:13:15Z</time>
      </trkpt>
      <trkpt lat="42.91361" lon="-0.14105">
        <ele>1778</ele>
        <time>2010-01-01T09:13:39Z</time>
      </trkpt>
      <trkpt lat="42.91356" lon="-0.14044">
        <ele>1765</ele>
        <time>2010-01-01T09:13:57Z</time>
      </trkpt>
      <trkpt lat="42.91371" lon="-0.13979">
        <ele>1754</ele>
        <time>2010-01-01T09:14:17Z</time>
      </trkpt>
      <trkpt lat="42.91335" lon="-0.14014">
        <ele>1752</ele>
        <time>2010-01-01T09:14:35Z</time>
      </trkpt>
      <trkpt lat="42.91302" lon="-0.14066">
        <ele>1728</ele>
        <time>2010-01-01T09:14:55Z</time>
      </trkpt>
      <trkpt lat="42.91307" lon="-0.1398">
        <ele>1716</ele>
        <time>2010-01-01T09:15:20Z</time>
      </trkpt>
      <trkpt lat="42.91325" lon="-0.13907">
        <ele>1713</ele>
        <time>2010-01-01T09:15:43Z</time>
      </trkpt>
      <trkpt lat="42.91306" lon="-0.13812">
        <ele>1694</ele>
        <time>2010-01-01T09:16:12Z</time>
      </trkpt>
      <trkpt lat="42.91307" lon="-0.13747">
        <ele>1683</ele>
        <time>2010-01-01T09:16:31Z</time>
      </trkpt>
      <trkpt lat="42.91321" lon="-0.13675">
        <ele>1677</ele>
        <time>2010-01-01T09:16:53Z</time>
      </trkpt>
      <trkpt lat="42.91275" lon="-0.13727">
        <ele>1670</ele>
        <time>2010-01-01T09:17:17Z</time>
      </trkpt>
      <trkpt lat="42.91244" lon="-0.13795">
        <ele>1646</ele>
        <time>2010-01-01T09:17:40Z</time>
      </trkpt>
      <trkpt lat="42.91201" lon="-0.13911">
        <ele>1648</ele>
        <time>2010-01-01T09:18:18Z</time>
      </trkpt>
      <trkpt lat="42.91156" lon="-0.14022">
        <ele>1633</ele>
        <time>2010-01-01T09:18:55Z</time>
      </trkpt>
      <trkpt lat="42.91157" lon="-0.13955">
        <ele>1622</ele>
        <time>2010-01-01T09:19:15Z</time>
      </trkpt>
      <trkpt lat="42.91126" lon="-0.14029">
        <ele>1626</ele>
        <time>2010-01-01T09:19:40Z</time>
      </trkpt>
      <trkpt lat="42.91119" lon="-0.13925">
        <ele>1612</ele>
        <time>2010-01-01T09:20:11Z</time>
      </trkpt>
      <trkpt lat="42.91079" lon="-0.13968">
        <ele>1601</ele>
        <time>2010-01-01T09:20:31Z</time>
      </trkpt>
      <trkpt lat="42.91052" lon="-0.13876">
        <ele>1587</ele>
        <time>2010-01-01T09:21:00Z</time>
      </trkpt>
      <trkpt lat="42.91039" lon="-0.13886">
        <ele>1589</ele>
        <time>2010-01-01T09:21:06Z</time>
      </trkpt>
      <trkpt lat="42.91002" lon="-0.1373">
        <ele>1556</ele>
        <time>2010-01-01T09:21:54Z</time>
      </trkpt>
      <trkpt lat="42.90958" lon="-0.13609">
        <ele>1548</ele>
        <time>2010-01-01T09:22:34Z</time>
      </trkpt>
      <trkpt lat="42.90898" lon="-0.13484">
        <ele>1527</ele>
        <time>2010-01-01T09:23:18Z</time>
      </trkpt>
      <trkpt lat="42.90846" lon="-0.13393">
        <ele>1497</ele>
        <time>2010-01-01T09:23:52Z</time>
      </trkpt>
      <trkpt lat="42.90782" lon="-0.13335">
        <ele>1502</ele>
        <time>2010-01-01T09:24:22Z</time>
      </trkpt>
      <trkpt lat="42.90714" lon="-0.13324">
        <ele>1478</ele>
        <time>2010-01-01T09:24:50Z</time>
      </trkpt>
      <trkpt lat="42.90632" lon="-0.13313">
        <ele>1471</ele>
        <time>2010-01-01T09:25:23Z</time>
      </trkpt>
      <trkpt lat="42.90545" lon="-0.13277">
        <ele>1470</ele>
        <time>2010-01-01T09:25:59Z</time>
      </trkpt>
      <trkpt lat="42.90523" lon="-0.13281">
        <ele>1472</ele>
        <time>2010-01-01T09:26:08Z</time>
      </trkpt>
      <trkpt lat="42.90517" lon="-0.13251">
        <ele>1469</ele>
        <time>2010-01-01T09:26:17Z</time>
      </trkpt>
      <trkpt lat="42.90484" lon="-0.13213">
        <ele>1482</ele>
        <time>2010-01-01T09:26:34Z</time>
      </trkpt>
      <trkpt lat="42.90484" lon="-0.13138">
        <ele>1476</ele>
        <time>2010-01-01T09:26:56Z</time>
      </trkpt>
      <trkpt lat="42.90449" lon="-0.12991">
        <ele>1462</ele>
        <time>2010-01-01T09:27:42Z</time>
      </trkpt>
      <trkpt lat="42.90403" lon="-0.12889">
        <ele>1463</ele>
        <time>2010-01-01T09:28:17Z</time>
      </trkpt>
      <trkpt lat="42.90353" lon="-0.12796">
        <ele>1439</ele>
        <time>2010-01-01T09:28:51Z</time>
      </trkpt>
      <trkpt lat="42.90418" lon="-0.12846">
        <ele>1435</ele>
        <time>2010-01-01T09:29:21Z</time>
      </trkpt>
      <trkpt lat="42.90377" lon="-0.1275">
        <ele>1412</ele>
        <time>2010-01-01T09:29:53Z</time>
      </trkpt>
      <trkpt lat="42.90431" lon="-0.1266">
        <ele>1373</ele>
        <time>2010-01-01T09:30:28Z</time>
      </trkpt>
      <trkpt lat="42.90396" lon="-0.12671">
        <ele>1397</ele>
        <time>2010-01-01T09:30:42Z</time>
      </trkpt>
      <trkpt lat="42.90423" lon="-0.12635">
        <ele>1368</ele>
        <time>2010-01-01T09:30:57Z</time>
      </trkpt>
      <trkpt lat="42.90451" lon="-0.1261">
        <ele>1361</ele>
        <time>2010-01-01T09:31:11Z</time>
      </trkpt>
      <trkpt lat="42.90436" lon="-0.12575">
        <ele>1343</ele>
        <time>2010-01-01T09:31:23Z</time>
      </trkpt>
      <trkpt lat="42.90407" lon="-0.12593">
        <ele>1369</ele>
        <time>2010-01-01T09:31:36Z</time>
      </trkpt>
      <trkpt lat="42.90401" lon="-0.12518">
        <ele>1344</ele>
        <time>2010-01-01T09:31:58Z</time>
      </trkpt>
      <trkpt lat="42.90343" lon="-0.12431">
        <ele>1326</ele>
        <time>2010-01-01T09:32:32Z</time>
      </trkpt>
      <trkpt lat="42.90417" lon="-0.12465">
        <ele>1303</ele>
        <time>2010-01-01T09:33:04Z</time>
      </trkpt>
      <trkpt lat="42.90342" lon="-0.12336">
        <ele>1293</ele>
        <time>2010-01-01T09:33:52Z</time>
      </trkpt>
      <trkpt lat="42.90261" lon="-0.12228">
        <ele>1267</ele>
        <time>2010-01-01T09:34:37Z</time>
      </trkpt>
      <trkpt lat="42.9021" lon="-0.1221">
        <ele>1284</ele>
        <time>2010-01-01T09:34:59Z</time>
      </trkpt>
      <trkpt lat="42.90176" lon="-0.12098">
        <ele>1242</ele>
        <time>2010-01-01T09:35:34Z</time>
      </trkpt>
      <trkpt lat="42.90098" lon="-0.12024">
        <ele>1232</ele>
        <time>2010-01-01T09:36:12Z</time>
      </trkpt>
      <trkpt lat="42.90011" lon="-0.11985">
        <ele>1212</ele>
        <time>2010-01-01T09:36:49Z</time>
      </trkpt>
      <trkpt lat="42.90071" lon="-0.11968">
        <ele>1204</ele>
        <time>2010-01-01T09:37:14Z</time>
      </trkpt>
      <trkpt lat="42.90161" lon="-0.11983">
        <ele>1194</ele>
        <time>2010-01-01T09:37:50Z</time>
      </trkpt>
      <trkpt lat="42.90233" lon="-0.12031">
        <ele>1195</ele>
        <time>2010-01-01T09:38:22Z</time>
      </trkpt>
      <trkpt lat="42.90175" lon="-0.11952">
        <ele>1171</ele>
        <time>2010-01-01T09:38:54Z</time>
      </trkpt>
      <trkpt lat="42.90145" lon="-0.11924">
        <ele>1180</ele>
        <time>2010-01-01T09:39:09Z</time>
      </trkpt>
      <trkpt lat="42.90077" lon="-0.11881">
        <ele>1157</ele>
        <time>2010-01-01T09:39:39Z</time>
      </trkpt>
      <trkpt lat="42.90015" lon="-0.11861">
        <ele>1149</ele>
        <time>2010-01-01T09:40:05Z</time>
      </trkpt>
      <trkpt lat="42.89881" lon="-0.11902">
        <ele>1128</ele>
        <time>2010-01-01T09:40:59Z</time>
      </trkpt>
      <trkpt lat="42.89957" lon="-0.11848">
        <ele>1135</ele>
        <time>2010-01-01T09:41:33Z</time>
      </trkpt>
      <trkpt lat="42.90012" lon="-0.1178">
        <ele>1112</ele>
        <time>2010-01-01T09:42:04Z</time>
      </trkpt>
      <trkpt lat="42.9008" lon="-0.11719">
        <ele>1092</ele>
        <time>2010-01-01T09:42:36Z</time>
      </trkpt>
      <trkpt lat="42.90049" lon="-0.11733">
        <ele>1091</ele>
        <time>2010-01-01T09:42:49Z</time>
      </trkpt>
      <trkpt lat="42.90061" lon="-0.11704">
        <ele>1086</ele>
        <time>2010-01-01T09:42:59Z</time>
      </trkpt>
      <trkpt lat="42.90004" lon="-0.11722">
        <ele>1086</ele>
        <time>2010-01-01T09:43:22Z</time>
      </trkpt>
      <trkpt lat="42.90025" lon="-0.11689">
        <ele>1078</ele>
        <time>2010-01-01T09:43:35Z</time>
      </trkpt>
      <trkpt lat="42.89946" lon="-0.11701">
        <ele>1064</ele>
        <time>2010-01-01T09:44:07Z</time>
      </trkpt>
      <trkpt lat="42.89879" lon="-0.11676">
        <ele>1048</ele>
        <time>2010-01-01T09:44:35Z</time>
      </trkpt>
      <trkpt lat="42.89794" lon="-0.11725">
        <ele>1039</ele>
        <time>2010-01-01T09:45:11Z</time>
      </trkpt>
      <trkpt lat="42.89767" lon="-0.11691">
        <ele>1025</ele>
        <time>2010-01-01T09:45:26Z</time>
      </trkpt>
      <trkpt lat="42.89709" lon="-0.11705">
        <ele>1014</ele>
        <time>2010-01-01T09:45:50Z</time>
      </trkpt>
      <trkpt lat="42.89619" lon="-0.11705">
        <ele>995</ele>
        <time>2010-01-01T09:46:26Z</time>
      </trkpt>
      <trkpt lat="42.89618" lon="-0.11681">
        <ele>989</ele>
        <time>2010-01-01T09:46:33Z</time>
      </trkpt>
      <trkpt lat="42.89586" lon="-0.11677">
        <ele>978</ele>
        <time>2010-01-01T09:46:45Z</time>
      </trkpt>
      <trkpt lat="42.89588" lon="-0.11646">
        <ele>968</ele>
        <time>2010-01-01T09:46:54Z</time>
      </trkpt>
      <trkpt lat="42.89642" lon="-0.116">
        <ele>965</ele>
        <time>2010-01-01T09:47:20Z</time>
      </trkpt>
      <trkpt lat="42.89623" lon="-0.11529">
        <ele>961</ele>
        <time>2010-01-01T09:47:42Z</time>
      </trkpt>
      <trkpt lat="42.89534" lon="-0.1157">
        <ele>959</ele>
        <time>2010-01-01T09:48:20Z</time>
      </trkpt>
      <trkpt lat="42.89485" lon="-0.11642">
        <ele>953</ele>
        <time>2010-01-01T09:48:49Z</time>
      </trkpt>
      <trkpt lat="42.89445" lon="-0.1168">
        <ele>960</ele>
        <time>2010-01-01T09:49:08Z</time>
      </trkpt>
      <trkpt lat="42.89377" lon="-0.1172">
        <ele>958</ele>
        <time>2010-01-01T09:49:38Z</time>
      </trkpt>
      <trkpt lat="42.8924" lon="-0.11723">
        <ele>949</ele>
        <time>2010-01-01T09:50:33Z</time>
      </trkpt>
      <trkpt lat="42.89164" lon="-0.11705">
        <ele>944</ele>
        <time>2010-01-01T09:51:03Z</time>
      </trkpt>
      <trkpt lat="42.891" lon="-0.11707">
        <ele>943</ele>
        <time>2010-01-01T09:51:29Z</time>
      </trkpt>
      <trkpt lat="42.89008" lon="-0.11696">
        <ele>942</ele>
        <time>2010-01-01T09:52:06Z</time>
      </trkpt>
      <trkpt lat="42.8895" lon="-0.1168">
        <ele>945</ele>
        <time>2010-01-01T09:52:30Z</time>
      </trkpt>
      <trkpt lat="42.8889" lon="-0.11669">
        <ele>952</ele>
        <time>2010-01-01T09:52:54Z</time>
      </trkpt>
      <trkpt lat="42.88831" lon="-0.11608">
        <ele>946</ele>
        <time>2010-01-01T09:53:24Z</time>
      </trkpt>
      <trkpt lat="42.88848" lon="-0.11538">
        <ele>932</ele>
        <time>2010-01-01T09:53:45Z</time>
      </trkpt>
      <trkpt lat="42.88858" lon="-0.11475">
        <ele>931</ele>
        <time>2010-01-01T09:54:04Z</time>
      </trkpt>
      <trkpt lat="42.88843" lon="-0.11367">
        <ele>935</ele>
        <time>2010-01-01T09:54:37Z</time>
      </trkpt>
      <trkpt lat="42.88824" lon="-0.11287">
        <ele>944</ele>
        <time>2010-01-01T09:55:01Z</time>
      </trkpt>
      <trkpt lat="42.88905" lon="-0.11243">
        <ele>944</ele>
        <time>2010-01-01T09:55:36Z</time>
      </trkpt>
      <trkpt lat="42.88945" lon="-0.11248">
        <ele>941</ele>
        <time>2010-01-01T09:55:52Z</time>
      </trkpt>
      <trkpt lat="42.88981" lon="-0.11255">
        <ele>934</ele>
        <time>2010-01-01T09:56:06Z</time>
      </trkpt>
      <trkpt lat="42.89017" lon="-0.11261">
        <ele>932</ele>
        <time>2010-01-01T09:56:21Z</time>
      </trkpt>
      <trkpt lat="42.89066" lon="-0.11264">
        <ele>932</ele>
        <time>2010-01-01T09:56:41Z</time>
      </trkpt>
      <trkpt lat="42.89067" lon="-0.11242">
        <ele>939</ele>
        <time>2010-01-01T09:56:47Z</time>
      </trkpt>
      <trkpt lat="42.89041" lon="-0.11214">
        <ele>942</ele>
        <time>2010-01-01T09:57:01Z</time>
      </trkpt>
      <trkpt lat="42.89048" lon="-0.11165">
        <ele>956</ele>
        <time>2010-01-01T09:57:15Z</time>
      </trkpt>
      <trkpt lat="42.89025" lon="-0.11121">
        <ele>961</ele>
        <time>2010-01-01T09:57:31Z</time>
      </trkpt>
      <trkpt lat="42.89026" lon="-0.11085">
        <ele>966</ele>
        <time>2010-01-01T09:57:42Z</time>
      </trkpt>
      <trkpt lat="42.89081" lon="-0.11029">
        <ele>986</ele>
        <time>2010-01-01T09:58:09Z</time>
      </trkpt>
      <trkpt lat="42.89099" lon="-0.10999">
        <ele>995</ele>
        <time>2010-01-01T09:58:21Z</time>
      </trkpt>
      <trkpt lat="42.89093" lon="-0.10972">
        <ele>998</ele>
        <time>2010-01-01T09:58:29Z</time>
      </trkpt>
      <trkpt lat="42.89145" lon="-0.10882">
        <ele>1018</ele>
        <time>2010-01-01T09:59:03Z</time>
      </trkpt>
      <trkpt lat="42.89193" lon="-0.10823">
        <ele>1027</ele>
        <time>2010-01-01T09:59:29Z</time>
      </trkpt>
      <trkpt lat="42.89181" lon="-0.10771">
        <ele>1035</ele>
        <time>2010-01-01T09:59:45Z</time>
      </trkpt>
      <trkpt lat="42.89203" lon="-0.10712">
        <ele>1054</ele>
        <time>2010-01-01T10:00:04Z</time>
      </trkpt>
      <trkpt lat="42.89252" lon="-0.10727">
        <ele>1042</ele>
        <time>2010-01-01T10:00:25Z</time>
      </trkpt>
      <trkpt lat="42.89281" lon="-0.10723">
        <ele>1041</ele>
        <time>2010-01-01T10:00:36Z</time>
      </trkpt>
      <trkpt lat="42.89322" lon="-0.10628">
        <ele>1051</ele>
        <time>2010-01-01T10:01:08Z</time>
      </trkpt>
      <trkpt lat="42.89307" lon="-0.10554">
        <ele>1069</ele>
        <time>2010-01-01T10:01:31Z</time>
      </trkpt>
      <trkpt lat="42.89364" lon="-0.10537">
        <ele>1052</ele>
        <time>2010-01-01T10:01:54Z</time>
      </trkpt>
      <trkpt lat="42.89469" lon="-0.10521">
        <ele>1040</ele>
        <time>2010-01-01T10:02:36Z</time>
      </trkpt>
      <trkpt lat="42.89521" lon="-0.10455">
        <ele>1050</ele>
        <time>2010-01-01T10:03:05Z</time>
      </trkpt>
      <trkpt lat="42.89624" lon="-0.10343">
        <ele>1067</ele>
        <time>2010-01-01T10:03:58Z</time>
      </trkpt>
      <trkpt lat="42.89538" lon="-0.10382">
        <ele>1082</ele>
        <time>2010-01-01T10:04:34Z</time>
      </trkpt>
      <trkpt lat="42.89417" lon="-0.10463">
        <ele>1070</ele>
        <time>2010-01-01T10:05:28Z</time>
      </trkpt>
      <trkpt lat="42.89354" lon="-0.10494">
        <ele>1075</ele>
        <time>2010-01-01T10:05:55Z</time>
      </trkpt>
      <trkpt lat="42.89422" lon="-0.10429">
        <ele>1082</ele>
        <time>2010-01-01T10:06:29Z</time>
      </trkpt>
      <trkpt lat="42.8953" lon="-0.10327">
        <ele>1121</ele>
        <time>2010-01-01T10:07:21Z</time>
      </trkpt>
      <trkpt lat="42.89588" lon="-0.10259">
        <ele>1121</ele>
        <time>2010-01-01T10:07:52Z</time>
      </trkpt>
      <trkpt lat="42.89627" lon="-0.10218">
        <ele>1140</ele>
        <time>2010-01-01T10:08:11Z</time>
      </trkpt>
      <trkpt lat="42.89697" lon="-0.10224">
        <ele>1127</ele>
        <time>2010-01-01T10:08:39Z</time>
      </trkpt>
      <trkpt lat="42.89677" lon="-0.10199">
        <ele>1134</ele>
        <time>2010-01-01T10:08:50Z</time>
      </trkpt>
      <trkpt lat="42.89588" lon="-0.10183">
        <ele>1159</ele>
        <time>2010-01-01T10:09:26Z</time>
      </trkpt>
      <trkpt lat="42.89538" lon="-0.10205">
        <ele>1167</ele>
        <time>2010-01-01T10:09:47Z</time>
      </trkpt>
      <trkpt lat="42.89498" lon="-0.10249">
        <ele>1164</ele>
        <time>2010-01-01T10:10:08Z</time>
      </trkpt>
      <trkpt lat="42.89404" lon="-0.10264">
        <ele>1157</ele>
        <time>2010-01-01T10:10:46Z</time>
      </trkpt>
      <trkpt lat="42.8945" lon="-0.10214">
        <ele>1181</ele>
        <time>2010-01-01T10:11:09Z</time>
      </trkpt>
      <trkpt lat="42.89507" lon="-0.10176">
        <ele>1185</ele>
        <time>2010-01-01T10:11:35Z</time>
      </trkpt>
      <trkpt lat="42.89562" lon="-0.10133">
        <ele>1201</ele>
        <time>2010-01-01T10:12:00Z</time>
      </trkpt>
      <trkpt lat="42.89602" lon="-0.10064">
        <ele>1221</ele>
        <time>2010-01-01T10:12:26Z</time>
      </trkpt>
      <trkpt lat="42.89656" lon="-0.1003">
        <ele>1226</ele>
        <time>2010-01-01T10:12:50Z</time>
      </trkpt>
      <trkpt lat="42.8972" lon="-0.10014">
        <ele>1215</ele>
        <time>2010-01-01T10:13:16Z</time>
      </trkpt>
      <trkpt lat="42.8978" lon="-0.10001">
        <ele>1206</ele>
        <time>2010-01-01T10:13:40Z</time>
      </trkpt>
      <trkpt lat="42.89806" lon="-0.0996">
        <ele>1225</ele>
        <time>2010-01-01T10:13:56Z</time>
      </trkpt>
      <trkpt lat="42.89889" lon="-0.09786">
        <ele>1256</ele>
        <time>2010-01-01T10:14:57Z</time>
      </trkpt>
      <trkpt lat="42.89927" lon="-0.09699">
        <ele>1264</ele>
        <time>2010-01-01T10:15:27Z</time>
      </trkpt>
      <trkpt lat="42.89885" lon="-0.09752">
        <ele>1260</ele>
        <time>2010-01-01T10:15:49Z</time>
      </trkpt>
      <trkpt lat="42.89796" lon="-0.09819">
        <ele>1284</ele>
        <time>2010-01-01T10:16:30Z</time>
      </trkpt>
      <trkpt lat="42.89813" lon="-0.09743">
        <ele>1307</ele>
        <time>2010-01-01T10:16:53Z</time>
      </trkpt>
      <trkpt lat="42.89853" lon="-0.09681">
        <ele>1301</ele>
        <time>2010-01-01T10:17:18Z</time>
      </trkpt>
      <trkpt lat="42.89842" lon="-0.09668">
        <ele>1311</ele>
        <time>2010-01-01T10:17:23Z</time>
      </trkpt>
      <trkpt lat="42.89895" lon="-0.09615">
        <ele>1321</ele>
        <time>2010-01-01T10:17:50Z</time>
      </trkpt>
      <trkpt lat="42.8993" lon="-0.09537">
        <ele>1313</ele>
        <time>2010-01-01T10:18:17Z</time>
      </trkpt>
      <trkpt lat="42.89904" lon="-0.0949">
        <ele>1357</ele>
        <time>2010-01-01T10:18:34Z</time>
      </trkpt>
      <trkpt lat="42.89912" lon="-0.09466">
        <ele>1366</ele>
        <time>2010-01-01T10:18:41Z</time>
      </trkpt>
      <trkpt lat="42.89928" lon="-0.09442">
        <ele>1339</ele>
        <time>2010-01-01T10:18:51Z</time>
      </trkpt>
      <trkpt lat="42.89948" lon="-0.09339">
        <ele>1353</ele>
        <time>2010-01-01T10:19:22Z</time>
      </trkpt>
      <trkpt lat="42.89944" lon="-0.09156">
        <ele>1378</ele>
        <time>2010-01-01T10:20:16Z</time>
      </trkpt>
      <trkpt lat="42.89918" lon="-0.0898">
        <ele>1397</ele>
        <time>2010-01-01T10:21:08Z</time>
      </trkpt>
      <trkpt lat="42.89896" lon="-0.08894">
        <ele>1438</ele>
        <time>2010-01-01T10:21:35Z</time>
      </trkpt>
      <trkpt lat="42.89886" lon="-0.08921">
        <ele>1438</ele>
        <time>2010-01-01T10:21:44Z</time>
      </trkpt>
      <trkpt lat="42.89874" lon="-0.08875">
        <ele>1449</ele>
        <time>2010-01-01T10:21:59Z</time>
      </trkpt>
      <trkpt lat="42.89859" lon="-0.08926">
        <ele>1453</ele>
        <time>2010-01-01T10:22:15Z</time>
      </trkpt>
      <trkpt lat="42.89852" lon="-0.08849">
        <ele>1459</ele>
        <time>2010-01-01T10:22:38Z</time>
      </trkpt>
      <trkpt lat="42.89821" lon="-0.08909">
        <ele>1489</ele>
        <time>2010-01-01T10:22:59Z</time>
      </trkpt>
      <trkpt lat="42.89817" lon="-0.08796">
        <ele>1501</ele>
        <time>2010-01-01T10:23:32Z</time>
      </trkpt>
      <trkpt lat="42.89843" lon="-0.08721">
        <ele>1479</ele>
        <time>2010-01-01T10:23:57Z</time>
      </trkpt>
      <trkpt lat="42.89806" lon="-0.08667">
        <ele>1506</ele>
        <time>2010-01-01T10:24:18Z</time>
      </trkpt>
      <trkpt lat="42.89738" lon="-0.086">
        <ele>1544</ele>
        <time>2010-01-01T10:24:52Z</time>
      </trkpt>
      <trkpt lat="42.89755" lon="-0.08558">
        <ele>1525</ele>
        <time>2010-01-01T10:25:06Z</time>
      </trkpt>
      <trkpt lat="42.89782" lon="-0.08504">
        <ele>1526</ele>
        <time>2010-01-01T10:25:25Z</time>
      </trkpt>
      <trkpt lat="42.89768" lon="-0.08488">
        <ele>1540</ele>
        <time>2010-01-01T10:25:33Z</time>
      </trkpt>
      <trkpt lat="42.89776" lon="-0.08418">
        <ele>1547</ele>
        <time>2010-01-01T10:25:53Z</time>
      </trkpt>
      <trkpt lat="42.89796" lon="-0.08318">
        <ele>1574</ele>
        <time>2010-01-01T10:26:24Z</time>
      </trkpt>
      <trkpt lat="42.89735" lon="-0.08346">
        <ele>1583</ele>
        <time>2010-01-01T10:26:50Z</time>
      </trkpt>
      <trkpt lat="42.89692" lon="-0.08378">
        <ele>1589</ele>
        <time>2010-01-01T10:27:09Z</time>
      </trkpt>
      <trkpt lat="42.89724" lon="-0.08318">
        <ele>1596</ele>
        <time>2010-01-01T10:27:31Z</time>
      </trkpt>
      <trkpt lat="42.89768" lon="-0.08265">
        <ele>1588</ele>
        <time>2010-01-01T10:27:55Z</time>
      </trkpt>
      <trkpt lat="42.898" lon="-0.08223">
        <ele>1593</ele>
        <time>2010-01-01T10:28:12Z</time>
      </trkpt>
      <trkpt lat="42.8977" lon="-0.08228">
        <ele>1598</ele>
        <time>2010-01-01T10:28:24Z</time>
      </trkpt>
      <trkpt lat="42.89742" lon="-0.08234">
        <ele>1608</ele>
        <time>2010-01-01T10:28:36Z</time>
      </trkpt>
      <trkpt lat="42.89697" lon="-0.08256">
        <ele>1608</ele>
        <time>2010-01-01T10:28:55Z</time>
      </trkpt>
      <trkpt lat="42.8964" lon="-0.08295">
        <ele>1624</ele>
        <time>2010-01-01T10:29:20Z</time>
      </trkpt>
      <trkpt lat="42.89603" lon="-0.0831">
        <ele>1629</ele>
        <time>2010-01-01T10:29:36Z</time>
      </trkpt>
      <trkpt lat="42.89586" lon="-0.08276">
        <ele>1631</ele>
        <time>2010-01-01T10:29:48Z</time>
      </trkpt>
      <trkpt lat="42.89623" lon="-0.08216">
        <ele>1633</ele>
        <time>2010-01-01T10:30:11Z</time>
      </trkpt>
      <trkpt lat="42.89602" lon="-0.08082">
        <ele>1652</ele>
        <time>2010-01-01T10:30:51Z</time>
      </trkpt>
      <trkpt lat="42.89579" lon="-0.08013">
        <ele>1674</ele>
        <time>2010-01-01T10:31:14Z</time>
      </trkpt>
      <trkpt lat="42.89619" lon="-0.07907">
        <ele>1683</ele>
        <time>2010-01-01T10:31:49Z</time>
      </trkpt>
      <trkpt lat="42.89641" lon="-0.07838">
        <ele>1687</ele>
        <time>2010-01-01T10:32:11Z</time>
      </trkpt>
      <trkpt lat="42.89668" lon="-0.0779">
        <ele>1695</ele>
        <time>2010-01-01T10:32:28Z</time>
      </trkpt>
      <trkpt lat="42.89604" lon="-0.07794">
        <ele>1710</ele>
        <time>2010-01-01T10:32:54Z</time>
      </trkpt>
      <trkpt lat="42.89537" lon="-0.07837">
        <ele>1716</ele>
        <time>2010-01-01T10:33:24Z</time>
      </trkpt>
      <trkpt lat="42.89497" lon="-0.07871">
        <ele>1747</ele>
        <time>2010-01-01T10:33:43Z</time>
      </trkpt>
      <trkpt lat="42.89519" lon="-0.0776">
        <ele>1745</ele>
        <time>2010-01-01T10:34:17Z</time>
      </trkpt>
      <trkpt lat="42.89591" lon="-0.07652">
        <ele>1758</ele>
        <time>2010-01-01T10:35:00Z</time>
      </trkpt>
      <trkpt lat="42.89663" lon="-0.07564">
        <ele>1781</ele>
        <time>2010-01-01T10:35:38Z</time>
      </trkpt>
      <trkpt lat="42.89556" lon="-0.07594">
        <ele>1787</ele>
        <time>2010-01-01T10:36:22Z</time>
      </trkpt>
      <trkpt lat="42.8964" lon="-0.07487">
        <ele>1823</ele>
        <time>2010-01-01T10:37:08Z</time>
      </trkpt>
      <trkpt lat="42.89593" lon="-0.07485">
        <ele>1830</ele>
        <time>2010-01-01T10:37:27Z</time>
      </trkpt>
      <trkpt lat="42.89543" lon="-0.07518">
        <ele>1826</ele>
        <time>2010-01-01T10:37:49Z</time>
      </trkpt>
      <trkpt lat="42.89598" lon="-0.07438">
        <ele>1844</ele>
        <time>2010-01-01T10:38:21Z</time>
      </trkpt>
      <trkpt lat="42.89662" lon="-0.0737">
        <ele>1870</ele>
        <time>2010-01-01T10:38:53Z</time>
      </trkpt>
      <trkpt lat="42.8963" lon="-0.07369">
        <ele>1874</ele>
        <time>2010-01-01T10:39:06Z</time>
      </trkpt>
      <trkpt lat="42.897" lon="-0.07331">
        <ele>1898</ele>
        <time>2010-01-01T10:39:36Z</time>
      </trkpt>
      <trkpt lat="42.89668" lon="-0.07323">
        <ele>1890</ele>
        <time>2010-01-01T10:39:49Z</time>
      </trkpt>
      <trkpt lat="42.8968" lon="-0.07308">
        <ele>1899</ele>
        <time>2010-01-01T10:39:56Z</time>
      </trkpt>
      <trkpt lat="42.89644" lon="-0.07306">
        <ele>1903</ele>
        <time>2010-01-01T10:40:10Z</time>
      </trkpt>
      <trkpt lat="42.89697" lon="-0.0729">
        <ele>1906</ele>
        <time>2010-01-01T10:40:32Z</time>
      </trkpt>
      <trkpt lat="42.89668" lon="-0.07262">
        <ele>1911</ele>
        <time>2010-01-01T10:40:46Z</time>
      </trkpt>
      <trkpt lat="42.89637" lon="-0.07268">
        <ele>1911</ele>
        <time>2010-01-01T10:40:58Z</time>
      </trkpt>
      <trkpt lat="42.89654" lon="-0.07249">
        <ele>1922</ele>
        <time>2010-01-01T10:41:07Z</time>
      </trkpt>
      <trkpt lat="42.89665" lon="-0.07235">
        <ele>1923</ele>
        <time>2010-01-01T10:41:13Z</time>
      </trkpt>
      <trkpt lat="42.89668" lon="-0.07222">
        <ele>1930</ele>
        <time>2010-01-01T10:41:17Z</time>
      </trkpt>
      <trkpt lat="42.89641" lon="-0.07221">
        <ele>1929</ele>
        <time>2010-01-01T10:41:28Z</time>
      </trkpt>
      <trkpt lat="42.8968" lon="-0.07198">
        <ele>1936</ele>
        <time>2010-01-01T10:41:45Z</time>
      </trkpt>
      <trkpt lat="42.89638" lon="-0.0719">
        <ele>1934</ele>
        <time>2010-01-01T10:42:02Z</time>
      </trkpt>
      <trkpt lat="42.89654" lon="-0.07163">
        <ele>1940</ele>
        <time>2010-01-01T10:42:12Z</time>
      </trkpt>
      <trkpt lat="42.89649" lon="-0.07139">
        <ele>1942</ele>
        <time>2010-01-01T10:42:20Z</time>
      </trkpt>
      <trkpt lat="42.89642" lon="-0.07114">
        <ele>1944</ele>
        <time>2010-01-01T10:42:28Z</time>
      </trkpt>
      <trkpt lat="42.89629" lon="-0.07083">
        <ele>1939</ele>
        <time>2010-01-01T10:42:38Z</time>
      </trkpt>
      <trkpt lat="42.89483" lon="-0.0712">
        <ele>1932</ele>
        <time>2010-01-01T10:43:38Z</time>
      </trkpt>
      <trkpt lat="42.89395" lon="-0.07142">
        <ele>1930</ele>
        <time>2010-01-01T10:44:13Z</time>
      </trkpt>
      <trkpt lat="42.89318" lon="-0.07114">
        <ele>1920</ele>
        <time>2010-01-01T10:44:45Z</time>
      </trkpt>
      <trkpt lat="42.89249" lon="-0.07182">
        <ele>1932</ele>
        <time>2010-01-01T10:45:19Z</time>
      </trkpt>
      <trkpt lat="42.89194" lon="-0.07097">
        <ele>1922</ele>
        <time>2010-01-01T10:45:52Z</time>
      </trkpt>
      <trkpt lat="42.89151" lon="-0.06981">
        <ele>1910</ele>
        <time>2010-01-01T10:46:30Z</time>
      </trkpt>
      <trkpt lat="42.89121" lon="-0.0686">
        <ele>1903</ele>
        <time>2010-01-01T10:47:08Z</time>
      </trkpt>
      <trkpt lat="42.89128" lon="-0.0676">
        <ele>1897</ele>
        <time>2010-01-01T10:47:38Z</time>
      </trkpt>
      <trkpt lat="42.89185" lon="-0.06649">
        <ele>1872</ele>
        <time>2010-01-01T10:48:17Z</time>
      </trkpt>
      <trkpt lat="42.89119" lon="-0.06481">
        <ele>1856</ele>
        <time>2010-01-01T10:49:13Z</time>
      </trkpt>
      <trkpt lat="42.89102" lon="-0.06444">
        <ele>1850</ele>
        <time>2010-01-01T10:49:26Z</time>
      </trkpt>
      <trkpt lat="42.88977" lon="-0.06494">
        <ele>1837</ele>
        <time>2010-01-01T10:50:18Z</time>
      </trkpt>
      <trkpt lat="42.88945" lon="-0.06517">
        <ele>1847</ele>
        <time>2010-01-01T10:50:32Z</time>
      </trkpt>
      <trkpt lat="42.88904" lon="-0.06537">
        <ele>1825</ele>
        <time>2010-01-01T10:50:50Z</time>
      </trkpt>
      <trkpt lat="42.88846" lon="-0.06547">
        <ele>1815</ele>
        <time>2010-01-01T10:51:13Z</time>
      </trkpt>
      <trkpt lat="42.88833" lon="-0.06494">
        <ele>1790</ele>
        <time>2010-01-01T10:51:30Z</time>
      </trkpt>
      <trkpt lat="42.88739" lon="-0.06407">
        <ele>1756</ele>
        <time>2010-01-01T10:52:15Z</time>
      </trkpt>
      <trkpt lat="42.88667" lon="-0.06377">
        <ele>1756</ele>
        <time>2010-01-01T10:52:45Z</time>
      </trkpt>
      <trkpt lat="42.88602" lon="-0.06389">
        <ele>1757</ele>
        <time>2010-01-01T10:53:11Z</time>
      </trkpt>
      <trkpt lat="42.88478" lon="-0.06384">
        <ele>1738</ele>
        <time>2010-01-01T10:54:01Z</time>
      </trkpt>
      <trkpt lat="42.88386" lon="-0.06373">
        <ele>1737</ele>
        <time>2010-01-01T10:54:38Z</time>
      </trkpt>
      <trkpt lat="42.88407" lon="-0.06287">
        <ele>1728</ele>
        <time>2010-01-01T10:55:05Z</time>
      </trkpt>
      <trkpt lat="42.88456" lon="-0.06229">
        <ele>1718</ele>
        <time>2010-01-01T10:55:31Z</time>
      </trkpt>
      <trkpt lat="42.88492" lon="-0.06108">
        <ele>1717</ele>
        <time>2010-01-01T10:56:09Z</time>
      </trkpt>
      <trkpt lat="42.88514" lon="-0.06144">
        <ele>1706.4394</ele>
        <time>2010-01-01T10:56:23Z</time>
      </trkpt>
      <trkpt lat="42.88519" lon="-0.06161">
        <ele>1703.3508</ele>
        <time>2010-01-01T10:56:28Z</time>
      </trkpt>
      <trkpt lat="42.88583" lon="-0.06126">
        <ele>1696.8634</ele>
        <time>2010-01-01T10:56:56Z</time>
      </trkpt>
      <trkpt lat="42.88671" lon="-0.0601">
        <ele>1667.2888</ele>
        <time>2010-01-01T10:57:45Z</time>
      </trkpt>
      <trkpt lat="42.8873" lon="-0.06036">
        <ele>1652.9636</ele>
        <time>2010-01-01T10:58:10Z</time>
      </trkpt>
      <trkpt lat="42.88735" lon="-0.06109">
        <ele>1660.223</ele>
        <time>2010-01-01T10:58:32Z</time>
      </trkpt>
      <trkpt lat="42.88818" lon="-0.06116">
        <ele>1650.8292</ele>
        <time>2010-01-01T10:59:05Z</time>
      </trkpt>
      <trkpt lat="42.88846" lon="-0.06018">
        <ele>1622.6224</ele>
        <time>2010-01-01T10:59:36Z</time>
      </trkpt>
      <trkpt lat="42.88836" lon="-0.05924">
        <ele>1594.4163</ele>
        <time>2010-01-01T11:00:04Z</time>
      </trkpt>
      <trkpt lat="42.8872" lon="-0.05867">
        <ele>1582.8527</ele>
        <time>2010-01-01T11:00:53Z</time>
      </trkpt>
      <trkpt lat="42.88781" lon="-0.05857">
        <ele>1573.5344</ele>
        <time>2010-01-01T11:01:18Z</time>
      </trkpt>
      <trkpt lat="42.88839" lon="-0.05875">
        <ele>1572.75</ele>
        <time>2010-01-01T11:01:42Z</time>
      </trkpt>
      <trkpt lat="42.88889" lon="-0.05864">
        <ele>1568.773</ele>
        <time>2010-01-01T11:02:02Z</time>
      </trkpt>
      <trkpt lat="42.88928" lon="-0.05844">
        <ele>1562.5292</ele>
        <time>2010-01-01T11:02:19Z</time>
      </trkpt>
      <trkpt lat="42.88966" lon="-0.05847">
        <ele>1567.6636</ele>
        <time>2010-01-01T11:02:34Z</time>
      </trkpt>
      <trkpt lat="42.89006" lon="-0.05805">
        <ele>1548.4954</ele>
        <time>2010-01-01T11:02:54Z</time>
      </trkpt>
      <trkpt lat="42.89065" lon="-0.0579">
        <ele>1550.3826</ele>
        <time>2010-01-01T11:03:18Z</time>
      </trkpt>
      <trkpt lat="42.89143" lon="-0.05735">
        <ele>1541.0574</ele>
        <time>2010-01-01T11:03:53Z</time>
      </trkpt>
      <trkpt lat="42.89058" lon="-0.05721">
        <ele>1521.2844</ele>
        <time>2010-01-01T11:04:28Z</time>
      </trkpt>
      <trkpt lat="42.89081" lon="-0.05637">
        <ele>1494.0035</ele>
        <time>2010-01-01T11:04:54Z</time>
      </trkpt>
      <trkpt lat="42.89118" lon="-0.05574">
        <ele>1479.3664</ele>
        <time>2010-01-01T11:05:18Z</time>
      </trkpt>
      <trkpt lat="42.89188" lon="-0.05527">
        <ele>1471.1263</ele>
        <time>2010-01-01T11:05:49Z</time>
      </trkpt>
      <trkpt lat="42.89208" lon="-0.0538">
        <ele>1441.8096</ele>
        <time>2010-01-01T11:06:33Z</time>
      </trkpt>
      <trkpt lat="42.89099" lon="-0.05371">
        <ele>1438.8769</ele>
        <time>2010-01-01T11:07:17Z</time>
      </trkpt>
      <trkpt lat="42.89152" lon="-0.05309">
        <ele>1451</ele>
        <time>2010-01-01T11:07:44Z</time>
      </trkpt>
      <trkpt lat="42.89204" lon="-0.05262">
        <ele>1437</ele>
        <time>2010-01-01T11:08:09Z</time>
      </trkpt>
      <trkpt lat="42.89287" lon="-0.0511">
        <ele>1434</ele>
        <time>2010-01-01T11:09:05Z</time>
      </trkpt>
      <trkpt lat="42.89371" lon="-0.05013">
        <ele>1424</ele>
        <time>2010-01-01T11:09:49Z</time>
      </trkpt>
      <trkpt lat="42.89446" lon="-0.04903">
        <ele>1411</ele>
        <time>2010-01-01T11:10:33Z</time>
      </trkpt>
      <trkpt lat="42.89493" lon="-0.04806">
        <ele>1398</ele>
        <time>2010-01-01T11:11:07Z</time>
      </trkpt>
      <trkpt lat="42.89474" lon="-0.04774">
        <ele>1397</ele>
        <time>2010-01-01T11:11:20Z</time>
      </trkpt>
      <trkpt lat="42.89489" lon="-0.0471">
        <ele>1380</ele>
        <time>2010-01-01T11:11:39Z</time>
      </trkpt>
      <trkpt lat="42.89468" lon="-0.04669">
        <ele>1380</ele>
        <time>2010-01-01T11:11:54Z</time>
      </trkpt>
      <trkpt lat="42.8951" lon="-0.04596">
        <ele>1354</ele>
        <time>2010-01-01T11:12:21Z</time>
      </trkpt>
      <trkpt lat="42.89485" lon="-0.04471">
        <ele>1346</ele>
        <time>2010-01-01T11:12:59Z</time>
      </trkpt>
      <trkpt lat="42.8951" lon="-0.04367">
        <ele>1322</ele>
        <time>2010-01-01T11:13:31Z</time>
      </trkpt>
      <trkpt lat="42.895" lon="-0.04248">
        <ele>1310</ele>
        <time>2010-01-01T11:14:06Z</time>
      </trkpt>
      <trkpt lat="42.89481" lon="-0.04191">
        <ele>1302</ele>
        <time>2010-01-01T11:14:25Z</time>
      </trkpt>
      <trkpt lat="42.89474" lon="-0.04128">
        <ele>1286</ele>
        <time>2010-01-01T11:14:44Z</time>
      </trkpt>
      <trkpt lat="42.89443" lon="-0.04075">
        <ele>1269</ele>
        <time>2010-01-01T11:15:03Z</time>
      </trkpt>
      <trkpt lat="42.89459" lon="-0.03996">
        <ele>1240</ele>
        <time>2010-01-01T11:15:27Z</time>
      </trkpt>
      <trkpt lat="42.89446" lon="-0.0395">
        <ele>1233</ele>
        <time>2010-01-01T11:15:42Z</time>
      </trkpt>
      <trkpt lat="42.89312" lon="-0.03852">
        <ele>1215</ele>
        <time>2010-01-01T11:16:43Z</time>
      </trkpt>
      <trkpt lat="42.894" lon="-0.0384">
        <ele>1202</ele>
        <time>2010-01-01T11:17:18Z</time>
      </trkpt>
      <trkpt lat="42.8926" lon="-0.03751">
        <ele>1176</ele>
        <time>2010-01-01T11:18:20Z</time>
      </trkpt>
      <trkpt lat="42.89358" lon="-0.03728">
        <ele>1152</ele>
        <time>2010-01-01T11:19:00Z</time>
      </trkpt>
      <trkpt lat="42.89426" lon="-0.03723">
        <ele>1132</ele>
        <time>2010-01-01T11:19:27Z</time>
      </trkpt>
      <trkpt lat="42.89314" lon="-0.03617">
        <ele>1117</ele>
        <time>2010-01-01T11:20:22Z</time>
      </trkpt>
      <trkpt lat="42.89206" lon="-0.03423">
        <ele>1061</ele>
        <time>2010-01-01T11:21:33Z</time>
      </trkpt>
      <trkpt lat="42.891" lon="-0.03339">
        <ele>1044</ele>
        <time>2010-01-01T11:22:22Z</time>
      </trkpt>
      <trkpt lat="42.88971" lon="-0.03285">
        <ele>1022</ele>
        <time>2010-01-01T11:23:17Z</time>
      </trkpt>
      <trkpt lat="42.88932" lon="-0.03216">
        <ele>1001</ele>
        <time>2010-01-01T11:23:42Z</time>
      </trkpt>
      <trkpt lat="42.8888" lon="-0.03205">
        <ele>990</ele>
        <time>2010-01-01T11:24:03Z</time>
      </trkpt>
      <trkpt lat="42.88874" lon="-0.03131">
        <ele>977</ele>
        <time>2010-01-01T11:24:25Z</time>
      </trkpt>
      <trkpt lat="42.88841" lon="-0.03158">
        <ele>978</ele>
        <time>2010-01-01T11:24:40Z</time>
      </trkpt>
      <trkpt lat="42.88755" lon="-0.03127">
        <ele>963</ele>
        <time>2010-01-01T11:25:16Z</time>
      </trkpt>
      <trkpt lat="42.88665" lon="-0.03068">
        <ele>953</ele>
        <time>2010-01-01T11:25:56Z</time>
      </trkpt>
      <trkpt lat="42.887" lon="-0.03034">
        <ele>941</ele>
        <time>2010-01-01T11:26:13Z</time>
      </trkpt>
      <trkpt lat="42.88601" lon="-0.03007">
        <ele>946</ele>
        <time>2010-01-01T11:26:53Z</time>
      </trkpt>
      <trkpt lat="42.8864" lon="-0.02984">
        <ele>925</ele>
        <time>2010-01-01T11:27:10Z</time>
      </trkpt>
      <trkpt lat="42.88623" lon="-0.02926">
        <ele>917</ele>
        <time>2010-01-01T11:27:28Z</time>
      </trkpt>
      <trkpt lat="42.88559" lon="-0.02884">
        <ele>909</ele>
        <time>2010-01-01T11:27:57Z</time>
      </trkpt>
      <trkpt lat="42.88523" lon="-0.02809">
        <ele>890</ele>
        <time>2010-01-01T11:28:23Z</time>
      </trkpt>
      <trkpt lat="42.88499" lon="-0.02749">
        <ele>882</ele>
        <time>2010-01-01T11:28:43Z</time>
      </trkpt>
      <trkpt lat="42.88517" lon="-0.02695">
        <ele>862</ele>
        <time>2010-01-01T11:29:01Z</time>
      </trkpt>
      <trkpt lat="42.8849" lon="-0.0263">
        <ele>857</ele>
        <time>2010-01-01T11:29:23Z</time>
      </trkpt>
      <trkpt lat="42.88384" lon="-0.02558">
        <ele>860</ele>
        <time>2010-01-01T11:30:10Z</time>
      </trkpt>
      <trkpt lat="42.88385" lon="-0.02522">
        <ele>856</ele>
        <time>2010-01-01T11:30:20Z</time>
      </trkpt>
      <trkpt lat="42.884" lon="-0.0247">
        <ele>845</ele>
        <time>2010-01-01T11:30:37Z</time>
      </trkpt>
      <trkpt lat="42.88378" lon="-0.02422">
        <ele>844</ele>
        <time>2010-01-01T11:30:53Z</time>
      </trkpt>
      <trkpt lat="42.88349" lon="-0.02429">
        <ele>847</ele>
        <time>2010-01-01T11:31:05Z</time>
      </trkpt>
      <trkpt lat="42.88274" lon="-0.02366">
        <ele>842</ele>
        <time>2010-01-01T11:31:41Z</time>
      </trkpt>
      <trkpt lat="42.88212" lon="-0.02273">
        <ele>835</ele>
        <time>2010-01-01T11:32:17Z</time>
      </trkpt>
      <trkpt lat="42.88198" lon="-0.02171">
        <ele>822</ele>
        <time>2010-01-01T11:32:48Z</time>
      </trkpt>
      <trkpt lat="42.88178" lon="-0.02135">
        <ele>814</ele>
        <time>2010-01-01T11:33:01Z</time>
      </trkpt>
      <trkpt lat="42.88123" lon="-0.02174">
        <ele>817</ele>
        <time>2010-01-01T11:33:26Z</time>
      </trkpt>
      <trkpt lat="42.88067" lon="-0.02203">
        <ele>818</ele>
        <time>2010-01-01T11:33:50Z</time>
      </trkpt>
      <trkpt lat="42.88053" lon="-0.02239">
        <ele>824</ele>
        <time>2010-01-01T11:34:02Z</time>
      </trkpt>
      <trkpt lat="42.87981" lon="-0.02181">
        <ele>825</ele>
        <time>2010-01-01T11:34:35Z</time>
      </trkpt>
      <trkpt lat="42.87927" lon="-0.02108">
        <ele>800</ele>
        <time>2010-01-01T11:35:05Z</time>
      </trkpt>
      <trkpt lat="42.87827" lon="-0.02041">
        <ele>789</ele>
        <time>2010-01-01T11:35:50Z</time>
      </trkpt>
      <trkpt lat="42.87756" lon="-0.02041">
        <ele>788</ele>
        <time>2010-01-01T11:36:18Z</time>
      </trkpt>
      <trkpt lat="42.87711" lon="-0.0205">
        <ele>795</ele>
        <time>2010-01-01T11:36:37Z</time>
      </trkpt>
      <trkpt lat="42.87606" lon="-0.0199">
        <ele>772</ele>
        <time>2010-01-01T11:37:22Z</time>
      </trkpt>
      <trkpt lat="42.8754" lon="-0.01975">
        <ele>783</ele>
        <time>2010-01-01T11:37:49Z</time>
      </trkpt>
      <trkpt lat="42.87444" lon="-0.01885">
        <ele>772</ele>
        <time>2010-01-01T11:38:36Z</time>
      </trkpt>
      <trkpt lat="42.87358" lon="-0.01835">
        <ele>793</ele>
        <time>2010-01-01T11:39:13Z</time>
      </trkpt>
      <trkpt lat="42.87257" lon="-0.01744">
        <ele>767</ele>
        <time>2010-01-01T11:40:02Z</time>
      </trkpt>
      <trkpt lat="42.87124" lon="-0.01616">
        <ele>758</ele>
        <time>2010-01-01T11:41:07Z</time>
      </trkpt>
      <trkpt lat="42.87003" lon="-0.01516">
        <ele>748</ele>
        <time>2010-01-01T11:42:04Z</time>
      </trkpt>
      <trkpt lat="42.86901" lon="-0.01385">
        <ele>730</ele>
        <time>2010-01-01T11:43:00Z</time>
      </trkpt>
      <trkpt lat="42.86836" lon="-0.01347">
        <ele>728</ele>
        <time>2010-01-01T11:43:28Z</time>
      </trkpt>
      <trkpt lat="42.86747" lon="-0.01299">
        <ele>732</ele>
        <time>2010-01-01T11:44:06Z</time>
      </trkpt>
      <trkpt lat="42.86713" lon="-0.01223">
        <ele>719</ele>
        <time>2010-01-01T11:44:32Z</time>
      </trkpt>
      <trkpt lat="42.8666" lon="-0.01169">
        <ele>724</ele>
        <time>2010-01-01T11:44:59Z</time>
      </trkpt>
      <trkpt lat="42.86661" lon="-0.01147">
        <ele>715</ele>
        <time>2010-01-01T11:45:05Z</time>
      </trkpt>
      <trkpt lat="42.86602" lon="-0.0113">
        <ele>712</ele>
        <time>2010-01-01T11:45:29Z</time>
      </trkpt>
      <trkpt lat="42.86648" lon="-0.0111">
        <ele>708</ele>
        <time>2010-01-01T11:45:48Z</time>
      </trkpt>
      <trkpt lat="42.86711" lon="-0.01091">
        <ele>697</ele>
        <time>2010-01-01T11:46:14Z</time>
      </trkpt>
      <trkpt lat="42.86747" lon="-0.01111">
        <ele>696</ele>
        <time>2010-01-01T11:46:30Z</time>
      </trkpt>
      <trkpt lat="42.86783" lon="-0.00988">
        <ele>692</ele>
        <time>2010-01-01T11:47:08Z</time>
      </trkpt>
      <trkpt lat="42.86919" lon="-0.00975">
        <ele>693</ele>
        <time>2010-01-01T11:48:03Z</time>
      </trkpt>
      <trkpt lat="42.87047" lon="-0.00782">
        <ele>696</ele>
        <time>2010-01-01T11:49:19Z</time>
      </trkpt>
      <trkpt lat="42.8709" lon="-0.0071">
        <ele>701.38269</ele>
        <time>2010-01-01T11:49:46Z</time>
      </trkpt>
      <trkpt lat="42.87129" lon="-0.00645">
        <ele>703.82135</ele>
        <time>2010-01-01T11:50:11Z</time>
      </trkpt>
      <trkpt lat="42.87158" lon="-0.00598">
        <ele>706.58636</ele>
        <time>2010-01-01T11:50:29Z</time>
      </trkpt>
      <trkpt lat="42.87186" lon="-0.00554">
        <ele>708.23602</ele>
        <time>2010-01-01T11:50:46Z</time>
      </trkpt>
      <trkpt lat="42.87211" lon="-0.00512">
        <ele>710.33599</ele>
        <time>2010-01-01T11:51:02Z</time>
      </trkpt>
      <trkpt lat="42.87242" lon="-0.00468">
        <ele>712.28637</ele>
        <time>2010-01-01T11:51:20Z</time>
      </trkpt>
      <trkpt lat="42.87265" lon="-0.00432">
        <ele>713.63635</ele>
        <time>2010-01-01T11:51:34Z</time>
      </trkpt>
      <trkpt lat="42.87294" lon="-0.00389">
        <ele>714.66101</ele>
        <time>2010-01-01T11:51:51Z</time>
      </trkpt>
      <trkpt lat="42.87323" lon="-0.00337">
        <ele>715.41564</ele>
        <time>2010-01-01T11:52:10Z</time>
      </trkpt>
      <trkpt lat="42.87307" lon="-0.00309">
        <ele>716.24133</ele>
        <time>2010-01-01T11:52:21Z</time>
      </trkpt>
      <trkpt lat="42.87293" lon="-0.00284">
        <ele>717.19201</ele>
        <time>2010-01-01T11:52:30Z</time>
      </trkpt>
      <trkpt lat="42.87274" lon="-0.0025">
        <ele>719.18487</ele>
        <time>2010-01-01T11:52:43Z</time>
      </trkpt>
      <trkpt lat="42.87249" lon="-0.00217">
        <ele>723.00708</ele>
        <time>2010-01-01T11:52:56Z</time>
      </trkpt>
      <trkpt lat="42.87229" lon="-0.00181">
        <ele>727.41137</ele>
        <time>2010-01-01T11:53:10Z</time>
      </trkpt>
      <trkpt lat="42.87235" lon="-0.00142">
        <ele>729.96038</ele>
        <time>2010-01-01T11:53:21Z</time>
      </trkpt>
      <trkpt lat="42.87244" lon="-0.00107">
        <ele>731.81604</ele>
        <time>2010-01-01T11:53:32Z</time>
      </trkpt>
      <trkpt lat="42.87251" lon="-0.00073">
        <ele>733.35601</ele>
        <time>2010-01-01T11:53:43Z</time>
      </trkpt>
      <trkpt lat="42.87261" lon="-0.00039">
        <ele>734.29071</ele>
        <time>2010-01-01T11:53:53Z</time>
      </trkpt>
      <trkpt lat="42.87272" lon="-7.0E-5">
        <ele>734.40289</ele>
        <time>2010-01-01T11:54:04Z</time>
      </trkpt>
      <trkpt lat="42.87284" lon="0.00028">
        <ele>733.77801</ele>
        <time>2010-01-01T11:54:15Z</time>
      </trkpt>
      <trkpt lat="42.87294" lon="0.00059">
        <ele>732.81604</ele>
        <time>2010-01-01T11:54:25Z</time>
      </trkpt>
      <trkpt lat="42.87302" lon="0.00102">
        <ele>732.94604</ele>
        <time>2010-01-01T11:54:38Z</time>
      </trkpt>
      <trkpt lat="42.87313" lon="0.00134">
        <ele>732.75286</ele>
        <time>2010-01-01T11:54:48Z</time>
      </trkpt>
      <trkpt lat="42.87326" lon="0.00177">
        <ele>733.47082</ele>
        <time>2010-01-01T11:55:02Z</time>
      </trkpt>
      <trkpt lat="42.87334" lon="0.00214">
        <ele>735.36755</ele>
        <time>2010-01-01T11:55:13Z</time>
      </trkpt>
      <trkpt lat="42.87345" lon="0.00248">
        <ele>737.32061</ele>
        <time>2010-01-01T11:55:24Z</time>
      </trkpt>
      <trkpt lat="42.87355" lon="0.00294">
        <ele>740.06189</ele>
        <time>2010-01-01T11:55:38Z</time>
      </trkpt>
      <trkpt lat="42.87364" lon="0.00333">
        <ele>742.36401</ele>
        <time>2010-01-01T11:55:50Z</time>
      </trkpt>
      <trkpt lat="42.87377" lon="0.0038">
        <ele>744.93682</ele>
        <time>2010-01-01T11:56:05Z</time>
      </trkpt>
      <trkpt lat="42.87397" lon="0.00451">
        <ele>748.34094</ele>
        <time>2010-01-01T11:56:27Z</time>
      </trkpt>
      <trkpt lat="42.8742" lon="0.00522">
        <ele>751.02136</ele>
        <time>2010-01-01T11:56:50Z</time>
      </trkpt>
      <trkpt lat="42.87461" lon="0.00578">
        <ele>753.35205</ele>
        <time>2010-01-01T11:57:13Z</time>
      </trkpt>
      <trkpt lat="42.87511" lon="0.00639">
        <ele>756</ele>
        <time>2010-01-01T11:57:40Z</time>
      </trkpt>
      <trkpt lat="42.87612" lon="0.0081">
        <ele>771</ele>
        <time>2010-01-01T11:58:45Z</time>
      </trkpt>
      <trkpt lat="42.8765" lon="0.00935">
        <ele>784</ele>
        <time>2010-01-01T11:59:24Z</time>
      </trkpt>
      <trkpt lat="42.87647" lon="0.01038">
        <ele>802</ele>
        <time>2010-01-01T11:59:54Z</time>
      </trkpt>
      <trkpt lat="42.87678" lon="0.01214">
        <ele>825</ele>
        <time>2010-01-01T12:00:48Z</time>
      </trkpt>
      <trkpt lat="42.87681" lon="0.01263">
        <ele>838</ele>
        <time>2010-01-01T12:01:02Z</time>
      </trkpt>
      <trkpt lat="42.87713" lon="0.0133">
        <ele>841</ele>
        <time>2010-01-01T12:01:26Z</time>
      </trkpt>
      <trkpt lat="42.87677" lon="0.01362">
        <ele>852</ele>
        <time>2010-01-01T12:01:43Z</time>
      </trkpt>
      <trkpt lat="42.87636" lon="0.01455">
        <ele>861</ele>
        <time>2010-01-01T12:02:15Z</time>
      </trkpt>
      <trkpt lat="42.87592" lon="0.01503">
        <ele>873</ele>
        <time>2010-01-01T12:02:37Z</time>
      </trkpt>
      <trkpt lat="42.87647" lon="0.01528">
        <ele>866</ele>
        <time>2010-01-01T12:03:00Z</time>
      </trkpt>
      <trkpt lat="42.87642" lon="0.01602">
        <ele>880</ele>
        <time>2010-01-01T12:03:22Z</time>
      </trkpt>
      <trkpt lat="42.8761" lon="0.0171">
        <ele>904</ele>
        <time>2010-01-01T12:03:56Z</time>
      </trkpt>
      <trkpt lat="42.87554" lon="0.0181">
        <ele>931</ele>
        <time>2010-01-01T12:04:33Z</time>
      </trkpt>
      <trkpt lat="42.87497" lon="0.01873">
        <ele>949</ele>
        <time>2010-01-01T12:05:02Z</time>
      </trkpt>
      <trkpt lat="42.87488" lon="0.01974">
        <ele>961</ele>
        <time>2010-01-01T12:05:32Z</time>
      </trkpt>
      <trkpt lat="42.87505" lon="0.021">
        <ele>969</ele>
        <time>2010-01-01T12:06:10Z</time>
      </trkpt>
      <trkpt lat="42.875" lon="0.02252">
        <ele>994</ele>
        <time>2010-01-01T12:06:54Z</time>
      </trkpt>
      <trkpt lat="42.8755" lon="0.02338">
        <ele>984</ele>
        <time>2010-01-01T12:07:26Z</time>
      </trkpt>
      <trkpt lat="42.87527" lon="0.02425">
        <ele>1007</ele>
        <time>2010-01-01T12:07:53Z</time>
      </trkpt>
      <trkpt lat="42.87567" lon="0.02493">
        <ele>1019</ele>
        <time>2010-01-01T12:08:19Z</time>
      </trkpt>
      <trkpt lat="42.87615" lon="0.02562">
        <ele>1015</ele>
        <time>2010-01-01T12:08:47Z</time>
      </trkpt>
      <trkpt lat="42.87633" lon="0.02634">
        <ele>1028</ele>
        <time>2010-01-01T12:09:09Z</time>
      </trkpt>
      <trkpt lat="42.87658" lon="0.02673">
        <ele>1026</ele>
        <time>2010-01-01T12:09:25Z</time>
      </trkpt>
      <trkpt lat="42.87657" lon="0.02781">
        <ele>1051</ele>
        <time>2010-01-01T12:09:56Z</time>
      </trkpt>
      <trkpt lat="42.87691" lon="0.02816">
        <ele>1040</ele>
        <time>2010-01-01T12:10:13Z</time>
      </trkpt>
      <trkpt lat="42.87697" lon="0.02873">
        <ele>1052</ele>
        <time>2010-01-01T12:10:30Z</time>
      </trkpt>
      <trkpt lat="42.87773" lon="0.02901">
        <ele>1032</ele>
        <time>2010-01-01T12:11:02Z</time>
      </trkpt>
      <trkpt lat="42.87828" lon="0.0305">
        <ele>1033</ele>
        <time>2010-01-01T12:11:51Z</time>
      </trkpt>
      <trkpt lat="42.87835" lon="0.02968">
        <ele>1020</ele>
        <time>2010-01-01T12:12:15Z</time>
      </trkpt>
      <trkpt lat="42.87848" lon="0.02934">
        <ele>1012</ele>
        <time>2010-01-01T12:12:27Z</time>
      </trkpt>
      <trkpt lat="42.87843" lon="0.02997">
        <ele>1019</ele>
        <time>2010-01-01T12:12:45Z</time>
      </trkpt>
      <trkpt lat="42.87884" lon="0.0304">
        <ele>1010</ele>
        <time>2010-01-01T12:13:06Z</time>
      </trkpt>
      <trkpt lat="42.87929" lon="0.0306">
        <ele>1000</ele>
        <time>2010-01-01T12:13:25Z</time>
      </trkpt>
      <trkpt lat="42.87953" lon="0.03116">
        <ele>995</ele>
        <time>2010-01-01T12:13:44Z</time>
      </trkpt>
      <trkpt lat="42.87945" lon="0.03169">
        <ele>1004</ele>
        <time>2010-01-01T12:14:00Z</time>
      </trkpt>
      <trkpt lat="42.87961" lon="0.03192">
        <ele>1006</ele>
        <time>2010-01-01T12:14:09Z</time>
      </trkpt>
      <trkpt lat="42.88013" lon="0.03166">
        <ele>995</ele>
        <time>2010-01-01T12:14:31Z</time>
      </trkpt>
      <trkpt lat="42.88051" lon="0.03163">
        <ele>994</ele>
        <time>2010-01-01T12:14:46Z</time>
      </trkpt>
      <trkpt lat="42.88063" lon="0.03224">
        <ele>1001</ele>
        <time>2010-01-01T12:15:05Z</time>
      </trkpt>
      <trkpt lat="42.88108" lon="0.03281">
        <ele>1001</ele>
        <time>2010-01-01T12:15:30Z</time>
      </trkpt>
      <trkpt lat="42.88141" lon="0.03308">
        <ele>996</ele>
        <time>2010-01-01T12:15:45Z</time>
      </trkpt>
      <trkpt lat="42.88089" lon="0.034">
        <ele>1018</ele>
        <time>2010-01-01T12:16:20Z</time>
      </trkpt>
      <trkpt lat="42.88116" lon="0.03416">
        <ele>1014</ele>
        <time>2010-01-01T12:16:32Z</time>
      </trkpt>
      <trkpt lat="42.88122" lon="0.03467">
        <ele>1019</ele>
        <time>2010-01-01T12:16:47Z</time>
      </trkpt>
      <trkpt lat="42.88157" lon="0.03536">
        <ele>1015</ele>
        <time>2010-01-01T12:17:11Z</time>
      </trkpt>
      <trkpt lat="42.8814" lon="0.03665">
        <ele>1029</ele>
        <time>2010-01-01T12:17:50Z</time>
      </trkpt>
      <trkpt lat="42.88158" lon="0.03881">
        <ele>1038</ele>
        <time>2010-01-01T12:18:53Z</time>
      </trkpt>
      <trkpt lat="42.88113" lon="0.03978">
        <ele>1064</ele>
        <time>2010-01-01T12:19:27Z</time>
      </trkpt>
      <trkpt lat="42.88047" lon="0.04023">
        <ele>1098</ele>
        <time>2010-01-01T12:19:57Z</time>
      </trkpt>
      <trkpt lat="42.88033" lon="0.0414">
        <ele>1073</ele>
        <time>2010-01-01T12:20:31Z</time>
      </trkpt>
      <trkpt lat="42.8809" lon="0.04165">
        <ele>1065</ele>
        <time>2010-01-01T12:20:55Z</time>
      </trkpt>
      <trkpt lat="42.88124" lon="0.04182">
        <ele>1066</ele>
        <time>2010-01-01T12:21:10Z</time>
      </trkpt>
      <trkpt lat="42.88141" lon="0.04218">
        <ele>1079</ele>
        <time>2010-01-01T12:21:22Z</time>
      </trkpt>
      <trkpt lat="42.88207" lon="0.04282">
        <ele>1093</ele>
        <time>2010-01-01T12:21:55Z</time>
      </trkpt>
      <trkpt lat="42.8818" lon="0.04384">
        <ele>1127</ele>
        <time>2010-01-01T12:22:27Z</time>
      </trkpt>
      <trkpt lat="42.88138" lon="0.04487">
        <ele>1168</ele>
        <time>2010-01-01T12:23:01Z</time>
      </trkpt>
      <trkpt lat="42.88107" lon="0.04552">
        <ele>1193</ele>
        <time>2010-01-01T12:23:24Z</time>
      </trkpt>
      <trkpt lat="42.88086" lon="0.0458">
        <ele>1204</ele>
        <time>2010-01-01T12:23:36Z</time>
      </trkpt>
      <trkpt lat="42.88085" lon="0.04648">
        <ele>1221</ele>
        <time>2010-01-01T12:23:56Z</time>
      </trkpt>
      <trkpt lat="42.88082" lon="0.04715">
        <ele>1237</ele>
        <time>2010-01-01T12:24:15Z</time>
      </trkpt>
      <trkpt lat="42.8806" lon="0.04756">
        <ele>1250</ele>
        <time>2010-01-01T12:24:30Z</time>
      </trkpt>
      <trkpt lat="42.88097" lon="0.04779">
        <ele>1254</ele>
        <time>2010-01-01T12:24:46Z</time>
      </trkpt>
      <trkpt lat="42.88139" lon="0.04774">
        <ele>1251</ele>
        <time>2010-01-01T12:25:03Z</time>
      </trkpt>
      <trkpt lat="42.88144" lon="0.04792">
        <ele>1258</ele>
        <time>2010-01-01T12:25:09Z</time>
      </trkpt>
      <trkpt lat="42.88191" lon="0.04781">
        <ele>1260</ele>
        <time>2010-01-01T12:25:28Z</time>
      </trkpt>
      <trkpt lat="42.8827" lon="0.04808">
        <ele>1268</ele>
        <time>2010-01-01T12:26:01Z</time>
      </trkpt>
      <trkpt lat="42.88368" lon="0.04866">
        <ele>1279</ele>
        <time>2010-01-01T12:26:43Z</time>
      </trkpt>
      <trkpt lat="42.88426" lon="0.04866">
        <ele>1278</ele>
        <time>2010-01-01T12:27:07Z</time>
      </trkpt>
      <trkpt lat="42.88455" lon="0.04951">
        <ele>1297</ele>
        <time>2010-01-01T12:27:34Z</time>
      </trkpt>
      <trkpt lat="42.88498" lon="0.05047">
        <ele>1321</ele>
        <time>2010-01-01T12:28:07Z</time>
      </trkpt>
      <trkpt lat="42.88465" lon="0.05072">
        <ele>1338</ele>
        <time>2010-01-01T12:28:22Z</time>
      </trkpt>
      <trkpt lat="42.88487" lon="0.05106">
        <ele>1349</ele>
        <time>2010-01-01T12:28:36Z</time>
      </trkpt>
      <trkpt lat="42.88461" lon="0.0511">
        <ele>1352</ele>
        <time>2010-01-01T12:28:46Z</time>
      </trkpt>
      <trkpt lat="42.8849" lon="0.05146">
        <ele>1363</ele>
        <time>2010-01-01T12:29:02Z</time>
      </trkpt>
      <trkpt lat="42.88441" lon="0.05231">
        <ele>1385</ele>
        <time>2010-01-01T12:29:34Z</time>
      </trkpt>
      <trkpt lat="42.88416" lon="0.05212">
        <ele>1384</ele>
        <time>2010-01-01T12:29:45Z</time>
      </trkpt>
      <trkpt lat="42.88378" lon="0.05247">
        <ele>1396</ele>
        <time>2010-01-01T12:30:03Z</time>
      </trkpt>
      <trkpt lat="42.88422" lon="0.0538">
        <ele>1414</ele>
        <time>2010-01-01T12:30:46Z</time>
      </trkpt>
      <trkpt lat="42.88461" lon="0.05495">
        <ele>1429</ele>
        <time>2010-01-01T12:31:23Z</time>
      </trkpt>
      <trkpt lat="42.88498" lon="0.05542">
        <ele>1426</ele>
        <time>2010-01-01T12:31:44Z</time>
      </trkpt>
      <trkpt lat="42.88484" lon="0.05595">
        <ele>1436</ele>
        <time>2010-01-01T12:32:00Z</time>
      </trkpt>
      <trkpt lat="42.88515" lon="0.05607">
        <ele>1432</ele>
        <time>2010-01-01T12:32:13Z</time>
      </trkpt>
      <trkpt lat="42.8852" lon="0.0567">
        <ele>1449</ele>
        <time>2010-01-01T12:32:32Z</time>
      </trkpt>
      <trkpt lat="42.88573" lon="0.05702">
        <ele>1454</ele>
        <time>2010-01-01T12:32:55Z</time>
      </trkpt>
      <trkpt lat="42.88536" lon="0.0575">
        <ele>1480</ele>
        <time>2010-01-01T12:33:16Z</time>
      </trkpt>
      <trkpt lat="42.88559" lon="0.05793">
        <ele>1488</ele>
        <time>2010-01-01T12:33:31Z</time>
      </trkpt>
      <trkpt lat="42.88578" lon="0.05821">
        <ele>1492</ele>
        <time>2010-01-01T12:33:42Z</time>
      </trkpt>
      <trkpt lat="42.88598" lon="0.05831">
        <ele>1487</ele>
        <time>2010-01-01T12:33:51Z</time>
      </trkpt>
      <trkpt lat="42.88643" lon="0.05848">
        <ele>1476</ele>
        <time>2010-01-01T12:34:10Z</time>
      </trkpt>
      <trkpt lat="42.88655" lon="0.05882">
        <ele>1484</ele>
        <time>2010-01-01T12:34:21Z</time>
      </trkpt>
      <trkpt lat="42.88699" lon="0.05901">
        <ele>1480</ele>
        <time>2010-01-01T12:34:39Z</time>
      </trkpt>
      <trkpt lat="42.88775" lon="0.06056">
        <ele>1493</ele>
        <time>2010-01-01T12:35:34Z</time>
      </trkpt>
      <trkpt lat="42.88835" lon="0.06189">
        <ele>1509</ele>
        <time>2010-01-01T12:36:20Z</time>
      </trkpt>
      <trkpt lat="42.88946" lon="0.06338">
        <ele>1512</ele>
        <time>2010-01-01T12:37:22Z</time>
      </trkpt>
      <trkpt lat="42.89008" lon="0.06478">
        <ele>1522</ele>
        <time>2010-01-01T12:38:10Z</time>
      </trkpt>
      <trkpt lat="42.89047" lon="0.06565">
        <ele>1518</ele>
        <time>2010-01-01T12:38:40Z</time>
      </trkpt>
      <trkpt lat="42.89038" lon="0.06678">
        <ele>1524</ele>
        <time>2010-01-01T12:39:13Z</time>
      </trkpt>
      <trkpt lat="42.89055" lon="0.06754">
        <ele>1532</ele>
        <time>2010-01-01T12:39:37Z</time>
      </trkpt>
      <trkpt lat="42.89124" lon="0.06718">
        <ele>1517</ele>
        <time>2010-01-01T12:40:06Z</time>
      </trkpt>
      <trkpt lat="42.892" lon="0.06791">
        <ele>1521</ele>
        <time>2010-01-01T12:40:43Z</time>
      </trkpt>
      <trkpt lat="42.89214" lon="0.06839">
        <ele>1526</ele>
        <time>2010-01-01T12:40:59Z</time>
      </trkpt>
      <trkpt lat="42.89214" lon="0.06865">
        <ele>1530</ele>
        <time>2010-01-01T12:41:06Z</time>
      </trkpt>
      <trkpt lat="42.89225" lon="0.06937">
        <ele>1538</ele>
        <time>2010-01-01T12:41:28Z</time>
      </trkpt>
      <trkpt lat="42.89231" lon="0.06968">
        <ele>1541</ele>
        <time>2010-01-01T12:41:37Z</time>
      </trkpt>
      <trkpt lat="42.89235" lon="0.07013">
        <ele>1545</ele>
        <time>2010-01-01T12:41:50Z</time>
      </trkpt>
      <trkpt lat="42.89249" lon="0.07053">
        <ele>1542</ele>
        <time>2010-01-01T12:42:03Z</time>
      </trkpt>
      <trkpt lat="42.89255" lon="0.07162">
        <ele>1548</ele>
        <time>2010-01-01T12:42:35Z</time>
      </trkpt>
      <trkpt lat="42.89281" lon="0.07293">
        <ele>1543</ele>
        <time>2010-01-01T12:43:15Z</time>
      </trkpt>
      <trkpt lat="42.8933" lon="0.07387">
        <ele>1535</ele>
        <time>2010-01-01T12:43:49Z</time>
      </trkpt>
      <trkpt lat="42.89342" lon="0.07447">
        <ele>1534</ele>
        <time>2010-01-01T12:44:07Z</time>
      </trkpt>
      <trkpt lat="42.89344" lon="0.07525">
        <ele>1542</ele>
        <time>2010-01-01T12:44:30Z</time>
      </trkpt>
      <trkpt lat="42.89403" lon="0.07512">
        <ele>1527</ele>
        <time>2010-01-01T12:44:55Z</time>
      </trkpt>
      <trkpt lat="42.89406" lon="0.07614">
        <ele>1525</ele>
        <time>2010-01-01T12:45:24Z</time>
      </trkpt>
      <trkpt lat="42.89414" lon="0.07653">
        <ele>1521</ele>
        <time>2010-01-01T12:45:36Z</time>
      </trkpt>
      <trkpt lat="42.89388" lon="0.07723">
        <ele>1519</ele>
        <time>2010-01-01T12:45:59Z</time>
      </trkpt>
      <trkpt lat="42.89417" lon="0.07794">
        <ele>1513</ele>
        <time>2010-01-01T12:46:23Z</time>
      </trkpt>
      <trkpt lat="42.89435" lon="0.07776">
        <ele>1511</ele>
        <time>2010-01-01T12:46:32Z</time>
      </trkpt>
      <trkpt lat="42.8946" lon="0.07821">
        <ele>1504</ele>
        <time>2010-01-01T12:46:49Z</time>
      </trkpt>
      <trkpt lat="42.89447" lon="0.07904">
        <ele>1506</ele>
        <time>2010-01-01T12:47:14Z</time>
      </trkpt>
      <trkpt lat="42.89447" lon="0.081">
        <ele>1505</ele>
        <time>2010-01-01T12:48:11Z</time>
      </trkpt>
      <trkpt lat="42.89413" lon="0.08212">
        <ele>1514</ele>
        <time>2010-01-01T12:48:47Z</time>
      </trkpt>
      <trkpt lat="42.8939" lon="0.08258">
        <ele>1520</ele>
        <time>2010-01-01T12:49:03Z</time>
      </trkpt>
      <trkpt lat="42.89457" lon="0.08283">
        <ele>1520</ele>
        <time>2010-01-01T12:49:31Z</time>
      </trkpt>
      <trkpt lat="42.89477" lon="0.08331">
        <ele>1529</ele>
        <time>2010-01-01T12:49:47Z</time>
      </trkpt>
      <trkpt lat="42.89615" lon="0.08244">
        <ele>1530</ele>
        <time>2010-01-01T12:50:48Z</time>
      </trkpt>
      <trkpt lat="42.89671" lon="0.08199">
        <ele>1521</ele>
        <time>2010-01-01T12:51:14Z</time>
      </trkpt>
      <trkpt lat="42.89797" lon="0.0824">
        <ele>1510</ele>
        <time>2010-01-01T12:52:06Z</time>
      </trkpt>
      <trkpt lat="42.89896" lon="0.08279">
        <ele>1499</ele>
        <time>2010-01-01T12:52:47Z</time>
      </trkpt>
      <trkpt lat="42.89951" lon="0.08357">
        <ele>1489</ele>
        <time>2010-01-01T12:53:19Z</time>
      </trkpt>
      <trkpt lat="42.9001" lon="0.08526">
        <ele>1483</ele>
        <time>2010-01-01T12:54:14Z</time>
      </trkpt>
      <trkpt lat="42.90052" lon="0.08651">
        <ele>1478</ele>
        <time>2010-01-01T12:54:54Z</time>
      </trkpt>
      <trkpt lat="42.90153" lon="0.08822">
        <ele>1453</ele>
        <time>2010-01-01T12:55:58Z</time>
      </trkpt>
      <trkpt lat="42.90192" lon="0.0898">
        <ele>1451</ele>
        <time>2010-01-01T12:56:47Z</time>
      </trkpt>
      <trkpt lat="42.90226" lon="0.09195">
        <ele>1434</ele>
        <time>2010-01-01T12:57:52Z</time>
      </trkpt>
      <trkpt lat="42.90275" lon="0.09297">
        <ele>1431</ele>
        <time>2010-01-01T12:58:28Z</time>
      </trkpt>
      <trkpt lat="42.9033" lon="0.09445">
        <ele>1419</ele>
        <time>2010-01-01T12:59:16Z</time>
      </trkpt>
      <trkpt lat="42.90318" lon="0.09546">
        <ele>1436</ele>
        <time>2010-01-01T12:59:46Z</time>
      </trkpt>
      <trkpt lat="42.90318" lon="0.09727">
        <ele>1443</ele>
        <time>2010-01-01T13:00:39Z</time>
      </trkpt>
      <trkpt lat="42.90333" lon="0.0994">
        <ele>1452</ele>
        <time>2010-01-01T13:01:42Z</time>
      </trkpt>
      <trkpt lat="42.90339" lon="0.1001">
        <ele>1453</ele>
        <time>2010-01-01T13:02:03Z</time>
      </trkpt>
      <trkpt lat="42.90309" lon="0.10089">
        <ele>1458</ele>
        <time>2010-01-01T13:02:29Z</time>
      </trkpt>
      <trkpt lat="42.90326" lon="0.10139">
        <ele>1452</ele>
        <time>2010-01-01T13:02:45Z</time>
      </trkpt>
      <trkpt lat="42.90332" lon="0.10191">
        <ele>1454</ele>
        <time>2010-01-01T13:03:00Z</time>
      </trkpt>
      <trkpt lat="42.90325" lon="0.10241">
        <ele>1460</ele>
        <time>2010-01-01T13:03:15Z</time>
      </trkpt>
      <trkpt lat="42.90325" lon="0.10241">
        <ele>1460</ele>
        <time>2010-01-01T13:03:15Z</time>
      </trkpt>
      <trkpt lat="42.90258" lon="0.10322">
        <ele>1469</ele>
        <time>2010-01-01T13:03:51Z</time>
      </trkpt>
      <trkpt lat="42.90182" lon="0.10343">
        <ele>1474</ele>
        <time>2010-01-01T13:04:22Z</time>
      </trkpt>
      <trkpt lat="42.90114" lon="0.10398">
        <ele>1482</ele>
        <time>2010-01-01T13:04:54Z</time>
      </trkpt>
      <trkpt lat="42.9004" lon="0.10431">
        <ele>1490</ele>
        <time>2010-01-01T13:05:25Z</time>
      </trkpt>
      <trkpt lat="42.89949" lon="0.10474">
        <ele>1503</ele>
        <time>2010-01-01T13:06:04Z</time>
      </trkpt>
      <trkpt lat="42.89878" lon="0.10526">
        <ele>1514</ele>
        <time>2010-01-01T13:06:36Z</time>
      </trkpt>
      <trkpt lat="42.89814" lon="0.10571">
        <ele>1518</ele>
        <time>2010-01-01T13:07:05Z</time>
      </trkpt>
      <trkpt lat="42.89763" lon="0.10601">
        <ele>1521</ele>
        <time>2010-01-01T13:07:27Z</time>
      </trkpt>
      <trkpt lat="42.89678" lon="0.1061">
        <ele>1526</ele>
        <time>2010-01-01T13:08:01Z</time>
      </trkpt>
      <trkpt lat="42.89645" lon="0.10636">
        <ele>1536</ele>
        <time>2010-01-01T13:08:16Z</time>
      </trkpt>
      <trkpt lat="42.89568" lon="0.10633">
        <ele>1545</ele>
        <time>2010-01-01T13:08:47Z</time>
      </trkpt>
      <trkpt lat="42.89517" lon="0.10659">
        <ele>1556</ele>
        <time>2010-01-01T13:09:09Z</time>
      </trkpt>
      <trkpt lat="42.8947" lon="0.10676">
        <ele>1569</ele>
        <time>2010-01-01T13:09:28Z</time>
      </trkpt>
      <trkpt lat="42.8936" lon="0.10656">
        <ele>1587</ele>
        <time>2010-01-01T13:10:13Z</time>
      </trkpt>
      <trkpt lat="42.89168" lon="0.107">
        <ele>1637</ele>
        <time>2010-01-01T13:11:31Z</time>
      </trkpt>
      <trkpt lat="42.8908" lon="0.10713">
        <ele>1649</ele>
        <time>2010-01-01T13:12:06Z</time>
      </trkpt>
      <trkpt lat="42.89045" lon="0.10751">
        <ele>1663</ele>
        <time>2010-01-01T13:12:24Z</time>
      </trkpt>
      <trkpt lat="42.88955" lon="0.10739">
        <ele>1659</ele>
        <time>2010-01-01T13:13:00Z</time>
      </trkpt>
      <trkpt lat="42.88895" lon="0.10775">
        <ele>1672</ele>
        <time>2010-01-01T13:13:26Z</time>
      </trkpt>
      <trkpt lat="42.88831" lon="0.10808">
        <ele>1683</ele>
        <time>2010-01-01T13:13:54Z</time>
      </trkpt>
      <trkpt lat="42.88762" lon="0.10832">
        <ele>1690</ele>
        <time>2010-01-01T13:14:23Z</time>
      </trkpt>
      <trkpt lat="42.88696" lon="0.10828">
        <ele>1691</ele>
        <time>2010-01-01T13:14:49Z</time>
      </trkpt>
      <trkpt lat="42.88624" lon="0.10813">
        <ele>1702</ele>
        <time>2010-01-01T13:15:18Z</time>
      </trkpt>
      <trkpt lat="42.88625" lon="0.10843">
        <ele>1708</ele>
        <time>2010-01-01T13:15:27Z</time>
      </trkpt>
      <trkpt lat="42.8865" lon="0.10888">
        <ele>1711</ele>
        <time>2010-01-01T13:15:44Z</time>
      </trkpt>
      <trkpt lat="42.88612" lon="0.10886">
        <ele>1716</ele>
        <time>2010-01-01T13:15:59Z</time>
      </trkpt>
      <trkpt lat="42.88542" lon="0.10959">
        <ele>1737</ele>
        <time>2010-01-01T13:16:34Z</time>
      </trkpt>
      <trkpt lat="42.885" lon="0.11001">
        <ele>1742</ele>
        <time>2010-01-01T13:16:55Z</time>
      </trkpt>
      <trkpt lat="42.88443" lon="0.11061">
        <ele>1743</ele>
        <time>2010-01-01T13:17:24Z</time>
      </trkpt>
      <trkpt lat="42.88391" lon="0.11161">
        <ele>1752</ele>
        <time>2010-01-01T13:18:00Z</time>
      </trkpt>
      <trkpt lat="42.88339" lon="0.11154">
        <ele>1750</ele>
        <time>2010-01-01T13:18:21Z</time>
      </trkpt>
      <trkpt lat="42.88316" lon="0.11206">
        <ele>1756</ele>
        <time>2010-01-01T13:18:39Z</time>
      </trkpt>
      <trkpt lat="42.88306" lon="0.11292">
        <ele>1765</ele>
        <time>2010-01-01T13:19:04Z</time>
      </trkpt>
      <trkpt lat="42.88278" lon="0.11364">
        <ele>1776</ele>
        <time>2010-01-01T13:19:28Z</time>
      </trkpt>
      <trkpt lat="42.8829" lon="0.11403">
        <ele>1778</ele>
        <time>2010-01-01T13:19:40Z</time>
      </trkpt>
      <trkpt lat="42.88269" lon="0.11468">
        <ele>1787</ele>
        <time>2010-01-01T13:20:01Z</time>
      </trkpt>
      <trkpt lat="42.88258" lon="0.11563">
        <ele>1802</ele>
        <time>2010-01-01T13:20:29Z</time>
      </trkpt>
      <trkpt lat="42.8826" lon="0.11685">
        <ele>1823</ele>
        <time>2010-01-01T13:21:05Z</time>
      </trkpt>
      <trkpt lat="42.8824" lon="0.11765">
        <ele>1841</ele>
        <time>2010-01-01T13:21:30Z</time>
      </trkpt>
      <trkpt lat="42.8823" lon="0.11824">
        <ele>1851</ele>
        <time>2010-01-01T13:21:48Z</time>
      </trkpt>
      <trkpt lat="42.88229" lon="0.11903">
        <ele>1860</ele>
        <time>2010-01-01T13:22:11Z</time>
      </trkpt>
      <trkpt lat="42.88196" lon="0.1195">
        <ele>1882</ele>
        <time>2010-01-01T13:22:30Z</time>
      </trkpt>
      <trkpt lat="42.88179" lon="0.12006">
        <ele>1900</ele>
        <time>2010-01-01T13:22:48Z</time>
      </trkpt>
      <trkpt lat="42.8821" lon="0.12057">
        <ele>1893</ele>
        <time>2010-01-01T13:23:07Z</time>
      </trkpt>
      <trkpt lat="42.88249" lon="0.1211">
        <ele>1893</ele>
        <time>2010-01-01T13:23:29Z</time>
      </trkpt>
      <trkpt lat="42.88233" lon="0.12199">
        <ele>1902</ele>
        <time>2010-01-01T13:23:56Z</time>
      </trkpt>
      <trkpt lat="42.8822" lon="0.12236">
        <ele>1901</ele>
        <time>2010-01-01T13:24:08Z</time>
      </trkpt>
      <trkpt lat="42.88203" lon="0.12265">
        <ele>1904</ele>
        <time>2010-01-01T13:24:19Z</time>
      </trkpt>
      <trkpt lat="42.88199" lon="0.12327">
        <ele>1901</ele>
        <time>2010-01-01T13:24:38Z</time>
      </trkpt>
      <trkpt lat="42.88187" lon="0.12384">
        <ele>1904</ele>
        <time>2010-01-01T13:24:55Z</time>
      </trkpt>
      <trkpt lat="42.88194" lon="0.12473">
        <ele>1907</ele>
        <time>2010-01-01T13:25:21Z</time>
      </trkpt>
      <trkpt lat="42.88208" lon="0.12542">
        <ele>1909</ele>
        <time>2010-01-01T13:25:42Z</time>
      </trkpt>
      <trkpt lat="42.88198" lon="0.12589">
        <ele>1914</ele>
        <time>2010-01-01T13:25:56Z</time>
      </trkpt>
      <trkpt lat="42.88201" lon="0.12711">
        <ele>1923</ele>
        <time>2010-01-01T13:26:32Z</time>
      </trkpt>
      <trkpt lat="42.88207" lon="0.12757">
        <ele>1926</ele>
        <time>2010-01-01T13:26:46Z</time>
      </trkpt>
      <trkpt lat="42.8819" lon="0.1281">
        <ele>1929</ele>
        <time>2010-01-01T13:27:03Z</time>
      </trkpt>
      <trkpt lat="42.88183" lon="0.12883">
        <ele>1937</ele>
        <time>2010-01-01T13:27:24Z</time>
      </trkpt>
      <trkpt lat="42.88162" lon="0.12956">
        <ele>1945</ele>
        <time>2010-01-01T13:27:47Z</time>
      </trkpt>
      <trkpt lat="42.8816" lon="0.13005">
        <ele>1945</ele>
        <time>2010-01-01T13:28:02Z</time>
      </trkpt>
      <trkpt lat="42.88152" lon="0.13057">
        <ele>1943</ele>
        <time>2010-01-01T13:28:17Z</time>
      </trkpt>
      <trkpt lat="42.88146" lon="0.13107">
        <ele>1942</ele>
        <time>2010-01-01T13:28:32Z</time>
      </trkpt>
      <trkpt lat="42.88136" lon="0.1316">
        <ele>1950</ele>
        <time>2010-01-01T13:28:49Z</time>
      </trkpt>
      <trkpt lat="42.88123" lon="0.13268">
        <ele>1959</ele>
        <time>2010-01-01T13:29:21Z</time>
      </trkpt>
      <trkpt lat="42.88119" lon="0.13376">
        <ele>1955</ele>
        <time>2010-01-01T13:29:52Z</time>
      </trkpt>
      <trkpt lat="42.88118" lon="0.13455">
        <ele>1959</ele>
        <time>2010-01-01T13:30:16Z</time>
      </trkpt>
      <trkpt lat="42.88126" lon="0.135">
        <ele>1966</ele>
        <time>2010-01-01T13:30:29Z</time>
      </trkpt>
      <trkpt lat="42.88115" lon="0.13566">
        <ele>1980</ele>
        <time>2010-01-01T13:30:49Z</time>
      </trkpt>
      <trkpt lat="42.88109" lon="0.13698">
        <ele>2003</ele>
        <time>2010-01-01T13:31:28Z</time>
      </trkpt>
      <trkpt lat="42.88093" lon="0.1379">
        <ele>2022</ele>
        <time>2010-01-01T13:31:55Z</time>
      </trkpt>
      <trkpt lat="42.88029" lon="0.13744">
        <ele>2009</ele>
        <time>2010-01-01T13:32:24Z</time>
      </trkpt>
      <trkpt lat="42.87984" lon="0.13849">
        <ele>2026</ele>
        <time>2010-01-01T13:33:00Z</time>
      </trkpt>
      <trkpt lat="42.87948" lon="0.13939">
        <ele>2037</ele>
        <time>2010-01-01T13:33:30Z</time>
      </trkpt>
      <trkpt lat="42.87956" lon="0.14027">
        <ele>2050</ele>
        <time>2010-01-01T13:33:56Z</time>
      </trkpt>
      <trkpt lat="42.87946" lon="0.14089">
        <ele>2063</ele>
        <time>2010-01-01T13:34:15Z</time>
      </trkpt>
      <trkpt lat="42.87902" lon="0.14179">
        <ele>2072</ele>
        <time>2010-01-01T13:34:47Z</time>
      </trkpt>
      <trkpt lat="42.87883" lon="0.14279">
        <ele>2079</ele>
        <time>2010-01-01T13:35:17Z</time>
      </trkpt>
      <trkpt lat="42.87849" lon="0.14318">
        <ele>2079</ele>
        <time>2010-01-01T13:35:35Z</time>
      </trkpt>
      <trkpt lat="42.8782" lon="0.14417">
        <ele>2083</ele>
        <time>2010-01-01T13:36:06Z</time>
      </trkpt>
      <trkpt lat="42.87815" lon="0.14515">
        <ele>2098</ele>
        <time>2010-01-01T13:36:35Z</time>
      </trkpt>
      <trkpt lat="42.87786" lon="0.14595">
        <ele>2108</ele>
        <time>2010-01-01T13:37:01Z</time>
      </trkpt>
      <trkpt lat="42.87743" lon="0.14592">
        <ele>2113</ele>
        <time>2010-01-01T13:37:18Z</time>
      </trkpt>
      <trkpt lat="42.87678" lon="0.14622">
        <ele>2119</ele>
        <time>2010-01-01T13:37:46Z</time>
      </trkpt>
      <trkpt lat="42.87646" lon="0.14687">
        <ele>2120</ele>
        <time>2010-01-01T13:38:09Z</time>
      </trkpt>
      <trkpt lat="42.87613" lon="0.14807">
        <ele>2124</ele>
        <time>2010-01-01T13:38:46Z</time>
      </trkpt>
      <trkpt lat="42.87558" lon="0.14876">
        <ele>2132</ele>
        <time>2010-01-01T13:39:16Z</time>
      </trkpt>
      <trkpt lat="42.87533" lon="0.14957">
        <ele>2139</ele>
        <time>2010-01-01T13:39:42Z</time>
      </trkpt>
      <trkpt lat="42.87524" lon="0.15084">
        <ele>2149</ele>
        <time>2010-01-01T13:40:19Z</time>
      </trkpt>
      <trkpt lat="42.87513" lon="0.15159">
        <ele>2156</ele>
        <time>2010-01-01T13:40:42Z</time>
      </trkpt>
      <trkpt lat="42.8753" lon="0.15187">
        <ele>2157</ele>
        <time>2010-01-01T13:40:52Z</time>
      </trkpt>
      <trkpt lat="42.87601" lon="0.15219">
        <ele>2157</ele>
        <time>2010-01-01T13:41:22Z</time>
      </trkpt>
      <trkpt lat="42.87617" lon="0.15465">
        <ele>2168</ele>
        <time>2010-01-01T13:42:35Z</time>
      </trkpt>
      <trkpt lat="42.87669" lon="0.15626">
        <ele>2199</ele>
        <time>2010-01-01T13:43:26Z</time>
      </trkpt>
      <trkpt lat="42.87758" lon="0.15846">
        <ele>2206</ele>
        <time>2010-01-01T13:44:40Z</time>
      </trkpt>
      <trkpt lat="42.87778" lon="0.1611">
        <ele>2228</ele>
        <time>2010-01-01T13:45:58Z</time>
      </trkpt>
      <trkpt lat="42.87727" lon="0.16297">
        <ele>2253</ele>
        <time>2010-01-01T13:46:56Z</time>
      </trkpt>
      <trkpt lat="42.87727" lon="0.16421">
        <ele>2265</ele>
        <time>2010-01-01T13:47:33Z</time>
      </trkpt>
      <trkpt lat="42.87665" lon="0.16626">
        <ele>2288</ele>
        <time>2010-01-01T13:48:38Z</time>
      </trkpt>
      <trkpt lat="42.87598" lon="0.16791">
        <ele>2313</ele>
        <time>2010-01-01T13:49:33Z</time>
      </trkpt>
      <trkpt lat="42.87592" lon="0.1686">
        <ele>2322</ele>
        <time>2010-01-01T13:49:54Z</time>
      </trkpt>
      <trkpt lat="42.87574" lon="0.16854">
        <ele>2327</ele>
        <time>2010-01-01T13:50:01Z</time>
      </trkpt>
      <trkpt lat="42.87561" lon="0.16875">
        <ele>2333</ele>
        <time>2010-01-01T13:50:09Z</time>
      </trkpt>
      <trkpt lat="42.8755" lon="0.16929">
        <ele>2345</ele>
        <time>2010-01-01T13:50:26Z</time>
      </trkpt>
      <trkpt lat="42.87542" lon="0.16956">
        <ele>2351</ele>
        <time>2010-01-01T13:50:34Z</time>
      </trkpt>
      <trkpt lat="42.87526" lon="0.16985">
        <ele>2361</ele>
        <time>2010-01-01T13:50:45Z</time>
      </trkpt>
      <trkpt lat="42.87511" lon="0.17034">
        <ele>2373</ele>
        <time>2010-01-01T13:51:01Z</time>
      </trkpt>
      <trkpt lat="42.87487" lon="0.17103">
        <ele>2396</ele>
        <time>2010-01-01T13:51:23Z</time>
      </trkpt>
      <trkpt lat="42.87478" lon="0.17102">
        <ele>2399</ele>
        <time>2010-01-01T13:51:27Z</time>
      </trkpt>
      <trkpt lat="42.87477" lon="0.17121">
        <ele>2404</ele>
        <time>2010-01-01T13:51:33Z</time>
      </trkpt>
      <trkpt lat="42.87456" lon="0.17119">
        <ele>2414</ele>
        <time>2010-01-01T13:51:41Z</time>
      </trkpt>
      <trkpt lat="42.8746" lon="0.1713">
        <ele>2415</ele>
        <time>2010-01-01T13:51:45Z</time>
      </trkpt>
      <trkpt lat="42.87453" lon="0.17132">
        <ele>2419</ele>
        <time>2010-01-01T13:51:48Z</time>
      </trkpt>
      <trkpt lat="42.87457" lon="0.1714">
        <ele>2419</ele>
        <time>2010-01-01T13:51:51Z</time>
      </trkpt>
      <trkpt lat="42.87436" lon="0.17147">
        <ele>2433</ele>
        <time>2010-01-01T13:51:59Z</time>
      </trkpt>
      <trkpt lat="42.87442" lon="0.17165">
        <ele>2433</ele>
        <time>2010-01-01T13:52:05Z</time>
      </trkpt>
      <trkpt lat="42.87437" lon="0.17169">
        <ele>2437</ele>
        <time>2010-01-01T13:52:07Z</time>
      </trkpt>
      <trkpt lat="42.87439" lon="0.17176">
        <ele>2438</ele>
        <time>2010-01-01T13:52:09Z</time>
      </trkpt>
      <trkpt lat="42.87434" lon="0.17177">
        <ele>2441</ele>
        <time>2010-01-01T13:52:12Z</time>
      </trkpt>
      <trkpt lat="42.87434" lon="0.17192">
        <ele>2447</ele>
        <time>2010-01-01T13:52:16Z</time>
      </trkpt>
      <trkpt lat="42.87415" lon="0.17203">
        <ele>2457</ele>
        <time>2010-01-01T13:52:24Z</time>
      </trkpt>
      <trkpt lat="42.87384" lon="0.17212">
        <ele>2464</ele>
        <time>2010-01-01T13:52:37Z</time>
      </trkpt>
      <trkpt lat="42.87373" lon="0.1721">
        <ele>2463</ele>
        <time>2010-01-01T13:52:41Z</time>
      </trkpt>
      <trkpt lat="42.87358" lon="0.1721">
        <ele>2460</ele>
        <time>2010-01-01T13:52:47Z</time>
      </trkpt>
      <trkpt lat="42.87347" lon="0.17245">
        <ele>2448</ele>
        <time>2010-01-01T13:52:58Z</time>
      </trkpt>
      <trkpt lat="42.87353" lon="0.17286">
        <ele>2435</ele>
        <time>2010-01-01T13:53:10Z</time>
      </trkpt>
      <trkpt lat="42.87357" lon="0.17295">
        <ele>2434</ele>
        <time>2010-01-01T13:53:14Z</time>
      </trkpt>
      <trkpt lat="42.8737" lon="0.17305">
        <ele>2437</ele>
        <time>2010-01-01T13:53:20Z</time>
      </trkpt>
      <trkpt lat="42.87392" lon="0.17362">
        <ele>2428</ele>
        <time>2010-01-01T13:53:38Z</time>
      </trkpt>
      <trkpt lat="42.87395" lon="0.1739">
        <ele>2421</ele>
        <time>2010-01-01T13:53:47Z</time>
      </trkpt>
      <trkpt lat="42.87395" lon="0.17455">
        <ele>2408</ele>
        <time>2010-01-01T13:54:06Z</time>
      </trkpt>
      <trkpt lat="42.87402" lon="0.17495">
        <ele>2406</ele>
        <time>2010-01-01T13:54:18Z</time>
      </trkpt>
      <trkpt lat="42.87415" lon="0.17529">
        <ele>2406</ele>
        <time>2010-01-01T13:54:29Z</time>
      </trkpt>
      <trkpt lat="42.87402" lon="0.17576">
        <ele>2391</ele>
        <time>2010-01-01T13:54:44Z</time>
      </trkpt>
      <trkpt lat="42.87408" lon="0.17598">
        <ele>2387</ele>
        <time>2010-01-01T13:54:51Z</time>
      </trkpt>
      <trkpt lat="42.87402" lon="0.17646">
        <ele>2378</ele>
        <time>2010-01-01T13:55:05Z</time>
      </trkpt>
      <trkpt lat="42.87385" lon="0.17679">
        <ele>2370</ele>
        <time>2010-01-01T13:55:17Z</time>
      </trkpt>
      <trkpt lat="42.87357" lon="0.17732">
        <ele>2359</ele>
        <time>2010-01-01T13:55:36Z</time>
      </trkpt>
      <trkpt lat="42.87317" lon="0.17788">
        <ele>2346</ele>
        <time>2010-01-01T13:55:59Z</time>
      </trkpt>
      <trkpt lat="42.87262" lon="0.17873">
        <ele>2333</ele>
        <time>2010-01-01T13:56:32Z</time>
      </trkpt>
      <trkpt lat="42.87211" lon="0.17939">
        <ele>2328</ele>
        <time>2010-01-01T13:57:01Z</time>
      </trkpt>
      <trkpt lat="42.87226" lon="0.18063">
        <ele>2327</ele>
        <time>2010-01-01T13:57:37Z</time>
      </trkpt>
      <trkpt lat="42.8722" lon="0.18165">
        <ele>2320</ele>
        <time>2010-01-01T13:58:07Z</time>
      </trkpt>
      <trkpt lat="42.87237" lon="0.1818">
        <ele>2317</ele>
        <time>2010-01-01T13:58:15Z</time>
      </trkpt>
      <trkpt lat="42.8723" lon="0.1822">
        <ele>2307</ele>
        <time>2010-01-01T13:58:27Z</time>
      </trkpt>
      <trkpt lat="42.87205" lon="0.18255">
        <ele>2299</ele>
        <time>2010-01-01T13:58:42Z</time>
      </trkpt>
      <trkpt lat="42.87186" lon="0.18289">
        <ele>2293</ele>
        <time>2010-01-01T13:58:54Z</time>
      </trkpt>
      <trkpt lat="42.87189" lon="0.18316">
        <ele>2291</ele>
        <time>2010-01-01T13:59:03Z</time>
      </trkpt>
      <trkpt lat="42.87179" lon="0.18338">
        <ele>2289</ele>
        <time>2010-01-01T13:59:10Z</time>
      </trkpt>
      <trkpt lat="42.87181" lon="0.18352">
        <ele>2289</ele>
        <time>2010-01-01T13:59:14Z</time>
      </trkpt>
      <trkpt lat="42.87177" lon="0.18387">
        <ele>2288</ele>
        <time>2010-01-01T13:59:25Z</time>
      </trkpt>
      <trkpt lat="42.87179" lon="0.18407">
        <ele>2288</ele>
        <time>2010-01-01T13:59:31Z</time>
      </trkpt>
      <trkpt lat="42.8717" lon="0.18432">
        <ele>2288</ele>
        <time>2010-01-01T13:59:39Z</time>
      </trkpt>
      <trkpt lat="42.87159" lon="0.18494">
        <ele>2289</ele>
        <time>2010-01-01T13:59:58Z</time>
      </trkpt>
      <trkpt lat="42.87146" lon="0.1851">
        <ele>2288</ele>
        <time>2010-01-01T14:00:05Z</time>
      </trkpt>
      <trkpt lat="42.87151" lon="0.18543">
        <ele>2290</ele>
        <time>2010-01-01T14:00:15Z</time>
      </trkpt>
      <trkpt lat="42.87136" lon="0.18597">
        <ele>2290</ele>
        <time>2010-01-01T14:00:32Z</time>
      </trkpt>
      <trkpt lat="42.87114" lon="0.18607">
        <ele>2287</ele>
        <time>2010-01-01T14:00:41Z</time>
      </trkpt>
      <trkpt lat="42.87108" lon="0.18671">
        <ele>2287.7893</ele>
        <time>2010-01-01T14:00:59Z</time>
      </trkpt>
      <trkpt lat="42.8707" lon="0.18714">
        <ele>2283.0153</ele>
        <time>2010-01-01T14:01:19Z</time>
      </trkpt>
      <trkpt lat="42.86993" lon="0.18674">
        <ele>2259.8913</ele>
        <time>2010-01-01T14:01:52Z</time>
      </trkpt>
      <trkpt lat="42.86933" lon="0.18704">
        <ele>2237.6828</ele>
        <time>2010-01-01T14:02:18Z</time>
      </trkpt>
      <trkpt lat="42.86873" lon="0.18747">
        <ele>2219.8713</ele>
        <time>2010-01-01T14:02:45Z</time>
      </trkpt>
      <trkpt lat="42.86803" lon="0.18807">
        <ele>2219.3586</ele>
        <time>2010-01-01T14:03:18Z</time>
      </trkpt>
      <trkpt lat="42.8675" lon="0.18846">
        <ele>2215.5258</ele>
        <time>2010-01-01T14:03:42Z</time>
      </trkpt>
      <trkpt lat="42.86675" lon="0.18898">
        <ele>2214.5808</ele>
        <time>2010-01-01T14:04:15Z</time>
      </trkpt>
      <trkpt lat="42.8665" lon="0.18955">
        <ele>2217.9411</ele>
        <time>2010-01-01T14:04:35Z</time>
      </trkpt>
      <trkpt lat="42.86637" lon="0.19033">
        <ele>2224.7087</ele>
        <time>2010-01-01T14:04:59Z</time>
      </trkpt>
      <trkpt lat="42.86595" lon="0.19068">
        <ele>2238.768</ele>
        <time>2010-01-01T14:05:18Z</time>
      </trkpt>
      <trkpt lat="42.86546" lon="0.19109">
        <ele>2247.9394</ele>
        <time>2010-01-01T14:05:42Z</time>
      </trkpt>
      <trkpt lat="42.86493" lon="0.19148">
        <ele>2257.2241</ele>
        <time>2010-01-01T14:06:06Z</time>
      </trkpt>
      <trkpt lat="42.86437" lon="0.19187">
        <ele>2258.7822</ele>
        <time>2010-01-01T14:06:31Z</time>
      </trkpt>
      <trkpt lat="42.86386" lon="0.19258">
        <ele>2260.7131</ele>
        <time>2010-01-01T14:07:00Z</time>
      </trkpt>
      <trkpt lat="42.86334" lon="0.19296">
        <ele>2261.0651</ele>
        <time>2010-01-01T14:07:23Z</time>
      </trkpt>
      <trkpt lat="42.86281" lon="0.19333">
        <ele>2265.7885</ele>
        <time>2010-01-01T14:07:47Z</time>
      </trkpt>
      <trkpt lat="42.86228" lon="0.19381">
        <ele>2277.4902</ele>
        <time>2010-01-01T14:08:13Z</time>
      </trkpt>
      <trkpt lat="42.8617" lon="0.19423">
        <ele>2273.35</ele>
        <time>2010-01-01T14:08:39Z</time>
      </trkpt>
      <trkpt lat="42.86115" lon="0.19492">
        <ele>2257.0271</ele>
        <time>2010-01-01T14:09:09Z</time>
      </trkpt>
      <trkpt lat="42.86093" lon="0.19558">
        <ele>2256.7224</ele>
        <time>2010-01-01T14:09:30Z</time>
      </trkpt>
      <trkpt lat="42.86058" lon="0.19615">
        <ele>2256.6174</ele>
        <time>2010-01-01T14:09:52Z</time>
      </trkpt>
      <trkpt lat="42.86019" lon="0.19684">
        <ele>2255.9638</ele>
        <time>2010-01-01T14:10:17Z</time>
      </trkpt>
      <trkpt lat="42.86016" lon="0.19778">
        <ele>2259.4975</ele>
        <time>2010-01-01T14:10:45Z</time>
      </trkpt>
      <trkpt lat="42.85981" lon="0.19834">
        <ele>2256.1687</ele>
        <time>2010-01-01T14:11:07Z</time>
      </trkpt>
      <trkpt lat="42.85919" lon="0.19861">
        <ele>2236.9331</ele>
        <time>2010-01-01T14:11:33Z</time>
      </trkpt>
      <trkpt lat="42.8586" lon="0.19921">
        <ele>2226.9492</ele>
        <time>2010-01-01T14:12:02Z</time>
      </trkpt>
      <trkpt lat="42.85804" lon="0.19963">
        <ele>2203.9108</ele>
        <time>2010-01-01T14:12:28Z</time>
      </trkpt>
      <trkpt lat="42.85754" lon="0.20013">
        <ele>2212.4914</ele>
        <time>2010-01-01T14:12:53Z</time>
      </trkpt>
      <trkpt lat="42.85725" lon="0.20105">
        <ele>2226.5229</ele>
        <time>2010-01-01T14:13:22Z</time>
      </trkpt>
      <trkpt lat="42.85704" lon="0.20162">
        <ele>2240.3798</ele>
        <time>2010-01-01T14:13:41Z</time>
      </trkpt>
      <trkpt lat="42.85656" lon="0.20202">
        <ele>2259.3591</ele>
        <time>2010-01-01T14:14:03Z</time>
      </trkpt>
      <trkpt lat="42.85635" lon="0.20248">
        <ele>2277.2014</ele>
        <time>2010-01-01T14:14:19Z</time>
      </trkpt>
      <trkpt lat="42.85667" lon="0.20288">
        <ele>2290.4335</ele>
        <time>2010-01-01T14:14:36Z</time>
      </trkpt>
      <trkpt lat="42.85697" lon="0.20363">
        <ele>2313.4987</ele>
        <time>2010-01-01T14:15:02Z</time>
      </trkpt>
      <trkpt lat="42.85735" lon="0.20425">
        <ele>2320.8149</ele>
        <time>2010-01-01T14:15:25Z</time>
      </trkpt>
      <trkpt lat="42.85751" lon="0.20493">
        <ele>2324.613</ele>
        <time>2010-01-01T14:15:46Z</time>
      </trkpt>
      <trkpt lat="42.85719" lon="0.20557">
        <ele>2319.9641</ele>
        <time>2010-01-01T14:16:09Z</time>
      </trkpt>
      <trkpt lat="42.85676" lon="0.20627">
        <ele>2315.5693</ele>
        <time>2010-01-01T14:16:36Z</time>
      </trkpt>
      <trkpt lat="42.85655" lon="0.20707">
        <ele>2303.82</ele>
        <time>2010-01-01T14:17:01Z</time>
      </trkpt>
      <trkpt lat="42.85595" lon="0.20754">
        <ele>2289.0651</ele>
        <time>2010-01-01T14:17:28Z</time>
      </trkpt>
      <trkpt lat="42.85593" lon="0.20849">
        <ele>2273.4592</ele>
        <time>2010-01-01T14:17:56Z</time>
      </trkpt>
      <trkpt lat="42.85559" lon="0.2093">
        <ele>2266.4978</ele>
        <time>2010-01-01T14:18:24Z</time>
      </trkpt>
      <trkpt lat="42.85506" lon="0.20975">
        <ele>2260.2646</ele>
        <time>2010-01-01T14:18:49Z</time>
      </trkpt>
      <trkpt lat="42.85432" lon="0.20981">
        <ele>2255.4816</ele>
        <time>2010-01-01T14:19:18Z</time>
      </trkpt>
      <trkpt lat="42.85364" lon="0.20989">
        <ele>2253.8798</ele>
        <time>2010-01-01T14:19:45Z</time>
      </trkpt>
      <trkpt lat="42.85312" lon="0.21043">
        <ele>2251.5871</ele>
        <time>2010-01-01T14:20:12Z</time>
      </trkpt>
      <trkpt lat="42.85268" lon="0.21097">
        <ele>2243.6635</ele>
        <time>2010-01-01T14:20:35Z</time>
      </trkpt>
      <trkpt lat="42.85217" lon="0.21138">
        <ele>2233.6916</ele>
        <time>2010-01-01T14:20:59Z</time>
      </trkpt>
      <trkpt lat="42.85157" lon="0.21171">
        <ele>2228.6718</ele>
        <time>2010-01-01T14:21:25Z</time>
      </trkpt>
      <trkpt lat="42.85097" lon="0.21204">
        <ele>2234.3208</ele>
        <time>2010-01-01T14:21:51Z</time>
      </trkpt>
      <trkpt lat="42.8503" lon="0.21219">
        <ele>2228.8469</ele>
        <time>2010-01-01T14:22:18Z</time>
      </trkpt>
      <trkpt lat="42.8497" lon="0.21251">
        <ele>2225.8725</ele>
        <time>2010-01-01T14:22:44Z</time>
      </trkpt>
      <trkpt lat="42.8491" lon="0.21272">
        <ele>2226.5915</ele>
        <time>2010-01-01T14:23:09Z</time>
      </trkpt>
      <trkpt lat="42.84874" lon="0.21304">
        <ele>2226.8405</ele>
        <time>2010-01-01T14:23:26Z</time>
      </trkpt>
      <trkpt lat="42.84819" lon="0.21345">
        <ele>2222.1762</ele>
        <time>2010-01-01T14:23:51Z</time>
      </trkpt>
      <trkpt lat="42.84767" lon="0.21314">
        <ele>2209.0451</ele>
        <time>2010-01-01T14:24:14Z</time>
      </trkpt>
      <trkpt lat="42.84721" lon="0.2126">
        <ele>2202.0151</ele>
        <time>2010-01-01T14:24:38Z</time>
      </trkpt>
      <trkpt lat="42.84655" lon="0.21238">
        <ele>2198.874</ele>
        <time>2010-01-01T14:25:05Z</time>
      </trkpt>
      <trkpt lat="42.84609" lon="0.21182">
        <ele>2190.1313</ele>
        <time>2010-01-01T14:25:30Z</time>
      </trkpt>
      <trkpt lat="42.84561" lon="0.21129">
        <ele>2184.9531</ele>
        <time>2010-01-01T14:25:55Z</time>
      </trkpt>
      <trkpt lat="42.84515" lon="0.2107">
        <ele>2180.2617</ele>
        <time>2010-01-01T14:26:20Z</time>
      </trkpt>
      <trkpt lat="42.84466" lon="0.21013">
        <ele>2171.9533</ele>
        <time>2010-01-01T14:26:46Z</time>
      </trkpt>
      <trkpt lat="42.84405" lon="0.20985">
        <ele>2161.8686</ele>
        <time>2010-01-01T14:27:11Z</time>
      </trkpt>
      <trkpt lat="42.84335" lon="0.20975">
        <ele>2157.6274</ele>
        <time>2010-01-01T14:27:40Z</time>
      </trkpt>
      <trkpt lat="42.84272" lon="0.20956">
        <ele>2153.1159</ele>
        <time>2010-01-01T14:28:05Z</time>
      </trkpt>
      <trkpt lat="42.84215" lon="0.20922">
        <ele>2141.8413</ele>
        <time>2010-01-01T14:28:30Z</time>
      </trkpt>
      <trkpt lat="42.84158" lon="0.20887">
        <ele>2136.6992</ele>
        <time>2010-01-01T14:28:55Z</time>
      </trkpt>
      <trkpt lat="42.84101" lon="0.2085">
        <ele>2136.2297</ele>
        <time>2010-01-01T14:29:21Z</time>
      </trkpt>
      <trkpt lat="42.84038" lon="0.20837">
        <ele>2140.3269</ele>
        <time>2010-01-01T14:29:46Z</time>
      </trkpt>
      <trkpt lat="42.83979" lon="0.20811">
        <ele>2141.2229</ele>
        <time>2010-01-01T14:30:11Z</time>
      </trkpt>
      <trkpt lat="42.83914" lon="0.20823">
        <ele>2145.4948</ele>
        <time>2010-01-01T14:30:37Z</time>
      </trkpt>
      <trkpt lat="42.83845" lon="0.20832">
        <ele>2141.9467</ele>
        <time>2010-01-01T14:31:05Z</time>
      </trkpt>
      <trkpt lat="42.83778" lon="0.20846">
        <ele>2135.8247</ele>
        <time>2010-01-01T14:31:32Z</time>
      </trkpt>
      <trkpt lat="42.83706" lon="0.20852">
        <ele>2125.8625</ele>
        <time>2010-01-01T14:32:01Z</time>
      </trkpt>
      <trkpt lat="42.83641" lon="0.20867">
        <ele>2127.9169</ele>
        <time>2010-01-01T14:32:27Z</time>
      </trkpt>
      <trkpt lat="42.83583" lon="0.20869">
        <ele>2123.8005</ele>
        <time>2010-01-01T14:32:51Z</time>
      </trkpt>
      <trkpt lat="42.83527" lon="0.20904">
        <ele>2132.4116</ele>
        <time>2010-01-01T14:33:15Z</time>
      </trkpt>
      <trkpt lat="42.83463" lon="0.20931">
        <ele>2137.5131</ele>
        <time>2010-01-01T14:33:42Z</time>
      </trkpt>
      <trkpt lat="42.834" lon="0.20949">
        <ele>2131.227</ele>
        <time>2010-01-01T14:34:08Z</time>
      </trkpt>
      <trkpt lat="42.83336" lon="0.20966">
        <ele>2123.937</ele>
        <time>2010-01-01T14:34:34Z</time>
      </trkpt>
      <trkpt lat="42.83275" lon="0.20993">
        <ele>2136.1203</ele>
        <time>2010-01-01T14:35:00Z</time>
      </trkpt>
      <trkpt lat="42.83213" lon="0.2102">
        <ele>2132.1323</ele>
        <time>2010-01-01T14:35:26Z</time>
      </trkpt>
      <trkpt lat="42.83165" lon="0.2107">
        <ele>2132.9733</ele>
        <time>2010-01-01T14:35:50Z</time>
      </trkpt>
      <trkpt lat="42.8313" lon="0.21136">
        <ele>2131.2185</ele>
        <time>2010-01-01T14:36:14Z</time>
      </trkpt>
      <trkpt lat="42.83089" lon="0.21201">
        <ele>2121.3808</ele>
        <time>2010-01-01T14:36:39Z</time>
      </trkpt>
      <trkpt lat="42.83047" lon="0.21255">
        <ele>2109.8251</ele>
        <time>2010-01-01T14:37:02Z</time>
      </trkpt>
      <trkpt lat="42.83028" lon="0.21332">
        <ele>2103.9794</ele>
        <time>2010-01-01T14:37:26Z</time>
      </trkpt>
      <trkpt lat="42.82996" lon="0.21388">
        <ele>2097.697</ele>
        <time>2010-01-01T14:37:47Z</time>
      </trkpt>
      <trkpt lat="42.8294" lon="0.21423">
        <ele>2086.447</ele>
        <time>2010-01-01T14:38:11Z</time>
      </trkpt>
      <trkpt lat="42.82929" lon="0.21509">
        <ele>2085.3415</ele>
        <time>2010-01-01T14:38:37Z</time>
      </trkpt>
      <trkpt lat="42.82919" lon="0.21595">
        <ele>2078.3901</ele>
        <time>2010-01-01T14:39:03Z</time>
      </trkpt>
      <trkpt lat="42.82907" lon="0.21681">
        <ele>2065.164</ele>
        <time>2010-01-01T14:39:28Z</time>
      </trkpt>
      <trkpt lat="42.82893" lon="0.21764">
        <ele>2057.6816</ele>
        <time>2010-01-01T14:39:53Z</time>
      </trkpt>
      <trkpt lat="42.82879" lon="0.21847">
        <ele>2051.1049</ele>
        <time>2010-01-01T14:40:18Z</time>
      </trkpt>
      <trkpt lat="42.82867" lon="0.2193">
        <ele>2042.4799</ele>
        <time>2010-01-01T14:40:43Z</time>
      </trkpt>
      <trkpt lat="42.82851" lon="0.22013">
        <ele>2037.9354</ele>
        <time>2010-01-01T14:41:08Z</time>
      </trkpt>
      <trkpt lat="42.82846" lon="0.22101">
        <ele>2038.7243</ele>
        <time>2010-01-01T14:41:34Z</time>
      </trkpt>
      <trkpt lat="42.82841" lon="0.2219">
        <ele>2040.5699</ele>
        <time>2010-01-01T14:42:00Z</time>
      </trkpt>
      <trkpt lat="42.82852" lon="0.22272">
        <ele>2046.951</ele>
        <time>2010-01-01T14:42:25Z</time>
      </trkpt>
      <trkpt lat="42.82842" lon="0.22434">
        <ele>2065</ele>
        <time>2010-01-01T14:43:13Z</time>
      </trkpt>
      <trkpt lat="42.82844" lon="0.22538">
        <ele>2078</ele>
        <time>2010-01-01T14:43:43Z</time>
      </trkpt>
      <trkpt lat="42.82877" lon="0.22686">
        <ele>2100</ele>
        <time>2010-01-01T14:44:29Z</time>
      </trkpt>
      <trkpt lat="42.82898" lon="0.2279">
        <ele>2112</ele>
        <time>2010-01-01T14:45:00Z</time>
      </trkpt>
      <trkpt lat="42.82937" lon="0.22904">
        <ele>2128</ele>
        <time>2010-01-01T14:45:37Z</time>
      </trkpt>
      <trkpt lat="42.82996" lon="0.23054">
        <ele>2149</ele>
        <time>2010-01-01T14:46:27Z</time>
      </trkpt>
      <trkpt lat="42.83054" lon="0.23153">
        <ele>2164</ele>
        <time>2010-01-01T14:47:04Z</time>
      </trkpt>
      <trkpt lat="42.83102" lon="0.23306">
        <ele>2186</ele>
        <time>2010-01-01T14:47:53Z</time>
      </trkpt>
      <trkpt lat="42.83185" lon="0.23429">
        <ele>2203</ele>
        <time>2010-01-01T14:48:42Z</time>
      </trkpt>
      <trkpt lat="42.83267" lon="0.23572">
        <ele>2218</ele>
        <time>2010-01-01T14:49:36Z</time>
      </trkpt>
      <trkpt lat="42.83329" lon="0.23664">
        <ele>2213</ele>
        <time>2010-01-01T14:50:12Z</time>
      </trkpt>
      <trkpt lat="42.83426" lon="0.23688">
        <ele>2197</ele>
        <time>2010-01-01T14:50:52Z</time>
      </trkpt>
      <trkpt lat="42.83485" lon="0.23734">
        <ele>2183</ele>
        <time>2010-01-01T14:51:19Z</time>
      </trkpt>
      <trkpt lat="42.83393" lon="0.23893">
        <ele>2130</ele>
        <time>2010-01-01T14:52:18Z</time>
      </trkpt>
      <trkpt lat="42.83268" lon="0.24015">
        <ele>2104</ele>
        <time>2010-01-01T14:53:20Z</time>
      </trkpt>
      <trkpt lat="42.83343" lon="0.24077">
        <ele>2066</ele>
        <time>2010-01-01T14:53:55Z</time>
      </trkpt>
      <trkpt lat="42.83374" lon="0.24164">
        <ele>2043</ele>
        <time>2010-01-01T14:54:23Z</time>
      </trkpt>
      <trkpt lat="42.83313" lon="0.24388">
        <ele>1993</ele>
        <time>2010-01-01T14:55:34Z</time>
      </trkpt>
      <trkpt lat="42.83282" lon="0.24484">
        <ele>1973</ele>
        <time>2010-01-01T14:56:04Z</time>
      </trkpt>
      <trkpt lat="42.83227" lon="0.24642">
        <ele>1939</ele>
        <time>2010-01-01T14:56:56Z</time>
      </trkpt>
      <trkpt lat="42.83188" lon="0.24683">
        <ele>1932</ele>
        <time>2010-01-01T14:57:15Z</time>
      </trkpt>
      <trkpt lat="42.83141" lon="0.24709">
        <ele>1931</ele>
        <time>2010-01-01T14:57:36Z</time>
      </trkpt>
      <trkpt lat="42.83062" lon="0.247">
        <ele>1929</ele>
        <time>2010-01-01T14:58:07Z</time>
      </trkpt>
      <trkpt lat="42.83015" lon="0.24689">
        <ele>1931</ele>
        <time>2010-01-01T14:58:27Z</time>
      </trkpt>
      <trkpt lat="42.82977" lon="0.2473">
        <ele>1913</ele>
        <time>2010-01-01T14:58:46Z</time>
      </trkpt>
      <trkpt lat="42.82947" lon="0.24792">
        <ele>1900</ele>
        <time>2010-01-01T14:59:08Z</time>
      </trkpt>
      <trkpt lat="42.82917" lon="0.24867">
        <ele>1885</ele>
        <time>2010-01-01T14:59:33Z</time>
      </trkpt>
      <trkpt lat="42.82871" lon="0.24908">
        <ele>1875</ele>
        <time>2010-01-01T14:59:55Z</time>
      </trkpt>
      <trkpt lat="42.82795" lon="0.24926">
        <ele>1863</ele>
        <time>2010-01-01T15:00:26Z</time>
      </trkpt>
      <trkpt lat="42.82582" lon="0.24848">
        <ele>1855</ele>
        <time>2010-01-01T15:01:54Z</time>
      </trkpt>
      <trkpt lat="42.82551" lon="0.2488">
        <ele>1847</ele>
        <time>2010-01-01T15:02:09Z</time>
      </trkpt>
      <trkpt lat="42.82523" lon="0.25061">
        <ele>1824</ele>
        <time>2010-01-01T15:03:04Z</time>
      </trkpt>
      <trkpt lat="42.82498" lon="0.25172">
        <ele>1817</ele>
        <time>2010-01-01T15:03:38Z</time>
      </trkpt>
      <trkpt lat="42.82462" lon="0.25258">
        <ele>1802</ele>
        <time>2010-01-01T15:04:07Z</time>
      </trkpt>
      <trkpt lat="42.82381" lon="0.25344">
        <ele>1792</ele>
        <time>2010-01-01T15:04:48Z</time>
      </trkpt>
      <trkpt lat="42.82312" lon="0.2552">
        <ele>1771</ele>
        <time>2010-01-01T15:05:47Z</time>
      </trkpt>
      <trkpt lat="42.82334" lon="0.25589">
        <ele>1750</ele>
        <time>2010-01-01T15:06:09Z</time>
      </trkpt>
      <trkpt lat="42.82376" lon="0.25695">
        <ele>1715</ele>
        <time>2010-01-01T15:06:44Z</time>
      </trkpt>
      <trkpt lat="42.82403" lon="0.25822">
        <ele>1689</ele>
        <time>2010-01-01T15:07:23Z</time>
      </trkpt>
      <trkpt lat="42.82373" lon="0.25878">
        <ele>1698</ele>
        <time>2010-01-01T15:07:43Z</time>
      </trkpt>
      <trkpt lat="42.82391" lon="0.26005">
        <ele>1665</ele>
        <time>2010-01-01T15:08:21Z</time>
      </trkpt>
      <trkpt lat="42.82382" lon="0.26103">
        <ele>1660</ele>
        <time>2010-01-01T15:08:50Z</time>
      </trkpt>
      <trkpt lat="42.82383" lon="0.26216">
        <ele>1650</ele>
        <time>2010-01-01T15:09:24Z</time>
      </trkpt>
      <trkpt lat="42.82418" lon="0.2609">
        <ele>1637</ele>
        <time>2010-01-01T15:10:03Z</time>
      </trkpt>
      <trkpt lat="42.82453" lon="0.25942">
        <ele>1629</ele>
        <time>2010-01-01T15:10:49Z</time>
      </trkpt>
      <trkpt lat="42.82525" lon="0.2579">
        <ele>1604</ele>
        <time>2010-01-01T15:11:42Z</time>
      </trkpt>
      <trkpt lat="42.82502" lon="0.25913">
        <ele>1602</ele>
        <time>2010-01-01T15:12:19Z</time>
      </trkpt>
      <trkpt lat="42.825" lon="0.26053">
        <ele>1586</ele>
        <time>2010-01-01T15:13:00Z</time>
      </trkpt>
      <trkpt lat="42.82532" lon="0.26042">
        <ele>1573</ele>
        <time>2010-01-01T15:13:13Z</time>
      </trkpt>
      <trkpt lat="42.82561" lon="0.26057">
        <ele>1570</ele>
        <time>2010-01-01T15:13:26Z</time>
      </trkpt>
      <trkpt lat="42.82573" lon="0.26219">
        <ele>1547</ele>
        <time>2010-01-01T15:14:13Z</time>
      </trkpt>
      <trkpt lat="42.82577" lon="0.2646">
        <ele>1534</ele>
        <time>2010-01-01T15:15:24Z</time>
      </trkpt>
      <trkpt lat="42.82589" lon="0.26593">
        <ele>1528</ele>
        <time>2010-01-01T15:16:04Z</time>
      </trkpt>
      <trkpt lat="42.82579" lon="0.26646">
        <ele>1520</ele>
        <time>2010-01-01T15:16:20Z</time>
      </trkpt>
      <trkpt lat="42.82581" lon="0.2674">
        <ele>1508</ele>
        <time>2010-01-01T15:16:47Z</time>
      </trkpt>
      <trkpt lat="42.826" lon="0.26804">
        <ele>1505</ele>
        <time>2010-01-01T15:17:08Z</time>
      </trkpt>
      <trkpt lat="42.8262" lon="0.26922">
        <ele>1498</ele>
        <time>2010-01-01T15:17:43Z</time>
      </trkpt>
      <trkpt lat="42.82617" lon="0.26977">
        <ele>1492</ele>
        <time>2010-01-01T15:17:59Z</time>
      </trkpt>
      <trkpt lat="42.82582" lon="0.26938">
        <ele>1486</ele>
        <time>2010-01-01T15:18:17Z</time>
      </trkpt>
      <trkpt lat="42.82567" lon="0.26957">
        <ele>1489</ele>
        <time>2010-01-01T15:18:26Z</time>
      </trkpt>
      <trkpt lat="42.82567" lon="0.27092">
        <ele>1480</ele>
        <time>2010-01-01T15:19:05Z</time>
      </trkpt>
      <trkpt lat="42.82508" lon="0.27182">
        <ele>1492</ele>
        <time>2010-01-01T15:19:40Z</time>
      </trkpt>
      <trkpt lat="42.82494" lon="0.27506">
        <ele>1481</ele>
        <time>2010-01-01T15:21:16Z</time>
      </trkpt>
      <trkpt lat="42.82494" lon="0.27625">
        <ele>1474</ele>
        <time>2010-01-01T15:21:51Z</time>
      </trkpt>
      <trkpt lat="42.82435" lon="0.28054">
        <ele>1474</ele>
        <time>2010-01-01T15:23:59Z</time>
      </trkpt>
      <trkpt lat="42.82438" lon="0.28186">
        <ele>1460</ele>
        <time>2010-01-01T15:24:37Z</time>
      </trkpt>
      <trkpt lat="42.82403" lon="0.28248">
        <ele>1476</ele>
        <time>2010-01-01T15:25:00Z</time>
      </trkpt>
      <trkpt lat="42.82397" lon="0.28395">
        <ele>1461</ele>
        <time>2010-01-01T15:25:44Z</time>
      </trkpt>
      <trkpt lat="42.8235" lon="0.28518">
        <ele>1461</ele>
        <time>2010-01-01T15:26:24Z</time>
      </trkpt>
      <trkpt lat="42.82333" lon="0.28586">
        <ele>1450</ele>
        <time>2010-01-01T15:26:45Z</time>
      </trkpt>
      <trkpt lat="42.82398" lon="0.28675">
        <ele>1413</ele>
        <time>2010-01-01T15:27:22Z</time>
      </trkpt>
      <trkpt lat="42.82434" lon="0.28918">
        <ele>1370</ele>
        <time>2010-01-01T15:28:35Z</time>
      </trkpt>
      <trkpt lat="42.82526" lon="0.29424">
        <ele>1311</ele>
        <time>2010-01-01T15:31:08Z</time>
      </trkpt>
      <trkpt lat="42.82504" lon="0.29463">
        <ele>1306</ele>
        <time>2010-01-01T15:31:23Z</time>
      </trkpt>
      <trkpt lat="42.82482" lon="0.2953">
        <ele>1291</ele>
        <time>2010-01-01T15:31:44Z</time>
      </trkpt>
      <trkpt lat="42.82454" lon="0.2952">
        <ele>1288</ele>
        <time>2010-01-01T15:31:56Z</time>
      </trkpt>
      <trkpt lat="42.82435" lon="0.29528">
        <ele>1289</ele>
        <time>2010-01-01T15:32:04Z</time>
      </trkpt>
      <trkpt lat="42.82449" lon="0.29705">
        <ele>1275</ele>
        <time>2010-01-01T15:32:56Z</time>
      </trkpt>
      <trkpt lat="42.82447" lon="0.29833">
        <ele>1255</ele>
        <time>2010-01-01T15:33:34Z</time>
      </trkpt>
      <trkpt lat="42.82424" lon="0.29932">
        <ele>1240</ele>
        <time>2010-01-01T15:34:04Z</time>
      </trkpt>
      <trkpt lat="42.82379" lon="0.30019">
        <ele>1238</ele>
        <time>2010-01-01T15:34:35Z</time>
      </trkpt>
      <trkpt lat="42.82381" lon="0.30134">
        <ele>1225</ele>
        <time>2010-01-01T15:35:09Z</time>
      </trkpt>
      <trkpt lat="42.82403" lon="0.30247">
        <ele>1209</ele>
        <time>2010-01-01T15:35:43Z</time>
      </trkpt>
      <trkpt lat="42.82404" lon="0.3041">
        <ele>1189</ele>
        <time>2010-01-01T15:36:31Z</time>
      </trkpt>
      <trkpt lat="42.82566" lon="0.30587">
        <ele>1152</ele>
        <time>2010-01-01T15:37:54Z</time>
      </trkpt>
      <trkpt lat="42.82518" lon="0.30608">
        <ele>1145</ele>
        <time>2010-01-01T15:38:15Z</time>
      </trkpt>
      <trkpt lat="42.82569" lon="0.30627">
        <ele>1138</ele>
        <time>2010-01-01T15:38:36Z</time>
      </trkpt>
      <trkpt lat="42.82642" lon="0.30558">
        <ele>1139</ele>
        <time>2010-01-01T15:39:12Z</time>
      </trkpt>
      <trkpt lat="42.82566" lon="0.30705">
        <ele>1111</ele>
        <time>2010-01-01T15:40:05Z</time>
      </trkpt>
      <trkpt lat="42.82643" lon="0.30654">
        <ele>1108</ele>
        <time>2010-01-01T15:40:39Z</time>
      </trkpt>
      <trkpt lat="42.82558" lon="0.30776">
        <ele>1084</ele>
        <time>2010-01-01T15:41:29Z</time>
      </trkpt>
      <trkpt lat="42.8271" lon="0.30672">
        <ele>1073</ele>
        <time>2010-01-01T15:42:37Z</time>
      </trkpt>
      <trkpt lat="42.8281" lon="0.30514">
        <ele>1045</ele>
        <time>2010-01-01T15:43:39Z</time>
      </trkpt>
      <trkpt lat="42.82813" lon="0.30659">
        <ele>1018</ele>
        <time>2010-01-01T15:44:21Z</time>
      </trkpt>
      <trkpt lat="42.82803" lon="0.30837">
        <ele>992</ele>
        <time>2010-01-01T15:45:13Z</time>
      </trkpt>
      <trkpt lat="42.82772" lon="0.30978">
        <ele>970</ele>
        <time>2010-01-01T15:45:57Z</time>
      </trkpt>
      <trkpt lat="42.82743" lon="0.31092">
        <ele>952</ele>
        <time>2010-01-01T15:46:32Z</time>
      </trkpt>
      <trkpt lat="42.82742" lon="0.31187">
        <ele>931</ele>
        <time>2010-01-01T15:47:00Z</time>
      </trkpt>
      <trkpt lat="42.82622" lon="0.31255">
        <ele>921</ele>
        <time>2010-01-01T15:47:52Z</time>
      </trkpt>
      <trkpt lat="42.82456" lon="0.3127">
        <ele>899</ele>
        <time>2010-01-01T15:48:59Z</time>
      </trkpt>
      <trkpt lat="42.82614" lon="0.31375">
        <ele>881</ele>
        <time>2010-01-01T15:50:10Z</time>
      </trkpt>
      <trkpt lat="42.82424" lon="0.31401">
        <ele>855</ele>
        <time>2010-01-01T15:51:26Z</time>
      </trkpt>
      <trkpt lat="42.8236" lon="0.31411">
        <ele>850</ele>
        <time>2010-01-01T15:51:52Z</time>
      </trkpt>
      <trkpt lat="42.82341" lon="0.315">
        <ele>835</ele>
        <time>2010-01-01T15:52:19Z</time>
      </trkpt>
      <trkpt lat="42.82356" lon="0.31617">
        <ele>824</ele>
        <time>2010-01-01T15:52:54Z</time>
      </trkpt>
      <trkpt lat="42.82405" lon="0.31653">
        <ele>823</ele>
        <time>2010-01-01T15:53:17Z</time>
      </trkpt>
      <trkpt lat="42.82477" lon="0.31712">
        <ele>821</ele>
        <time>2010-01-01T15:53:50Z</time>
      </trkpt>
      <trkpt lat="42.82571" lon="0.31785">
        <ele>821</ele>
        <time>2010-01-01T15:54:33Z</time>
      </trkpt>
      <trkpt lat="42.82562" lon="0.31862">
        <ele>817</ele>
        <time>2010-01-01T15:54:56Z</time>
      </trkpt>
      <trkpt lat="42.82639" lon="0.31999">
        <ele>810</ele>
        <time>2010-01-01T15:55:47Z</time>
      </trkpt>
      <trkpt lat="42.82652" lon="0.3213">
        <ele>805</ele>
        <time>2010-01-01T15:56:25Z</time>
      </trkpt>
      <trkpt lat="42.82745" lon="0.32304">
        <ele>798</ele>
        <time>2010-01-01T15:57:29Z</time>
      </trkpt>
      <trkpt lat="42.82849" lon="0.32541">
        <ele>794</ele>
        <time>2010-01-01T15:58:50Z</time>
      </trkpt>
      <trkpt lat="42.82884" lon="0.32625">
        <ele>793</ele>
        <time>2010-01-01T15:59:18Z</time>
      </trkpt>
      <trkpt lat="42.82987" lon="0.3271">
        <ele>791</ele>
        <time>2010-01-01T16:00:06Z</time>
      </trkpt>
    </trkseg>
  </trk>
</gpx>